[[{"header":{"parameterUnit":"m.s-1","parameterCategory":1,"la1":30.6,"la2":28.766,"lo1":-90.7593,"lo2":-88.6598,"dy":0.0162,"dx":0.0183,"nx":116,"ny":114,"refTime":"2024-04-17T12:00:00:Z","depth":0,"parameterNumber":2,"parameterNumberName":"U-component_of_WINDS"},"data":[0.0,0.0,0.0,0.0,0.0,0.0,0.0,0.0,0.0,0.0,0.0,0.0,0.0,0.0,0.0,0.0,0.0,0.0,0.0,0.0,0.0,0.0,0.0,0.0,0.0,0.0,0.0,0.0,0.0,0.0,0.0,0.0,0.0,0.0,0.0,0.0,0.0,0.0,0.0,0.0,0.0,0.0,0.0,0.0,0.0,0.0,0.0,0.0,0.0,0.0,0.0,0.0,0.0,0.0,0.0,0.0,0.0,0.0,0.0,0.0,0.0,0.0,0.0,0.0,0.0,0.0,0.0,0.0,0.0,0.0,0.0,0.0,0.0,0.0,0.0,0.0,0.0,0.0,0.0,0.0,0.0,0.0,0.0,0.0,0.0,0.0,0.0,0.0,0.0,0.0,0.0,0.0,0.0,0.0,0.0,0.0,0.0,0.0,0.0,0.0,0.0,0.0,0.0,0.0,0.0,0.0,0.0,0.0,0.0,0.0,0.0,0.0,0.0,0.0,0.0,0.0,0.0,0.0,0.0,0.0,0.0,0.0,0.0,0.0,0.0,0.0,0.0,0.0,0.0,0.0,0.0,0.0,0.0,0.0,0.0,0.0,0.0,0.0,0.0,0.0,0.0,0.0,0.0,0.0,0.0,0.0,0.0,0.0,0.0,0.0,0.0,0.0,0.0,0.0,0.0,0.0,0.0,0.0,0.0,0.0,0.0,0.0,0.0,0.0,0.0,0.0,0.0,0.0,0.0,0.0,0.0,0.0,0.0,0.0,0.0,0.0,0.0,0.0,0.0,0.0,0.0,0.0,0.0,0.0,0.0,0.0,0.0,0.0,0.0,0.0,0.0,0.0,0.0,0.0,0.0,0.0,0.0,0.0,0.0,0.0,0.0,0.0,0.0,0.0,0.0,0.0,0.0,0.0,0.0,0.0,0.0,0.0,0.0,0.0,0.0,0.0,0.0,0.0,0.0,0.0,0.0,0.0,0.0,0.0,0.0,0.0,0.0,0.0,0.0,0.0,0.0,0.0,0.0,0.0,0.0,0.0,0.0,0.0,0.0,0.0,0.0,0.0,0.0,0.0,0.0,0.0,0.0,0.0,0.0,0.0,0.0,0.0,0.0,0.0,0.0,0.0,0.0,0.0,0.0,0.0,0.0,0.0,0.0,0.0,0.0,0.0,0.0,0.0,0.0,0.0,0.0,0.0,0.0,0.0,0.0,0.0,0.0,0.0,0.0,0.0,0.0,0.0,0.0,0.0,0.0,0.0,0.0,0.0,0.0,0.0,0.0,0.0,0.0,0.0,0.0,0.0,0.0,0.0,0.0,0.0,0.0,0.0,0.0,0.0,0.0,0.0,0.0,0.0,0.0,0.0,0.0,0.0,0.0,0.0,0.0,0.0,0.0,0.0,0.0,0.0,0.0,0.0,0.0,0.0,0.0,0.0,0.0,0.0,0.0,0.0,0.0,0.0,0.0,0.0,0.0,0.0,0.0,0.0,0.0,0.0,0.0,0.0,0.0,0.0,0.0,0.0,0.0,0.0,0.0,0.0,0.0,0.0,0.0,0.0,0.0,0.0,0.0,0.0,0.0,0.0,0.0,0.0,0.0,0.0,0.0,0.0,0.0,0.0,0.0,0.0,0.0,0.0,0.0,0.0,0.0,0.0,0.0,0.0,0.0,0.0,0.0,0.0,0.0,0.0,0.0,0.0,0.0,0.0,0.0,0.0,0.0,0.0,0.0,0.0,0.0,0.0,0.0,0.0,0.0,0.0,0.0,0.0,0.0,0.0,0.0,0.0,0.0,0.0,0.0,0.0,0.0,0.0,0.0,0.0,0.0,0.0,0.0,0.0,0.0,0.0,0.0,0.0,0.0,0.0,0.0,0.0,0.0,0.0,0.0,0.0,0.0,0.0,0.0,0.0,0.0,0.0,0.0,0.0,0.0,0.0,0.0,0.0,0.0,0.0,0.0,0.0,0.0,0.0,0.0,0.0,0.0,0.0,0.0,0.0,0.0,0.0,0.0,0.0,0.0,0.0,0.0,0.0,0.0,0.0,0.0,0.0,0.0,0.0,0.0,0.0,0.0,0.0,0.0,0.0,0.0,0.0,0.0,0.0,0.0,0.0,0.0,0.0,0.0,0.0,0.0,0.0,0.0,0.0,0.0,0.0,0.0,0.0,0.0,0.0,0.0,0.0,0.0,0.0,0.0,0.0,0.0,0.0,0.0,0.0,0.0,0.0,0.0,0.0,0.0,0.0,0.0,0.0,0.0,0.0,0.0,0.0,0.0,0.0,0.0,0.0,0.0,0.0,0.0,0.0,0.0,0.0,0.0,0.0,0.0,0.0,0.0,0.0,0.0,0.0,0.0,0.0,0.0,0.0,0.0,0.0,0.0,0.0,0.0,0.0,0.0,0.0,0.0,0.0,0.0,0.0,0.0,0.0,0.0,0.0,0.0,0.0,0.0,0.0,0.0,0.0,0.0,0.0,0.0,0.0,0.0,0.0,0.0,0.0,0.0,0.0,0.0,0.0,0.0,0.0,0.0,0.0,0.0,0.0,0.0,0.0,0.0,0.0,0.0,0.0,0.0,0.0,0.0,0.0,0.0,0.0,0.0,0.0,0.0,0.0,0.0,0.0,0.0,0.0,0.0,0.0,0.0,0.0,0.0,0.0,0.0,0.0,0.0,0.0,0.0,0.0,0.0,0.0,0.0,0.0,0.0,0.0,0.0,0.0,0.0,0.0,0.0,0.0,0.0,0.0,0.0,0.0,0.0,0.0,0.0,0.0,0.0,0.0,0.0,0.0,0.0,0.0,0.0,0.0,0.0,0.0,0.0,0.0,0.0,0.0,0.0,0.0,0.0,0.0,0.0,0.0,0.0,0.0,0.0,0.0,0.0,0.0,0.0,0.0,0.0,0.0,0.0,0.0,0.0,0.0,0.0,0.0,0.0,0.0,0.0,0.0,0.0,0.0,0.0,0.0,0.0,0.0,0.0,0.0,0.0,0.0,0.0,0.0,0.0,0.0,0.0,0.0,0.0,0.0,0.0,0.0,0.0,0.0,0.0,0.0,0.0,0.0,0.0,0.0,0.0,0.0,0.0,0.0,0.0,0.0,0.0,0.0,0.0,0.0,0.0,0.0,0.0,0.0,0.0,0.0,0.0,0.0,0.0,0.0,0.0,0.0,0.0,0.0,0.0,0.0,0.0,0.0,0.0,0.0,0.0,0.0,0.0,0.0,0.0,0.0,0.0,0.0,0.0,0.0,0.0,0.0,0.0,0.0,0.0,0.0,0.0,0.0,0.0,0.0,0.0,0.0,0.0,0.0,0.0,0.0,0.0,0.0,0.0,0.0,0.0,0.0,0.0,0.0,0.0,0.0,0.0,0.0,0.0,0.0,0.0,0.0,0.0,0.0,0.0,0.0,0.0,0.0,0.0,0.0,0.0,0.0,0.0,0.0,0.0,0.0,0.0,0.0,0.0,0.0,0.0,0.0,0.0,0.0,0.0,0.0,0.0,0.0,0.0,0.0,0.0,0.0,0.0,0.0,0.0,0.0,0.0,0.0,0.0,0.0,0.0,0.0,0.0,0.0,0.0,0.0,0.0,0.0,0.0,0.0,0.0,0.0,0.0,0.0,0.0,0.0,0.0,0.0,0.0,0.0,0.0,0.0,0.0,0.0,0.0,0.0,0.0,0.0,0.0,0.0,0.0,0.0,0.0,0.0,0.0,0.0,0.0,0.0,0.0,0.0,0.0,0.0,0.0,0.0,0.0,0.0,0.0,0.0,0.0,0.0,0.0,0.0,0.0,0.0,0.0,0.0,0.0,0.0,0.0,0.0,0.0,0.0,0.0,0.0,0.0,0.0,0.0,0.0,0.0,0.0,0.0,0.0,0.0,0.0,0.0,0.0,0.0,0.0,0.0,0.0,0.0,0.0,0.0,0.0,0.0,0.0,0.0,0.0,0.0,0.0,0.0,0.0,0.0,0.0,0.0,0.0,0.0,0.0,0.0,0.0,0.0,0.0,0.0,0.0,0.0,0.0,0.0,0.0,0.0,0.0,0.0,0.0,0.0,0.0,0.0,0.0,0.0,0.0,0.0,0.0,0.0,0.0,0.0,0.0,0.0,0.0,0.0,0.0,0.0,0.0,0.0,0.0,0.0,0.0,0.0,0.0,0.0,0.0,0.0,0.0,0.0,0.0,0.0,0.0,0.0,0.0,0.0,0.0,0.0,0.0,0.0,0.0,0.0,0.0,0.0,0.0,0.0,0.0,0.0,0.0,0.0,0.0,0.0,0.0,0.0,0.0,0.0,0.0,0.0,0.0,0.0,0.0,0.0,0.0,0.0,0.0,0.0,0.0,0.0,0.0,0.0,0.0,0.0,0.0,0.0,0.0,0.0,0.0,0.0,0.0,0.0,0.0,0.0,0.0,0.0,0.0,0.0,0.0,0.0,0.0,0.0,0.0,0.0,0.0,0.0,0.0,0.0,0.0,0.0,0.0,0.0,0.0,0.0,0.0,0.0,0.0,0.0,0.0,0.0,0.0,0.0,0.0,0.0,0.0,0.0,0.0,0.0,0.0,0.0,0.0,0.0,0.0,0.0,0.0,0.0,0.0,0.0,0.0,0.0,0.0,0.0,0.0,0.0,0.0,0.0,0.0,0.0,0.0,0.0,0.0,0.0,0.0,0.0,0.0,0.0,0.0,0.0,0.0,0.0,0.0,0.0,0.0,0.0,0.0,0.0,0.0,0.0,0.0,0.0,0.0,0.0,0.0,0.0,0.0,0.0,0.0,0.0,0.0,0.0,0.0,0.0,0.0,0.0,0.0,0.0,0.0,0.0,0.0,0.0,0.0,0.0,0.0,0.0,0.0,0.0,0.0,0.0,0.0,0.0,0.0,0.0,0.0,0.0,0.0,0.0,0.0,0.0,0.0,0.0,0.0,0.0,0.0,0.0,0.0,0.0,0.0,0.0,0.0,0.0,0.0,0.0,0.0,0.0,0.0,0.0,0.0,0.0,0.0,0.0,0.0,0.0,0.0,0.0,0.0,0.0,0.0,0.0,0.0,0.0,0.0,0.0,0.0,0.0,0.0,0.0,0.0,0.0,0.0,0.0,0.0,0.0,0.0,0.0,0.0,0.0,0.0,0.0,0.0,0.0,0.0,0.0,0.0,0.0,0.0,0.0,0.0,0.0,0.0,0.0,0.0,0.0,0.0,0.0,0.0,0.0,0.0,0.0,0.0,0.0,0.0,0.0,0.0,0.0,0.0,0.0,0.0,0.0,0.0,0.0,0.0,0.0,0.0,0.0,0.0,0.0,0.0,0.0,0.0,0.0,0.0,0.0,0.0,0.0,0.0,0.0,0.0,0.0,0.0,0.0,0.0,0.0,0.0,0.0,0.0,0.0,0.0,0.0,0.0,0.0,0.0,0.0,0.0,0.0,0.0,0.0,0.0,0.0,0.0,0.0,0.0,0.0,0.0,0.0,0.0,0.0,0.0,0.0,0.0,0.0,0.0,0.0,0.0,0.0,0.0,0.0,0.0,0.0,0.0,0.0,0.0,0.0,0.0,0.0,0.0,0.0,0.0,0.0,0.0,0.0,0.0,0.0,0.0,0.0,0.0,0.0,0.0,0.0,0.0,0.0,0.0,0.0,0.0,0.0,0.0,0.0,0.0,0.0,0.0,0.0,0.0,0.0,0.0,0.0,0.0,0.0,0.0,0.0,0.0,0.0,0.0,0.0,0.0,0.0,0.0,0.0,0.0,0.0,0.0,0.0,0.0,0.0,0.0,0.0,0.0,0.0,0.0,0.0,0.0,0.0,0.0,0.0,0.0,0.0,0.0,0.0,0.0,0.0,0.0,0.0,0.0,0.0,0.0,0.0,0.0,0.0,0.0,0.0,0.0,0.0,0.0,0.0,0.0,0.0,0.0,0.0,0.0,0.0,0.0,0.0,0.0,0.0,0.0,0.0,0.0,0.0,0.0,0.0,0.0,0.0,0.0,0.0,0.0,0.0,0.0,0.0,0.0,0.0,0.0,0.0,0.0,0.0,0.0,0.0,0.0,0.0,0.0,0.0,0.0,0.0,0.0,0.0,0.0,-1.4438,0.0,0.0,0.0,0.0,0.0,0.0,0.0,0.0,0.0,0.0,0.0,0.0,0.0,0.0,0.0,0.0,0.0,0.0,0.0,0.0,0.0,0.0,0.0,0.0,-0.4202,-0.3928,-0.4369,-0.3845,-0.3811,-0.4535,-0.4595,0.0,0.0,0.0,0.0,-0.5293,-0.5688,-0.5991,-0.6191,-0.6731,-0.7181,-0.7525,-0.7632,-0.727,-0.6501,0.0,0.0,0.0,0.0,0.0,0.0,0.0,0.0,0.0,0.0,0.0,0.0,0.0,0.0,0.0,0.0,0.0,0.0,0.0,0.0,0.0,0.0,0.0,0.0,0.0,0.0,0.0,0.0,0.0,0.0,0.0,0.0,0.0,0.0,0.0,0.0,0.0,0.0,0.0,0.0,0.0,0.0,0.0,0.0,0.0,0.0,0.0,0.0,0.0,0.0,0.0,0.0,0.0,0.0,0.0,0.0,0.0,0.0,0.0,0.0,0.0,0.0,0.0,0.0,0.0,0.0,0.0,0.0,0.0,0.0,0.0,-1.4949,0.0,0.0,0.0,0.0,0.0,0.0,0.0,0.0,0.0,0.0,0.0,0.0,0.0,0.0,0.0,0.0,0.0,0.0,0.0,0.0,0.0,-0.4235,-0.4389,-0.3765,-0.3607,-0.4258,-0.3714,-0.3716,-0.459,-0.4656,-0.4802,-0.5132,-0.5193,-0.5199,-0.5146,-0.5582,-0.5981,-0.6314,-0.6876,-0.7512,-0.8218,-0.834,-0.8085,-0.7484,-0.7141,0.0,0.0,0.0,0.0,0.0,0.0,0.0,0.0,0.0,0.0,0.0,0.0,0.0,0.0,0.0,0.0,0.0,0.0,0.0,0.0,0.0,0.0,0.0,0.0,0.0,0.0,0.0,0.0,0.0,0.0,0.0,0.0,0.0,0.0,0.0,0.0,0.0,0.0,0.0,0.0,0.0,0.0,0.0,0.0,0.0,0.0,0.0,0.0,0.0,0.0,0.0,0.0,0.0,0.0,0.0,0.0,0.0,0.0,0.0,0.0,0.0,0.0,0.0,-1.5161,-1.5392,-1.5544,-1.5619,-1.5177,-1.4442,-1.5415,-1.5097,-1.4074,0.0,0.0,0.0,0.0,0.0,0.0,0.0,0.0,0.0,0.0,0.0,0.0,0.0,0.0,0.0,0.0,0.0,0.0,0.0,0.0,-0.356,-0.4322,-0.3396,-0.3053,-0.389,-0.3202,-0.3089,-0.3962,-0.4076,-0.4228,-0.4509,-0.4749,-0.4762,-0.4522,-0.5144,-0.5489,-0.5549,-0.6768,-0.7677,-0.8294,-0.8662,-0.8775,-0.8637,-0.7793,-0.7821,-0.8496,0.0,0.0,0.0,0.0,0.0,0.0,0.0,0.0,0.0,0.0,0.0,0.0,0.0,0.0,0.0,0.0,0.0,0.0,0.0,0.0,0.0,0.0,0.0,0.0,0.0,0.0,0.0,0.0,0.0,0.0,0.0,0.0,0.0,0.0,0.0,0.0,0.0,0.0,0.0,0.0,0.0,-1.1868,-1.4088,0.0,0.0,0.0,0.0,0.0,0.0,0.0,0.0,0.0,0.0,0.0,0.0,0.0,-1.362,-1.4777,-1.5499,-1.5934,-1.6066,-1.697,-1.7242,-1.6949,-1.7305,-1.7192,-1.6745,-1.6437,0.0,-1.6375,-1.5719,0.0,0.0,0.0,0.0,0.0,0.0,0.0,0.0,0.0,0.0,0.0,0.0,0.0,0.0,0.0,0.0,0.0,0.0,0.0,0.0,0.0,-0.4291,-0.4529,-0.489,-0.5624,-0.5814,-0.5178,-0.5618,-0.5458,-0.4442,-0.4516,-0.4522,-0.4409,-0.4911,-0.5418,-0.5911,-0.7168,-0.7814,-0.7867,-0.8372,-0.8611,-0.8611,-0.8191,-0.8208,-0.8536,-0.8222,0.0,0.0,0.0,0.0,0.0,0.0,0.0,0.0,0.0,0.0,0.0,0.0,0.0,0.0,0.0,0.0,0.0,0.0,0.0,0.0,0.0,0.0,0.0,0.0,0.0,0.0,0.0,0.0,0.0,0.0,0.0,0.0,0.0,0.0,0.0,0.0,0.0,0.0,0.0,-1.1514,-1.2924,-1.4122,-1.4766,-1.4665,0.0,0.0,0.0,0.0,0.0,0.0,0.0,0.0,0.0,-1.3243,-1.4424,-1.5128,-1.5259,-1.692,-1.7764,-1.7764,-1.8631,-1.8949,-1.8772,-1.8722,-1.8608,-1.8421,-1.8182,-1.817,-1.8198,-1.7019,-1.6915,-1.7373,0.0,0.0,0.0,0.0,-1.4334,-1.4659,0.0,0.0,0.0,0.0,0.0,0.0,0.0,0.0,0.0,0.0,0.0,0.0,-0.4407,-0.5347,-0.6105,-0.642,-0.7686,-0.7835,-0.6353,-0.6763,-0.623,-0.4348,-0.435,-0.4332,-0.4169,-0.4768,-0.562,-0.672,-0.7688,-0.8101,-0.7953,-0.8383,-0.8663,-0.873,-0.8576,-0.8574,-0.8662,-0.8386,-0.8357,-0.8505,0.0,0.0,0.0,0.0,0.0,0.0,0.0,0.0,0.0,0.0,0.0,0.0,0.0,0.0,0.0,0.0,0.0,0.0,0.0,0.0,0.0,0.0,0.0,0.0,0.0,0.0,0.0,0.0,0.0,0.0,0.0,0.0,0.0,0.0,0.0,0.0,0.0,-1.26,-1.3544,-1.4018,-1.5144,-1.5339,0.0,0.0,0.0,0.0,0.0,0.0,-1.3768,-1.5274,-1.5681,-1.4613,-1.6321,-1.7013,-1.6502,-1.8497,-1.9498,-1.9498,-2.0234,-2.0537,-2.0398,-2.0209,-2.0072,-1.9972,-2.0086,-2.0141,-2.0042,-1.8751,-1.7957,-1.7564,-1.7638,-1.7,-1.6047,-1.6028,-1.5949,-1.5907,0.0,0.0,0.0,0.0,0.0,0.0,0.0,0.0,0.0,0.0,0.0,-0.4545,-0.568,-0.619,-0.7002,-0.8337,-0.7903,-0.732,-0.6717,-0.6353,-0.5495,-0.3989,-0.4226,-0.4135,-0.3552,-0.4691,-0.6116,-0.7814,-0.8191,-0.8636,-0.9124,-0.9158,-0.9317,-0.9621,-0.9031,-0.9117,-0.9657,-0.865,-0.9089,-1.0382,-0.9555,0.0,0.0,0.0,0.0,0.0,0.0,0.0,0.0,0.0,0.0,0.0,0.0,0.0,0.0,0.0,0.0,0.0,0.0,0.0,0.0,0.0,0.0,0.0,0.0,0.0,0.0,0.0,0.0,0.0,0.0,0.0,0.0,0.0,0.0,0.0,0.0,0.0,0.0,-1.3861,-1.5576,0.0,0.0,0.0,0.0,-1.6428,-1.6519,-1.6857,-1.7495,-1.7631,-1.7969,-1.8577,-1.8724,-1.9101,-1.9752,-2.0636,-2.1072,-2.1089,-2.1837,-2.196,-2.1528,-2.196,-2.19,-2.1513,-2.196,-2.215,-2.2032,-2.0512,-2.0289,-2.0795,-1.9106,-1.8867,-1.92,-1.7136,-1.6778,-1.7241,0.0,0.0,0.0,0.0,0.0,-0.4234,-0.411,-0.4185,-0.4182,-0.3961,-0.5004,-0.597,-0.649,-0.8476,-0.9791,-0.9817,-1.0766,-1.0492,-0.8451,-0.7768,-0.6734,-0.5125,-0.4475,-0.4307,-0.4643,-0.5798,-0.6814,-0.7647,-0.8313,-0.8758,-0.8938,-0.8938,-0.9018,-0.9112,-0.8905,-0.8929,-0.9117,-0.8574,-0.8603,-0.9065,-0.9101,-0.9008,0.0,0.0,0.0,0.0,0.0,0.0,0.0,0.0,0.0,0.0,0.0,0.0,0.0,0.0,0.0,0.0,0.0,0.0,0.0,0.0,0.0,0.0,0.0,0.0,0.0,0.0,0.0,0.0,0.0,0.0,0.0,0.0,0.0,0.0,0.0,0.0,0.0,-1.5292,-1.6812,0.0,-1.7211,-1.7734,-1.7924,-1.7439,-1.8302,-1.8729,-1.8521,-1.8966,-1.9338,-1.9608,-2.0111,-2.0513,-2.0771,-2.1532,-2.1904,-2.1904,-2.2161,-2.2209,-2.2063,-2.1913,-2.1764,-2.1613,-2.1779,-2.1838,-2.1834,-2.1591,-2.1363,-2.1075,-1.9925,-1.9635,-1.9831,-1.9252,-1.9033,-1.901,0.0,0.0,0.0,0.0,0.0,-0.3897,-0.3758,-0.3972,-0.4211,-0.4325,-0.5877,-0.7258,-0.8026,-1.0326,-1.171,-1.1532,-1.2188,-1.1562,-0.908,-0.8157,-0.6897,-0.5097,-0.454,-0.4777,-0.5845,-0.672,-0.7415,-0.794,-0.8617,-0.9005,-0.9105,-0.9105,-0.9212,-0.9392,-0.9192,-0.9158,-0.9232,-0.8938,-0.8729,-0.8558,-0.8877,-0.8865,-0.8705,0.0,0.0,0.0,0.0,0.0,0.0,0.0,0.0,0.0,0.0,0.0,0.0,0.0,0.0,0.0,0.0,0.0,0.0,0.0,0.0,0.0,0.0,0.0,0.0,0.0,0.0,0.0,0.0,0.0,0.0,0.0,0.0,0.0,0.0,0.0,-1.5338,-1.6444,-1.7679,-1.8483,-1.8505,-1.8849,-1.903,-1.8949,-1.9845,-2.0302,-2.0061,-2.0504,-2.0792,-2.0792,-2.1295,-2.1566,-2.1566,-2.2057,-2.2296,-2.2296,-2.2296,-2.2296,-2.2296,-2.1988,-2.1514,-2.0994,-2.1578,-2.1497,-2.104,-2.1933,-2.2023,-2.1515,-2.0978,-2.0792,-2.0773,-2.0853,-2.0623,-2.0257,0.0,0.0,0.0,0.0,0.0,-0.3742,-0.3742,-0.3708,-0.402,-0.4997,-0.6508,-0.8263,-1.0246,-1.1532,-1.2584,-1.3432,-1.1934,-1.0215,-0.8541,-0.7343,-0.5802,-0.3834,-0.4452,-0.5518,-0.7,-0.7363,-0.7953,-0.8804,-0.9071,-0.9357,-0.9695,-0.9708,-1.0017,-1.0539,-0.997,-0.984,-1.0087,-0.98,-0.9508,-0.92,-0.9073,-0.9284,-0.9631,0.0,0.0,0.0,0.0,0.0,0.0,0.0,0.0,0.0,0.0,0.0,0.0,0.0,0.0,0.0,0.0,0.0,0.0,0.0,0.0,0.0,0.0,0.0,0.0,0.0,0.0,0.0,0.0,0.0,0.0,0.0,0.0,0.0,-1.3235,-1.5787,-1.7463,-1.7178,-1.8137,-1.8887,-1.8973,-1.9272,-1.9956,-2.1147,-2.1224,-2.1546,-2.2262,-2.2245,-2.2229,-2.2229,-2.2215,-2.2215,-2.2215,-2.2234,-2.2268,-2.2268,-2.2268,-2.2268,-2.2268,-2.2282,-2.1375,-1.9837,-2.1571,-2.1342,-1.9914,-2.1605,-2.2296,-2.2296,-2.2296,-2.2296,-2.2237,-2.1779,-2.1337,-2.0845,0.0,0.0,0.0,-0.2301,-0.2491,-0.2604,-0.2512,-0.2764,-0.3062,-0.3282,-0.5881,-0.8245,-0.9623,-1.1786,-1.3344,-1.389,-1.2402,-1.076,-0.9215,-0.7421,-0.5949,-0.49,-0.5339,-0.6233,-0.7626,-0.7969,-0.8375,-0.8804,-0.9071,-0.9251,-0.9337,-0.9586,-0.9802,-0.995,-0.9789,-0.9726,-0.98,-0.9749,-0.9653,-0.9556,-0.9474,-0.9198,-0.8931,0.0,0.0,0.0,0.0,0.0,0.0,0.0,0.0,0.0,0.0,0.0,0.0,0.0,0.0,0.0,0.0,0.0,0.0,0.0,0.0,0.0,0.0,0.0,0.0,0.0,0.0,0.0,0.0,0.0,0.0,0.0,0.0,-1.6521,-1.61,-1.6686,-1.7441,-1.8177,-1.9222,-2.0018,-2.0384,-2.0767,-2.128,-2.1944,-2.2006,-2.209,-2.2279,-2.1248,-2.0627,-2.0627,-2.0357,-2.0191,-2.0191,-2.097,-2.137,-2.1354,-2.1643,-2.1645,-2.1385,-2.202,-2.1843,-2.111,-2.1936,-2.2032,-2.1622,-2.2099,-2.2296,-2.2296,-2.2296,-2.2296,-2.2237,-2.1779,-2.1134,-2.0353,0.0,0.0,0.0,-0.1947,-0.2068,-0.2084,-0.2007,-0.2326,-0.2753,-0.3248,-0.6081,-0.8533,-0.9773,-1.1905,-1.3271,-1.3305,-1.1934,-1.038,-0.8791,-0.6847,-0.5785,-0.585,-0.6312,-0.7051,-0.809,-0.8404,-0.8637,-0.8804,-0.8951,-0.9158,-0.9397,-0.9599,-0.9842,-1.0084,-1.018,-1.0198,-1.009,-1.0211,-1.0191,-1.0067,-0.9874,-0.9738,-0.9684,-1.0139,-1.0212,-0.9996,-0.9739,-0.968,-0.9698,-0.9453,0.0,0.0,0.0,0.0,0.0,0.0,0.0,0.0,0.0,0.0,0.0,0.0,0.0,0.0,0.0,0.0,0.0,0.0,0.0,0.0,0.0,0.0,0.0,0.0,-1.6104,-1.7822,-1.8138,-1.8166,-1.8386,-1.9034,-1.9667,-2.0296,-2.0943,-2.1213,-2.1598,-2.2237,-2.2296,-2.2296,-2.2296,-2.1267,-2.0619,-2.0504,-2.0212,-1.9998,-1.986,-2.0632,-2.0991,-2.0991,-2.1244,-2.1374,-2.1439,-2.2151,-2.191,0.0,-2.2233,-2.2169,-2.1261,-2.1998,-2.2296,0.0,0.0,0.0,0.0,0.0,-2.1359,-2.0892,0.0,0.0,0.0,-0.1851,-0.1947,-0.1972,-0.1972,-0.2176,-0.2791,-0.4063,-0.6553,-0.8727,-1.0123,-1.1708,-1.2496,-1.2095,-1.0789,-0.9256,-0.7553,-0.5824,-0.5399,-0.6646,-0.7197,-0.7782,-0.8435,-0.8671,-0.8804,-0.8804,-0.8838,-0.9138,-0.9715,-0.9749,-1.0057,-1.06,-1.0861,-1.0834,-1.0613,-1.0835,-1.0847,-1.062,-1.0287,-1.0579,-1.1124,-1.0542,-1.069,-1.115,-1.0294,-0.9747,-0.9579,-1.0455,0.0,0.0,0.0,0.0,0.0,0.0,0.0,0.0,0.0,0.0,0.0,0.0,0.0,0.0,0.0,0.0,0.0,0.0,0.0,0.0,0.0,0.0,0.0,0.0,-1.6713,-1.7747,-1.9558,-1.9753,-1.9708,-1.9708,-1.9708,-2.0032,-2.0926,-2.0943,-2.1307,-2.224,-2.2237,-2.2223,-2.2223,0.0,0.0,0.0,0.0,-2.0605,-2.0221,-2.0718,-2.0973,-2.0973,-2.1021,-2.1371,-2.1971,-2.2492,-2.1841,-2.0367,-2.2457,-2.2103,-2.0191,-2.1807,-2.2541,-2.2702,-2.3122,-2.2936,-2.2355,-2.1713,-2.1696,-2.1929,0.0,0.0,0.0,-0.1414,-0.1658,-0.1836,-0.1836,-0.1881,-0.2375,-0.3651,-0.5688,-0.7526,-0.8819,-1.0358,-1.1224,-1.1073,-0.9206,-0.7412,-0.5949,-0.4659,-0.4954,-0.7238,-0.7275,-0.7722,-0.8697,-0.8778,-0.8804,-0.8804,-0.9011,-0.9311,-0.9715,-0.992,-1.0221,-1.0593,-1.0646,-1.0646,-1.0593,-1.0653,-1.078,-1.0882,-1.0626,-1.0809,-1.13,-1.1475,-1.1615,-1.1701,-1.1723,-1.1674,-1.1556,-1.1217,-1.1282,-1.1563,-1.1974,-1.1019,0.0,0.0,0.0,0.0,0.0,0.0,0.0,0.0,0.0,0.0,0.0,0.0,0.0,0.0,0.0,0.0,0.0,0.0,0.0,-1.8579,-1.921,-1.981,-2.0415,-2.0034,-1.9708,-1.9708,-1.9708,-2.0032,-2.0926,-2.0649,-2.0959,-2.2209,-2.1943,-2.1749,-2.1749,-2.0525,0.0,-1.9278,-1.9406,-1.9166,-1.8578,-2.0024,-2.0758,-2.0758,0.0,0.0,-2.1781,-2.2573,-2.254,-2.1893,-2.2729,-2.2806,-2.242,-2.3129,-2.4028,-2.4798,-2.3141,-2.2801,-2.2994,-2.1389,-2.132,-2.1866,0.0,0.0,0.0,-0.1072,-0.1239,-0.1394,-0.153,-0.1552,-0.1887,-0.2826,-0.4499,-0.6018,-0.7118,-0.8185,-0.882,-0.8838,-0.7406,-0.6463,-0.6414,-0.6117,-0.6545,-0.7886,-0.7987,-0.8246,-0.8791,-0.8918,-0.8998,-0.8998,-0.9291,-0.9613,-0.9907,-1.0047,-1.0274,-1.06,-1.0747,-1.0807,-1.0821,-1.0929,-1.1076,-1.1182,-1.0928,-1.1432,-1.2357,-1.2186,-1.2478,-1.295,-1.286,-1.2768,-1.2638,-1.2564,-1.2635,-1.2823,-1.3266,-1.2551,-1.1349,0.0,0.0,0.0,0.0,0.0,0.0,0.0,0.0,0.0,0.0,0.0,0.0,0.0,0.0,-1.6282,-1.693,0.0,-1.8582,-1.9747,-1.9699,-1.9791,-2.0591,-2.0124,-1.9708,-1.9708,-1.9708,-2.0032,-2.0926,-2.0797,-2.1118,-2.2209,-2.1869,-2.1597,-2.1597,-2.0811,-2.0194,-1.986,-2.0206,-2.016,-1.9665,-2.0681,-2.1017,-2.0703,-2.1254,-2.1568,-2.1729,-2.2728,-2.3039,-2.2825,-2.3335,-2.3347,-2.3028,-2.3519,-2.4298,-2.508,-2.386,-2.3849,-2.4308,-2.2627,-2.2456,-2.2966,0.0,0.0,0.0,-0.0744,-0.0858,-0.0986,-0.1261,-0.1296,-0.1563,-0.2321,-0.3539,-0.4691,-0.5562,-0.611,-0.6353,-0.6197,-0.5677,-0.5876,-0.7102,-0.7669,-0.8178,-0.8639,-0.8755,-0.8804,-0.8804,-0.9011,-0.9131,-0.9131,-0.9452,-0.9746,-1.0033,-1.0094,-1.0274,-1.06,-1.0841,-1.0942,-1.1002,-1.1182,-1.1289,-1.1362,-1.1049,-1.193,-1.3337,-1.2663,-1.3102,-1.4055,-1.3627,-1.3186,-1.2895,-1.3543,-1.3577,-1.3436,-1.4051,-1.3928,-1.3166,-1.1253,-1.1543,0.0,0.0,0.0,0.0,0.0,0.0,0.0,0.0,0.0,-1.5408,-1.5115,-1.6374,-1.7873,-1.8999,-1.8824,-1.9107,-2.0913,-2.0133,-1.966,-2.0733,-2.0318,-1.9857,-1.9723,-1.9708,-2.0015,-2.0797,-2.0862,-2.1181,-2.1991,-2.1705,-2.151,-2.1532,-2.1391,-2.1221,-2.1071,-2.1595,-2.1702,-2.1311,-2.1687,-2.162,-2.1111,-2.1635,-2.1949,-2.2104,-2.3015,-2.3405,-2.338,-2.3818,-2.3809,-2.3489,-2.3852,-2.4391,-2.5006,-2.4791,-2.5152,-2.5642,-2.4154,-2.3902,-2.4292,0.0,0.0,0.0,0.0,0.0,-0.0988,-0.126,-0.1296,-0.1747,-0.3019,-0.3536,-0.4056,-0.4758,-0.5151,-0.4891,-0.3724,-0.4386,-0.5318,-0.6356,-0.6868,-0.7873,-0.9563,-0.9093,-0.8804,-0.8804,-0.8838,-0.8851,-0.8851,-0.9118,-0.9417,-0.974,-1.0,-1.0274,-1.0593,-1.0626,-1.0787,-1.0982,-1.0787,-1.0955,-1.1342,-1.0861,-1.1765,-1.3337,-1.2663,-1.3102,-1.4055,-1.3627,-1.2743,-1.1927,-1.2933,-1.3324,-1.357,-1.4513,-1.4758,-1.4406,-1.2878,-1.2469,-1.2089,-1.0212,-0.8951,-0.8849,-1.1733,-1.2232,-1.2563,0.0,0.0,-1.9197,-1.8583,-2.0662,-2.2642,-2.2779,-2.2605,-2.2729,-2.3554,-2.2382,-2.141,-2.156,-2.1021,-2.0378,-1.9768,-1.9708,-1.9874,-2.0331,-2.0382,-2.0583,-2.1118,-2.1103,-2.1148,-2.1323,-2.131,-2.14,-2.1596,-2.2249,-2.2289,-2.1649,-2.2274,-2.2553,-2.2478,-2.2553,-2.2882,-2.3385,-2.3524,-2.3576,-2.3576,-2.3625,-2.4225,-2.5118,-2.5059,-2.5364,-2.5851,-2.558,-2.593,-2.6387,-2.4914,-2.4645,-2.499,0.0,0.0,0.0,0.0,0.0,-0.0716,-0.1025,-0.1196,-0.1573,-0.2324,-0.2457,-0.2698,-0.3299,-0.3484,-0.3278,-0.2563,-0.3299,-0.4418,-0.5859,-0.6457,-0.7507,-0.9148,-0.8962,-0.8804,-0.8804,-0.8944,-0.9031,-0.9031,-0.9352,-0.9646,-0.994,-1.006,-1.0274,-1.0593,-1.0593,-1.0847,-1.1236,-1.1116,-1.1303,-1.165,-1.1229,-1.1858,-1.2964,-1.2269,-1.2422,-1.2993,-1.2849,-1.2368,0.0,-1.1972,-1.2452,-1.3118,-1.3846,-1.372,-1.3197,-1.2801,-1.2688,-1.2576,-1.2072,-1.2242,0.0,0.0,-1.6009,-1.7547,-1.7977,-2.0256,-2.1907,-2.0605,-2.1964,-2.3362,-2.3243,-2.2361,-2.207,0.0,-2.1746,-2.0617,-2.1362,-2.0699,-2.0004,-1.9738,-1.9016,-1.8859,-1.9709,-2.0347,-2.0797,-2.0991,-2.1358,-2.1666,-2.1873,-2.2022,-2.2168,-2.2283,-2.2877,-2.3086,-2.2802,-2.3071,-2.3062,-2.2703,-2.3062,-2.3182,-2.3092,-2.343,-2.3819,-2.4171,-2.4171,-2.4679,-2.5545,-2.6172,-2.6294,-2.6208,-2.7187,-2.7486,-2.7198,-2.6183,-2.575,-2.5807,0.0,0.0,0.0,0.0,0.0,-0.0728,-0.097,-0.1174,-0.1422,-0.1756,-0.1631,-0.1649,-0.1999,-0.2109,-0.2075,-0.1876,-0.2689,-0.3894,-0.5517,-0.6236,-0.7267,-0.8751,-0.8741,-0.8803,-0.9054,-0.9086,-0.9173,-0.9357,-0.9497,-0.9673,-0.9844,-0.996,-1.0154,-1.0472,-1.0472,-1.0762,-1.1262,-1.1223,-1.1356,-1.1631,-1.1216,-1.1638,-1.2406,-1.155,-1.1506,-1.1894,-1.1912,-1.1572,-1.1075,-1.0934,-1.1532,-1.2412,-1.2906,-1.2823,-1.2592,-1.2739,-1.2796,-1.2981,-1.3695,0.0,0.0,-1.6685,-1.8587,-2.0174,-2.0205,-2.1594,-2.2634,-2.1701,-2.2329,-2.3089,-2.3285,-2.2102,-2.1552,-2.288,-2.1465,-2.0454,-2.1195,-2.0632,-1.9896,-1.9228,-1.8281,-1.7889,-1.8361,-1.9657,-2.0576,-2.0884,-2.1591,-2.2134,-2.239,-2.2601,-2.2778,-2.2942,-2.337,-2.3684,-2.3879,-2.3879,-2.3655,-2.3221,-2.3849,-2.3834,-2.3236,-2.3864,-2.4522,-2.5128,-2.4948,-2.5247,-2.5948,-2.6907,-2.6986,-2.6667,-2.8352,-2.8636,-2.8077,-2.7757,-2.7271,-2.6849,0.0,0.0,0.0,0.0,0.0,-0.1271,-0.1282,-0.1296,-0.1419,-0.1752,-0.151,-0.1266,-0.1154,-0.1372,-0.1524,-0.1519,-0.2728,-0.4037,-0.5331,-0.6158,-0.728,-0.882,-0.8592,-0.8841,-0.9762,-0.9146,-0.9127,-0.9777,-0.9398,-0.9231,-0.9244,-0.9559,-0.9853,-1.0134,-1.0134,-1.0454,-1.0989,-1.0734,-1.0787,-1.0969,-1.0388,-1.0777,-1.1618,-1.0495,-1.0449,-1.104,-1.1038,-1.0196,-0.9195,-0.9889,-1.0666,-1.141,-1.1815,-1.2782,-1.3651,-1.3137,-1.2959,-1.3222,-1.4732,0.0,-1.4266,-1.836,-1.8113,-1.7648,-2.0744,-2.0909,-2.0717,-2.1853,-2.2098,-2.2507,-2.3654,-2.3039,-2.2504,-2.3032,-2.2606,-2.1991,-2.1394,-2.127,-2.0387,-1.8032,-1.7712,-1.7236,0.0,-1.7817,-1.9515,-2.064,-2.1512,-2.2211,-2.2665,-2.2709,-2.2972,-2.355,-2.3595,-2.3924,-2.4575,-2.4575,-2.456,-2.4545,-2.5217,-2.5187,-2.4575,-2.5217,-2.5914,-2.6497,-2.5854,-2.5959,-2.6594,-2.7111,-2.7278,-2.7387,-2.8553,-2.8993,-2.9061,-2.9736,-2.9257,-2.8243,0.0,0.0,0.0,0.0,0.0,0.0,-0.2196,-0.1891,-0.1642,-0.1665,-0.1457,0.0,0.0,0.0,0.0,0.0,-0.2035,-0.2914,-0.4186,-0.4982,-0.5958,-0.7192,-0.7777,-0.822,-0.8529,-0.8536,-0.874,-0.9133,-0.9011,-0.9024,-0.9217,-0.9317,-0.9624,-1.0083,-1.0083,-1.0441,-1.0975,-1.0713,-1.0925,-1.1326,-1.0647,-1.0872,-1.149,-1.0119,-0.9747,-0.9801,0.0,-0.862,-0.8801,-0.8778,-0.9192,-0.9797,-1.0292,-1.0908,-1.1621,-1.2333,-1.3215,-1.4078,0.0,0.0,-1.7379,-1.962,-2.0313,-2.0885,-2.2409,-2.247,-2.2096,-2.1596,-2.1115,-2.0637,-2.0194,-1.943,-1.9216,-2.0219,-1.9625,-1.953,-2.0921,-1.9829,-1.8933,-1.9019,-1.8109,0.0,0.0,0.0,0.0,-2.0472,-2.1913,-2.3051,-2.3779,-2.4259,-2.4222,-2.3631,-2.4462,-2.4814,-2.4605,-2.5038,-2.5247,-2.5262,-2.5495,-2.5472,-2.5262,-2.551,-2.5974,-2.6572,-2.6363,-2.6632,-2.734,-2.8306,-2.8393,-2.8137,-2.9822,-3.0159,-2.982,-3.0565,-3.0071,-2.9016,0.0,0.0,0.0,0.0,0.0,0.0,0.0,0.0,0.0,0.0,0.0,0.0,0.0,0.0,0.0,0.0,0.0,-0.2377,-0.3383,-0.4006,-0.4781,-0.5779,-0.6581,-0.7168,-0.7541,-0.7823,-0.8181,-0.8582,-0.8441,-0.8461,-0.8627,-0.8788,-0.9024,-0.9345,-0.9995,-1.0314,-1.0354,-1.0464,-1.0604,-1.0763,-1.0066,-1.0152,-1.0572,-0.9284,-0.8858,0.0,-0.7704,-0.7626,-0.8008,-0.7896,-0.8444,-0.9252,-0.9677,-1.0359,-1.1295,-1.2715,-1.4012,-1.5139,0.0,-1.77,-1.9882,-2.1197,-2.1837,-2.2309,-2.2898,-2.2295,-2.1334,-2.0388,-1.9701,-1.8903,-1.7771,-1.723,-1.7363,-1.8588,-1.8209,-1.8545,-2.0778,-1.9875,-1.9161,-1.9651,-1.922,-1.9186,0.0,0.0,0.0,-2.0743,-2.2221,-2.3304,-2.3779,-2.4401,-2.452,-2.3969,-2.5031,-2.5501,-2.5307,-2.5749,-2.6078,-2.6303,-2.6078,-2.6078,-2.6303,-2.6303,-2.6288,-2.6273,-2.6761,-2.6941,-2.6999,-2.8483,-2.8933,-2.881,-3.007,-3.0533,-3.0509,-3.0553,-3.0081,-2.9406,0.0,0.0,0.0,0.0,0.0,0.0,0.0,0.0,0.0,0.0,0.0,0.0,0.0,0.0,0.0,0.0,0.0,0.0,-0.2938,-0.3304,-0.3867,-0.4693,-0.5151,-0.5832,-0.6786,-0.7023,-0.7434,-0.8095,-0.7718,-0.752,-0.7527,-0.7981,-0.8074,-0.7953,-0.9674,-0.9967,-0.9247,-0.9928,-0.9898,-0.9361,-0.8752,-0.8766,-0.9053,-0.8105,-0.7908,-0.807,-0.7601,-0.7195,-0.6921,-0.7323,-0.8498,-0.9853,-1.0126,-1.1285,-1.2787,-1.4206,-1.5323,-1.6451,-1.7915,-1.9722,-2.1544,-2.3037,-2.2533,-2.1822,-2.2207,-2.0416,-1.8582,-1.8269,-1.7836,-1.721,0.0,0.0,-1.6834,-1.8083,-1.8283,-1.8966,-2.0978,-2.1252,-2.0906,0.0,0.0,0.0,0.0,0.0,0.0,-2.1601,0.0,-2.3129,-2.2953,-2.3479,-2.4051,-2.4634,-2.5322,-2.5989,-2.6587,-2.6617,-2.6986,-2.7585,-2.6971,-2.6986,-2.76,-2.76,-2.6911,-2.5779,-2.7061,-2.6881,-2.5856,-2.7725,-2.885,-2.9361,-2.9384,-3.0102,-3.0975,-2.9827,-2.9384,-2.9361,0.0,0.0,0.0,0.0,0.0,0.0,0.0,0.0,0.0,0.0,0.0,0.0,0.0,0.0,0.0,0.0,0.0,0.0,-0.2531,-0.3146,-0.3574,-0.3746,-0.4622,-0.5273,-0.5628,-0.5877,-0.6213,-0.6633,-0.6532,-0.6433,-0.634,-0.6456,-0.6867,-0.754,-0.8006,-0.8557,-0.9121,-0.9111,-0.9304,-0.9548,-0.8757,-0.9022,-0.9788,-0.8647,-0.8356,-0.8358,-0.6961,-0.7027,-0.7805,-0.8065,-0.9468,0.0,-1.2822,-1.4231,-1.5296,-1.4993,-1.6862,-1.8934,-1.8547,-2.0317,-2.246,-2.3226,-2.2533,-2.1566,-2.1104,-1.9411,-1.7569,-1.6158,-1.5095,-1.4161,0.0,0.0,0.0,-1.6439,-1.6656,0.0,-2.017,-2.0737,0.0,-2.116,0.0,-2.359,-2.3731,-2.5383,0.0,0.0,-2.4745,-2.5086,-2.6062,-2.6326,-2.61,-2.5375,-2.6467,-2.6941,-2.6587,-2.7106,-2.742,-2.76,-2.742,-2.7435,-2.76,-2.76,-2.7405,-2.7121,-2.745,-2.7405,-2.717,-2.8108,-2.8583,-2.8779,-2.9225,-2.9585,-2.9827,-2.9518,-2.9111,-2.8732,0.0,0.0,0.0,0.0,0.0,0.0,0.0,0.0,0.0,0.0,0.0,0.0,0.0,0.0,0.0,0.0,0.0,0.0,0.0,-0.296,-0.3174,-0.3138,-0.3887,-0.4262,-0.4193,-0.5138,-0.5583,-0.5444,-0.6035,-0.6171,-0.5909,-0.6177,-0.6471,-0.6825,-0.7712,-0.8172,-0.8294,-0.8606,-0.8824,0.0,0.0,-0.8226,-0.8885,-0.8021,-0.7837,-0.7928,-0.7071,-0.7393,-0.8426,0.0,0.0,-1.2583,-1.5232,-1.6634,-1.7471,-1.8236,0.0,-2.1276,-2.0926,-2.2164,-2.3531,-2.3498,-2.237,-2.0903,-1.958,-1.7904,-1.6113,-1.4206,-1.3419,0.0,-1.1859,0.0,0.0,0.0,0.0,0.0,-2.0058,-2.1118,-2.1814,0.0,-2.4351,0.0,-2.6082,-2.7746,-2.8419,0.0,-2.6367,-2.5923,-2.6472,-2.6562,-2.6561,-2.6492,-2.7495,-2.7869,-2.747,-2.7854,-2.7899,-2.76,-2.76,-2.76,-2.76,-2.76,-2.7285,-2.6761,0.0,-2.727,-2.6801,-2.7725,-2.8262,-2.8511,-2.8591,-2.8927,-2.9339,-2.881,-2.8567,-2.8463,0.0,0.0,0.0,0.0,0.0,0.0,0.0,0.0,0.0,0.0,-0.2736,-0.2339,0.0,0.0,0.0,0.0,0.0,0.0,0.0,0.0,-0.29,-0.3008,-0.3316,-0.3354,-0.3072,-0.4708,-0.5246,-0.4601,-0.5796,-0.6168,-0.5756,-0.6252,-0.6292,-0.6012,-0.7783,-0.8054,-0.7258,-0.8184,-0.8308,-0.7814,-0.7103,-0.7035,-0.7339,0.0,-0.7037,-0.7348,-0.762,-0.8023,-0.8868,0.0,-1.2746,-1.3751,-1.7315,-1.8768,-1.9659,-2.2079,-2.3069,-2.3387,-2.3532,-2.4027,-2.4283,-2.3442,-2.1852,-1.9964,-1.7963,-1.6253,-1.453,-1.258,0.0,-1.2228,-1.1416,-1.1873,-1.309,-1.5308,0.0,-1.7652,-1.9971,-2.1754,-2.3038,-2.3664,-2.5894,-2.7496,-2.7692,-2.9168,-2.992,-2.9395,-2.779,-2.6581,-2.5938,-2.5963,-2.6572,-2.7824,-2.8323,-2.8607,-2.8607,-2.8682,-2.8338,-2.76,-2.769,-2.769,-2.76,-2.769,-2.7106,-2.6078,0.0,0.0,-2.6213,-2.73,-2.8046,-2.8458,-2.784,-2.8231,-2.9042,-2.7993,-2.7919,-2.831,0.0,0.0,0.0,0.0,0.0,0.0,0.0,0.0,0.0,0.0,-0.3373,-0.279,0.0,0.0,0.0,0.0,0.0,0.0,0.0,0.0,0.0,-0.4089,-0.3984,-0.3923,-0.3965,-0.4513,-0.4728,-0.4602,-0.506,-0.5179,-0.4986,-0.4874,-0.5096,-0.5602,-0.612,-0.6636,-0.7125,-0.7315,-0.7344,-0.7191,-0.6572,-0.6714,-0.7301,-0.7117,0.0,0.0,-0.8188,-0.8463,-0.9127,-1.1763,-1.3635,-1.5419,-1.8603,-2.1033,-2.2643,-2.233,-2.3631,-2.4747,-2.2909,-2.3111,-2.3449,-2.1771,-2.0353,-1.8874,-1.6982,-1.5212,0.0,0.0,-1.1159,-1.0871,-1.1013,-1.1956,-1.3213,-1.4729,0.0,0.0,0.0,0.0,-2.3667,0.0,0.0,0.0,0.0,0.0,0.0,0.0,0.0,-2.925,-2.8047,-2.8031,-2.8427,-2.9232,-2.8831,-2.8607,-2.8607,-2.9146,-2.8813,-2.76,-2.8143,-2.8154,-2.7615,-2.8158,-2.8293,-2.8128,-2.8918,0.0,-2.8861,-2.8547,-2.849,-2.8508,-2.7875,-2.7735,-2.7894,-2.7685,-2.7675,-2.7811,0.0,0.0,0.0,0.0,0.0,0.0,0.0,-0.4545,-0.43,-0.4017,-0.3747,-0.35,-0.3281,-0.3111,-0.3004,0.0,0.0,0.0,0.0,0.0,0.0,0.0,-0.424,-0.4205,-0.4099,-0.4872,0.0,0.0,0.0,-0.5669,-0.5375,0.0,0.0,-0.572,-0.592,-0.6161,-0.6438,-0.665,-0.6738,-0.6692,-0.6193,-0.6294,-0.6728,0.0,0.0,0.0,0.0,0.0,-0.8972,-1.1455,-1.3263,-1.5118,-1.8821,-2.1255,-2.2774,-2.3127,-2.4606,-2.5858,-2.4612,-2.4484,-2.4259,-2.2403,-2.0516,-1.8351,-1.5488,0.0,0.0,0.0,-1.0013,-0.9932,-1.0574,0.0,0.0,0.0,0.0,0.0,0.0,0.0,0.0,0.0,0.0,0.0,0.0,0.0,0.0,0.0,0.0,-2.9312,-2.9038,-2.9394,-2.9579,-2.9606,-2.9939,-2.9953,-2.9594,-2.9909,-2.9606,-2.8648,-2.8978,-2.8963,-2.8648,-2.8978,-2.9116,-2.9131,-2.9472,0.0,-2.9071,-2.9101,-2.8697,-2.8124,-2.8498,-2.8214,-2.7645,-2.8004,-2.8113,-2.8184,0.0,0.0,0.0,0.0,0.0,0.0,-0.4442,-0.4396,-0.4221,-0.3707,-0.3961,-0.4079,-0.3756,-0.3433,-0.3115,0.0,0.0,0.0,0.0,0.0,0.0,0.0,0.0,0.0,0.0,0.0,0.0,0.0,0.0,0.0,0.0,0.0,0.0,0.0,0.0,0.0,-0.5899,-0.6156,-0.627,0.0,0.0,0.0,0.0,0.0,0.0,0.0,0.0,0.0,0.0,0.0,-1.2287,-1.3731,-1.7494,-2.004,-2.191,-2.337,-2.4982,-2.6223,-2.6009,-2.5665,-2.4917,-2.2965,-2.0606,-1.7865,-1.4545,-1.2567,0.0,0.0,-0.9461,-0.955,-1.0451,0.0,-1.1722,0.0,0.0,0.0,0.0,0.0,0.0,0.0,0.0,0.0,0.0,0.0,0.0,0.0,0.0,0.0,-2.9684,-3.0102,-3.0208,-2.9998,-3.0823,-3.1017,-3.0507,-3.0657,-3.0342,-2.9606,-2.9714,-2.9741,-2.9606,-2.9714,-2.9774,-2.9789,-2.9939,0.0,0.0,-2.951,-2.8976,-2.7888,-2.9134,-2.8963,-2.8094,-2.8607,-2.8801,-2.8801,0.0,0.0,0.0,0.0,0.0,0.0,-0.4407,-0.4396,-0.4248,-0.3834,-0.403,-0.4183,-0.414,-0.369,-0.3364,0.0,0.0,0.0,0.0,0.0,0.0,0.0,0.0,0.0,0.0,0.0,0.0,0.0,0.0,0.0,0.0,0.0,0.0,0.0,0.0,0.0,0.0,-0.5941,0.0,0.0,0.0,0.0,0.0,0.0,0.0,0.0,0.0,0.0,0.0,0.0,0.0,-1.1419,-1.3452,-1.7152,-2.0901,-2.1847,0.0,0.0,-2.4852,-2.4773,-2.4186,-2.1708,-1.9356,-1.7142,-1.5132,0.0,0.0,-1.071,-1.0169,-1.0135,-1.111,-1.1804,-1.2535,0.0,0.0,-1.508,0.0,0.0,0.0,0.0,0.0,0.0,0.0,0.0,0.0,0.0,0.0,0.0,-3.0396,-2.9963,-3.0193,-3.1286,-3.0866,-3.0567,-3.0507,-3.1092,-3.0806,-2.9621,-3.0148,-3.0118,-2.9636,-3.0163,-3.0417,-3.0447,-3.1062,0.0,0.0,-3.0121,-2.9594,-2.8419,-2.9287,-2.9532,-2.9427,-2.9502,-2.9517,-2.9517,0.0,0.0,0.0,0.0,0.0,0.0,-0.4095,-0.3857,-0.3729,-0.3842,-0.4168,-0.4379,-0.4379,-0.3908,-0.3617,-0.3692,-0.3867,0.0,0.0,0.0,0.0,0.0,0.0,0.0,0.0,0.0,0.0,0.0,0.0,0.0,0.0,0.0,0.0,0.0,0.0,0.0,0.0,0.0,0.0,0.0,0.0,0.0,0.0,0.0,0.0,0.0,0.0,0.0,0.0,0.0,0.0,0.0,-0.9962,-1.2617,0.0,0.0,-2.0719,-2.3243,-2.2928,-2.3736,-2.4128,-2.204,-1.9765,-1.7399,-1.4895,0.0,-1.0896,-1.0331,-0.9792,-0.9629,-1.0367,-1.0729,-1.1374,-1.2843,0.0,0.0,0.0,0.0,0.0,0.0,0.0,0.0,0.0,0.0,0.0,0.0,0.0,0.0,-3.1062,-3.0853,-3.0806,-3.0883,-3.1017,-3.1092,-3.1092,-3.1376,-3.1241,-3.0761,-3.0972,-3.0972,-3.0761,-3.0972,-3.1092,-3.1122,-3.1391,0.0,0.0,-3.0678,-3.0086,-2.868,-3.0157,-3.0283,-2.9651,-2.9998,-3.0133,-3.0018,0.0,0.0,0.0,0.0,0.0,-0.4217,-0.4097,-0.3691,-0.347,-0.3669,-0.3945,-0.4138,-0.4191,-0.3673,-0.3535,-0.4088,-0.4329,0.0,0.0,0.0,0.0,0.0,0.0,0.0,0.0,0.0,-0.5755,-0.6257,-0.6392,0.0,0.0,0.0,0.0,0.0,0.0,0.0,0.0,0.0,0.0,0.0,0.0,0.0,0.0,0.0,0.0,0.0,0.0,0.0,0.0,0.0,0.0,0.0,0.0,0.0,0.0,0.0,-1.7893,-2.1011,-2.0945,-2.243,-2.3599,-2.1763,-1.9658,-1.7305,0.0,0.0,-1.0668,-1.0031,-0.9604,-0.9453,-0.983,-0.9983,-1.0599,-1.2293,0.0,-1.3748,0.0,0.0,0.0,0.0,0.0,0.0,0.0,0.0,0.0,0.0,0.0,0.0,0.0,-3.1511,-3.1286,-3.0821,-3.1256,-3.1511,-3.1511,-3.1511,-3.1511,-3.1511,-3.1511,-3.1301,-3.0943,-3.1331,-3.1286,-3.0957,0.0,0.0,0.0,-3.0751,-3.0263,-2.8996,-3.0559,-3.0635,-2.9872,-3.0273,-3.0188,-2.9666,0.0,0.0,0.0,0.0,0.0,-0.4962,-0.4552,-0.4156,-0.3735,-0.3272,-0.3208,-0.3289,-0.3491,-0.285,-0.3028,-0.4562,-0.4456,0.0,0.0,0.0,0.0,0.0,0.0,0.0,0.0,0.0,-0.6022,-0.7085,-0.7085,-0.7496,-0.8275,-0.7876,0.0,0.0,0.0,0.0,0.0,0.0,0.0,0.0,0.0,0.0,0.0,0.0,0.0,0.0,0.0,0.0,0.0,0.0,0.0,0.0,0.0,-0.854,-0.9939,-1.2027,-1.545,-1.8609,-1.894,-2.0816,-2.2265,-2.0378,-1.8516,-1.6572,0.0,0.0,-1.0951,-1.0071,-0.9893,-0.9893,-0.9905,-1.0173,-1.0754,-1.183,-1.2733,0.0,0.0,0.0,0.0,0.0,0.0,0.0,0.0,0.0,0.0,0.0,0.0,0.0,0.0,-3.1511,-3.1511,-3.1496,-3.1511,-3.1511,-3.1511,-3.1511,-3.1511,-3.1511,-3.1511,-3.0823,-2.9666,-3.0913,-3.0821,0.0,0.0,0.0,0.0,-3.0196,-3.0068,-2.9479,-3.0225,-3.0424,-3.0284,-3.0284,-2.9416,-2.8144,0.0,0.0,0.0,0.0,0.0,0.0,-0.4595,-0.4166,-0.3941,-0.4074,-0.3848,-0.377,-0.4013,-0.3387,-0.3339,-0.4342,-0.4346,0.0,0.0,0.0,0.0,0.0,0.0,0.0,0.0,-0.6068,-0.617,-0.6278,-0.6413,-0.6689,-0.7056,-0.694,-0.694,-0.7056,0.0,0.0,0.0,0.0,0.0,0.0,0.0,0.0,0.0,0.0,0.0,0.0,0.0,0.0,0.0,0.0,0.0,0.0,0.0,0.0,0.0,-0.9709,-1.2374,-1.5231,-1.5946,-1.7436,-1.8555,-1.7554,-1.6507,-1.5232,-1.3276,0.0,-1.1018,-1.0378,-1.0059,-0.9905,-0.9905,-1.0173,-1.0869,-1.2321,-1.2964,0.0,0.0,0.0,0.0,0.0,0.0,0.0,0.0,0.0,0.0,0.0,0.0,0.0,0.0,-3.1511,-3.1511,-3.1511,-3.1511,-3.1511,-3.1511,-3.1511,-3.1511,-3.1511,-3.1511,-3.0823,-2.9651,-3.0913,0.0,0.0,0.0,0.0,0.0,-3.0408,-3.0352,-3.0213,-3.0902,-3.0837,-3.0299,-3.0299,-2.9638,-2.8661,0.0,0.0,0.0,0.0,0.0,0.0,-0.4742,-0.4327,-0.4136,-0.419,-0.3825,-0.3609,-0.3715,-0.323,-0.3194,-0.3936,-0.4255,0.0,0.0,0.0,0.0,0.0,0.0,0.0,-0.593,-0.6019,-0.6107,-0.62,-0.6168,-0.6409,-0.6879,-0.6749,-0.6848,-0.7136,-0.7114,-0.6911,0.0,0.0,0.0,0.0,0.0,0.0,-0.6025,0.0,0.0,0.0,0.0,0.0,0.0,0.0,0.0,0.0,0.0,0.0,0.0,0.0,-1.0336,-1.2134,-1.3489,-1.4792,-1.5777,-1.5694,-1.4946,-1.3906,0.0,0.0,-1.1112,-1.0686,-1.0638,-1.057,-1.0161,-1.0689,-1.1385,-1.1998,-1.3292,0.0,0.0,0.0,0.0,0.0,0.0,0.0,0.0,0.0,0.0,0.0,0.0,0.0,0.0,-3.1361,-3.1511,-3.1511,-3.1219,-3.0896,-3.0554,-3.0866,-3.0866,-3.0554,-3.119,-3.0666,-2.9169,-3.0516,0.0,0.0,0.0,0.0,0.0,-3.0253,-3.0447,-3.0854,-3.0717,-3.0306,-2.9766,-2.9442,-2.8629,-2.7683,0.0,0.0,0.0,0.0,0.0,0.0,0.0,-0.4594,-0.4324,-0.3787,-0.3306,-0.2953,-0.2809,-0.2555,-0.2677,-0.3374,-0.4086,0.0,0.0,0.0,0.0,0.0,0.0,0.0,-0.5586,-0.5579,-0.5903,-0.6581,-0.6253,-0.6526,-0.7327,-0.7063,-0.7346,-0.8056,-0.7563,-0.7312,-0.7203,-0.6574,-0.6269,-0.621,-0.6308,-0.6337,0.0,0.0,0.0,0.0,0.0,0.0,0.0,0.0,0.0,0.0,0.0,0.0,0.0,0.0,0.0,0.0,0.0,-1.2824,-1.3721,-1.4472,-1.3661,-1.26,-1.24,0.0,0.0,-1.0926,-1.1429,-1.1588,-1.0559,-1.1549,-1.2211,-1.1257,0.0,0.0,0.0,0.0,0.0,0.0,0.0,0.0,0.0,0.0,0.0,0.0,0.0,0.0,0.0,-3.1077,-3.1347,-3.1334,-3.0541,-2.9801,-2.9097,-2.9827,-2.974,-2.8896,-3.06,-3.0263,-2.8239,-2.9786,0.0,0.0,0.0,0.0,0.0,-2.9819,-3.0298,-3.1215,-2.9842,-2.9155,-2.8838,-2.8005,-2.6847,-2.5649,0.0,0.0,0.0,0.0,0.0,0.0,0.0,0.0,0.0,0.0,-0.3449,-0.3018,-0.2683,-0.2503,-0.2512,0.0,0.0,0.0,0.0,0.0,0.0,0.0,0.0,0.0,-0.6478,-0.635,-0.5962,-0.5326,-0.5899,-0.6002,-0.5674,-0.6159,-0.6542,-0.6823,-0.6907,-0.6848,-0.6725,-0.7158,-0.6904,-0.6287,-0.7375,-0.769,0.0,0.0,0.0,0.0,-0.7613,-0.7637,0.0,0.0,0.0,0.0,0.0,0.0,0.0,0.0,-0.8476,-0.8347,-1.0132,0.0,-1.1038,-1.1272,-1.1293,-1.1196,0.0,-1.0959,0.0,0.0,0.0,-1.0819,-1.0215,-1.153,-1.281,0.0,0.0,0.0,0.0,0.0,0.0,0.0,0.0,0.0,0.0,0.0,0.0,0.0,0.0,0.0,0.0,-3.0492,-2.9987,-2.9813,-2.8997,-2.8996,-2.9981,-2.9535,-2.8781,-2.7714,-2.966,-2.9334,-2.7079,-2.9428,0.0,0.0,0.0,0.0,-2.9789,-2.9666,-2.9786,-3.0018,-2.9508,-2.8856,-2.8181,-2.7826,-2.7105,-2.6388,0.0,0.0,0.0,0.0,0.0,0.0,0.0,0.0,0.0,0.0,-0.3361,-0.2936,-0.2463,-0.2347,-0.238,0.0,0.0,0.0,0.0,0.0,0.0,0.0,0.0,-0.5783,-0.6333,-0.6064,-0.5708,-0.5316,-0.5379,-0.5312,-0.5108,-0.5512,-0.5853,-0.6135,-0.6273,-0.6355,-0.6403,-0.6986,-0.6998,-0.6715,-0.7841,0.0,0.0,0.0,0.0,0.0,-0.8177,-0.8272,0.0,-0.8669,-0.8308,-0.7874,0.0,0.0,0.0,0.0,-0.8504,-0.8215,-0.9121,-0.9451,-0.9671,-1.0215,-1.0569,-1.0784,-1.0683,0.0,0.0,0.0,0.0,-1.0834,-1.0561,-1.156,0.0,0.0,0.0,0.0,0.0,0.0,0.0,0.0,0.0,0.0,0.0,0.0,0.0,0.0,0.0,0.0,0.0,-2.9505,-2.9144,-2.8421,-2.7887,-2.7967,-2.8654,-2.847,-2.7763,-2.6552,-2.879,-2.8813,-2.6946,-2.879,-2.925,0.0,0.0,0.0,-2.9104,-2.8779,-2.879,-2.8959,-2.8161,-2.7704,-2.7431,-2.6929,-2.6641,-2.6555,0.0,0.0,0.0,0.0,0.0,0.0,0.0,0.0,0.0,0.0,0.0,0.0,0.0,0.0,0.0,0.0,0.0,0.0,0.0,0.0,0.0,0.0,-0.499,-0.5318,-0.5733,-0.5383,-0.5319,-0.5544,-0.494,-0.4773,-0.502,-0.5107,-0.5392,-0.5803,-0.5861,-0.6023,-0.6252,-0.6737,-0.701,-0.7214,-0.8219,0.0,0.0,0.0,0.0,0.0,0.0,0.0,0.0,-0.8755,-0.8142,-0.7545,-0.7943,0.0,0.0,0.0,0.0,0.0,-0.8591,-0.8873,-0.9342,-1.0221,-1.0638,-1.0841,-1.1004,0.0,0.0,0.0,0.0,0.0,0.0,0.0,0.0,0.0,0.0,0.0,0.0,0.0,0.0,0.0,0.0,0.0,0.0,0.0,0.0,0.0,0.0,0.0,0.0,-2.8498,-2.8584,-2.7364,-2.7247,-2.7021,-2.6625,-2.7248,-2.6855,-2.5519,-2.7834,-2.8268,-2.7061,-2.8099,-2.8568,-2.8512,0.0,0.0,-2.839,-2.7636,-2.7636,-2.7981,-2.6508,-2.6294,-2.6638,-2.579,-2.59,-2.6499,0.0,0.0,0.0,0.0,0.0,0.0,0.0,0.0,0.0,0.0,0.0,0.0,0.0,0.0,0.0,0.0,0.0,0.0,0.0,0.0,0.0,-0.4451,-0.472,-0.5045,-0.5457,-0.5294,-0.4924,-0.4356,-0.5025,-0.5085,-0.4609,-0.5176,-0.5573,-0.5823,-0.6152,-0.6332,-0.6445,-0.7517,-0.7701,-0.744,-0.9321,0.0,0.0,0.0,0.0,0.0,0.0,0.0,0.0,-1.0746,-1.0072,-0.9162,-0.9274,0.0,0.0,0.0,0.0,0.0,-0.901,-0.9696,-1.0175,-1.0232,-1.0527,-1.0852,-1.1121,0.0,0.0,0.0,0.0,0.0,0.0,0.0,0.0,0.0,0.0,0.0,0.0,0.0,0.0,0.0,0.0,0.0,0.0,0.0,0.0,0.0,0.0,0.0,0.0,-2.7988,-2.7759,-2.7479,-2.7353,-2.6976,-2.628,-2.6649,-2.6194,-2.4946,-2.6514,-2.6908,-2.6333,-2.7782,-2.8392,-2.8351,0.0,-2.8076,-2.7693,-2.69,-2.6651,-2.6707,-2.5662,-2.5594,-2.5957,-2.5198,-2.5586,-2.6499,0.0,0.0,0.0,0.0,0.0,0.0,0.0,0.0,0.0,0.0,0.0,0.0,0.0,0.0,0.0,0.0,0.0,0.0,0.0,0.0,-0.4059,-0.4181,-0.4447,-0.492,-0.5655,-0.5224,-0.4868,-0.4641,-0.485,-0.4803,-0.4512,-0.5044,-0.5333,-0.5429,-0.5624,-0.5777,-0.5979,-0.6969,-0.7485,-0.7747,0.0,0.0,0.0,0.0,0.0,0.0,0.0,0.0,0.0,0.0,-1.026,-0.9485,-0.9367,0.0,0.0,0.0,0.0,0.0,-0.8531,-0.929,-0.9995,-1.0336,-1.0879,-1.1574,-1.2465,-1.1622,0.0,0.0,0.0,0.0,0.0,0.0,0.0,0.0,0.0,0.0,0.0,0.0,0.0,0.0,0.0,0.0,0.0,0.0,0.0,0.0,0.0,0.0,0.0,0.0,-2.7173,-2.6383,-2.6697,-2.6469,-2.5612,-2.6432,-2.6025,-2.4381,-2.5434,-2.581,-2.5593,-2.6821,-2.7311,-2.7186,0.0,-2.7377,-2.6377,-2.5994,-2.5646,-2.5258,-2.4831,-2.4745,-2.4897,-2.5138,-2.5762,-2.6499,0.0,0.0,0.0,0.0,0.0,0.0,0.0,0.0,0.0,0.0,0.0,0.0,0.0,0.0,0.0,0.0,0.0,0.0,0.0,-0.4173,-0.4324,-0.4193,-0.45,-0.4994,-0.5683,-0.5172,-0.4948,-0.5049,-0.4707,-0.4544,-0.4554,-0.4922,-0.5127,-0.5195,-0.5195,-0.539,-0.5787,-0.6494,-0.7279,-0.8105,0.0,0.0,0.0,0.0,0.0,0.0,0.0,0.0,0.0,0.0,0.0,0.0,0.0,0.0,0.0,-0.8635,-0.8513,-0.8244,-0.8368,-0.9097,-0.997,-1.0615,-1.129,-1.215,-1.3434,-1.2279,0.0,0.0,0.0,0.0,0.0,0.0,0.0,0.0,0.0,0.0,0.0,0.0,0.0,0.0,0.0,0.0,0.0,0.0,0.0,0.0,0.0,0.0,0.0,0.0,-2.6946,-2.5687,-2.6363,-2.6335,-2.5426,-2.6226,-2.5782,-2.4192,-2.4777,-2.504,-2.5075,-2.5853,-2.6106,-2.598,-2.6737,-2.641,-2.537,-2.5007,-2.4652,-2.4292,-2.4089,-2.4022,-2.413,-2.5197,-2.5908,-2.6311,0.0,0.0,0.0,0.0,0.0,0.0,0.0,0.0,0.0,0.0,0.0,0.0,0.0,0.0,0.0,0.0,0.0,0.0,0.0,-0.5264,-0.5262,-0.4768,-0.524,-0.5373,-0.507,-0.5136,-0.5088,-0.4912,-0.476,-0.469,-0.4691,-0.4969,-0.5233,-0.5473,-0.5473,-0.5829,-0.6451,-0.6893,-0.7608,-0.8525,-0.9275,0.0,0.0,0.0,0.0,0.0,0.0,0.0,0.0,0.0,0.0,0.0,0.0,0.0,-0.8651,-0.9185,-0.9403,-0.9446,-0.9341,-1.0039,-1.088,-1.1167,-1.1538,-1.2055,-1.3036,-1.2694,0.0,-1.38,0.0,0.0,0.0,0.0,0.0,0.0,0.0,0.0,0.0,0.0,0.0,0.0,0.0,0.0,0.0,0.0,0.0,0.0,0.0,0.0,0.0,0.0,0.0,-2.6457,-2.7137,-2.7167,-2.6408,-2.5812,-2.5279,-2.4725,-2.4789,-2.4822,-2.4829,-2.5153,-2.5262,-2.518,-2.5338,-2.5382,-2.5287,-2.3872,-2.3679,-2.4234,-2.3484,-2.352,-2.413,-2.5197,-2.5624,-2.5737,0.0,0.0,0.0,0.0,0.0,0.0,0.0,0.0,0.0,0.0,0.0,0.0,0.0,0.0,0.0,0.0,0.0,0.0,0.0,-0.5715,-0.584,-0.5682,-0.5664,-0.5834,-0.6176,-0.5333,-0.4584,-0.396,-0.4334,-0.4509,-0.4531,-0.526,-0.565,-0.5754,-0.5754,-0.5964,-0.6317,-0.6479,-0.7257,-0.8395,-0.8689,-0.9233,0.0,0.0,0.0,0.0,0.0,0.0,0.0,0.0,-1.029,-0.971,-1.0368,-0.9609,-0.8655,-0.9514,-0.9394,-0.8899,-0.851,-0.9357,-1.0445,-1.0926,-1.1437,0.0,0.0,-1.4891,-1.4573,-1.7145,-1.6095,0.0,0.0,0.0,0.0,0.0,0.0,0.0,0.0,0.0,0.0,0.0,0.0,0.0,0.0,0.0,0.0,0.0,0.0,0.0,0.0,0.0,0.0,-2.6558,-2.6822,-2.6815,-2.651,-2.6106,-2.5432,-2.4486,-2.3981,-2.3923,-2.4324,-2.4528,-2.4553,-2.4436,-2.5076,-2.4811,-2.3959,-2.3884,-2.4031,-2.4263,-2.3972,-2.4472,-2.5362,-2.5173,-2.5322,-2.5686,0.0,0.0,0.0,0.0,0.0,0.0,0.0,0.0,0.0,0.0,0.0,0.0,0.0,0.0,0.0,0.0,0.0,0.0,-0.6246,-0.6686,-0.6844,-0.6615,-0.6655,-0.6671,-0.6652,-0.5776,-0.4977,-0.4253,-0.4555,-0.4721,-0.4733,-0.5535,-0.5936,-0.5988,-0.5988,-0.6079,-0.6198,-0.6198,-0.6885,-0.799,-0.799,-0.8621,0.0,0.0,0.0,0.0,0.0,0.0,0.0,0.0,-0.9933,-0.9483,-1.0091,-0.9628,-0.8945,-0.9303,-0.9366,-0.9196,-0.8628,-0.9419,-1.0607,0.0,0.0,0.0,-1.737,-1.6832,-1.6231,-1.9056,-1.7918,0.0,0.0,0.0,0.0,0.0,0.0,0.0,0.0,0.0,0.0,0.0,0.0,0.0,0.0,0.0,0.0,0.0,0.0,0.0,0.0,0.0,0.0,0.0,-2.6587,-2.6678,-2.6852,-2.6259,-2.5391,-2.4357,-2.35,-2.3308,-2.3715,-2.3871,-2.385,-2.3764,-2.4392,-2.4076,-2.3125,-2.3679,-2.3914,-2.3943,-2.4205,-2.4901,-2.5678,-2.5039,-2.5272,-2.5925,0.0,0.0,0.0,0.0,0.0,0.0,0.0,0.0,-0.7564,-0.7148,-0.6689,0.0,0.0,0.0,0.0,0.0,0.0,0.0,-0.7569,-0.8349,-0.8406,-0.7554,-0.8342,-0.7971,-0.6165,-0.6514,-0.6504,-0.6084,-0.5624,-0.5391,-0.5407,-0.5745,-0.6007,-0.6198,-0.621,-0.621,-0.6198,-0.621,-0.6629,-0.7292,-0.7292,-0.7896,-0.8792,0.0,0.0,0.0,0.0,0.0,0.0,0.0,-0.9286,-0.9159,-0.8366,-0.8918,-0.9642,-0.8465,-0.9429,-1.0733,-1.0065,-1.0576,0.0,0.0,0.0,0.0,-1.86,-1.8164,-1.7245,-1.8787,0.0,0.0,0.0,0.0,0.0,0.0,0.0,0.0,0.0,0.0,0.0,0.0,0.0,0.0,0.0,0.0,0.0,0.0,0.0,0.0,0.0,0.0,0.0,0.0,-2.6572,-2.6911,-2.757,-2.6106,-2.5094,-2.4471,-2.3544,-2.3095,-2.3095,-2.3108,-2.3108,-2.3108,-2.3108,-2.3108,-2.3108,-2.3108,-2.3108,-2.3185,-2.4002,-2.4507,-2.4808,-2.4775,-2.5498,-2.6474,0.0,0.0,0.0,0.0,0.0,0.0,0.0,0.0,-0.7447,-0.6696,-0.6482,0.0,0.0,0.0,0.0,0.0,0.0,0.0,-0.7312,-0.7894,-0.823,-0.8204,-0.8459,-0.8465,-0.8219,-0.7543,-0.6539,-0.5185,-0.514,-0.5219,-0.5415,-0.589,-0.607,-0.6032,-0.6973,-0.6871,-0.6055,-0.6995,-0.709,-0.6619,-0.6801,-0.737,-0.8121,0.0,0.0,0.0,0.0,0.0,0.0,0.0,0.0,0.0,-0.904,-0.8718,-0.8398,-0.9316,-0.9263,-0.9045,-0.9556,-1.0164,0.0,0.0,0.0,0.0,0.0,-1.6518,0.0,0.0,0.0,0.0,0.0,0.0,0.0,0.0,0.0,0.0,0.0,0.0,0.0,0.0,0.0,0.0,0.0,0.0,0.0,0.0,0.0,0.0,0.0,0.0,0.0,0.0,-2.5187,-2.5525,-2.6183,-2.4827,-2.4031,-2.3851,-2.2572,-2.2184,-2.2543,-2.2932,-2.3108,-2.3108,-2.3108,-2.3108,-2.3125,-2.3708,-2.3696,-2.3386,-2.4034,-2.4357,-2.4425,-2.4298,-2.4695,-2.531,0.0,0.0,0.0,0.0,0.0,0.0,0.0,0.0,-0.7389,-0.6868,-0.6584,-0.6302,0.0,0.0,0.0,0.0,0.0,0.0,-0.7246,-0.8062,-0.861,-0.8742,-0.8948,-0.8924,-0.8625,-0.7137,-0.5994,-0.5242,-0.54,-0.5558,-0.5729,-0.5963,-0.6016,-0.5933,-0.675,-0.6601,-0.5787,-0.6487,-0.6457,-0.5947,-0.6,-0.6393,-0.6979,0.0,0.0,0.0,0.0,0.0,0.0,0.0,0.0,0.0,-0.8616,-0.8502,-0.8366,-0.8684,-0.8998,-0.937,-0.9901,0.0,0.0,0.0,0.0,0.0,0.0,0.0,0.0,0.0,0.0,0.0,0.0,0.0,0.0,0.0,0.0,0.0,0.0,0.0,0.0,0.0,0.0,0.0,0.0,0.0,0.0,0.0,0.0,0.0,0.0,0.0,0.0,0.0,-2.4605,-2.4918,-2.56,-2.4273,-2.3478,-2.323,-2.2068,-2.1543,-2.1681,-2.2431,-2.2895,-2.3095,-2.2869,-2.2895,-2.313,-2.3464,-2.3476,-2.3324,-2.3769,-2.4053,-2.4167,-2.4052,-2.4481,-2.5096,0.0,0.0,-0.6572,-0.6572,0.0,0.0,0.0,0.0,-0.7385,-0.7387,-0.6875,-0.6494,0.0,0.0,0.0,-0.6181,-0.6848,-0.7271,-0.7282,-0.8554,-0.9225,-0.9054,-0.9567,-0.9206,-0.7818,-0.5982,-0.5292,-0.5832,-0.5969,-0.6071,-0.6139,-0.5954,-0.5865,-0.5865,-0.5992,-0.584,-0.5492,-0.5371,-0.5329,-0.532,-0.5076,-0.5208,-0.5625,-0.6348,0.0,0.0,0.0,0.0,0.0,0.0,0.0,0.0,-0.7435,-0.8151,-0.8917,-0.7192,-0.8618,-1.0743,-1.0754,0.0,0.0,0.0,0.0,0.0,0.0,0.0,0.0,0.0,0.0,0.0,0.0,0.0,0.0,0.0,0.0,0.0,0.0,0.0,0.0,0.0,0.0,0.0,0.0,0.0,0.0,0.0,0.0,0.0,0.0,0.0,0.0,-2.4485,-2.4515,-2.4776,-2.5327,-2.4078,-2.3108,-2.2531,-2.173,-2.1131,-2.0729,-2.1757,-2.2481,-2.2932,-2.2447,-2.2498,-2.2854,-2.2617,-2.2685,-2.2967,-2.3225,-2.3544,-2.3916,-2.3916,-2.4569,-2.5372,0.0,0.0,-0.7125,-0.7125,0.0,0.0,0.0,0.0,0.0,-0.7318,0.0,0.0,0.0,0.0,0.0,-0.619,-0.6677,-0.703,-0.7142,-0.811,-0.8667,-0.8633,-0.9187,-0.8704,-0.7001,-0.6832,-0.6304,-0.5348,-0.4968,-0.5088,-0.5652,-0.5605,-0.5587,-0.5638,-0.6689,-0.6537,-0.5563,-0.6563,-0.6159,-0.4851,-0.479,-0.4913,-0.5203,-0.5889,-0.6375,0.0,0.0,0.0,0.0,0.0,0.0,0.0,-0.6856,-0.696,-0.7377,-0.7326,-0.8025,-0.9141,0.0,-1.1024,0.0,0.0,0.0,0.0,0.0,0.0,0.0,0.0,0.0,0.0,0.0,0.0,0.0,0.0,0.0,0.0,0.0,0.0,0.0,0.0,0.0,0.0,0.0,0.0,0.0,0.0,0.0,0.0,0.0,0.0,0.0,-2.3819,-2.3819,-2.3659,-2.3319,-2.2531,-2.1814,0.0,-2.0515,-2.0338,-2.0717,-2.1355,-2.1732,-2.1832,-2.1719,-2.1493,-2.1232,-2.1587,-2.1787,-2.1898,-2.2356,-2.2858,-2.3296,-2.3296,-2.3753,-2.4255,0.0,0.0,0.0,0.0,0.0,0.0,0.0,0.0,0.0,0.0,0.0,0.0,0.0,-0.6388,0.0,0.0,-0.6457,-0.6601,-0.6353,-0.7428,-0.833,-0.8916,-0.8578,-0.798,-0.7099,-0.6479,-0.5888,-0.5337,-0.4874,-0.4997,-0.5689,-0.5559,-0.5568,-0.572,-0.6419,-0.6275,-0.5543,-0.6249,-0.5827,-0.4706,-0.4845,-0.4802,-0.4753,-0.5554,-0.5946,-0.6117,-0.6382,0.0,0.0,0.0,0.0,0.0,0.0,0.0,-0.6894,-0.6619,-0.7464,-0.8803,0.0,0.0,0.0,0.0,0.0,0.0,0.0,0.0,0.0,0.0,0.0,0.0,0.0,0.0,0.0,0.0,0.0,0.0,0.0,0.0,0.0,0.0,0.0,0.0,0.0,0.0,0.0,0.0,0.0,0.0,0.0,-2.2853,-2.2834,-2.3165,-2.2868,-2.2538,-2.2216,-2.134,-2.0869,-2.0795,-1.9876,-1.9723,-2.0302,-2.1104,-2.1493,-2.1509,-2.1232,-2.1106,-2.1069,-2.0817,-2.1154,-2.1882,-2.1907,-2.2393,-2.3108,-2.3108,-2.3471,-2.3916,0.0,0.0,0.0,0.0,0.0,0.0,0.0,0.0,0.0,0.0,0.0,0.0,0.0,-0.6737,-0.6587,0.0,0.0,0.0,-0.5803,-0.6917,-0.8047,-0.9043,-0.805,-0.7423,-0.7303,-0.589,-0.5258,-0.5502,-0.5134,-0.5424,-0.6345,-0.608,-0.608,-0.6298,-0.6383,-0.6151,-0.5687,-0.5694,-0.5384,-0.4932,-0.5136,-0.4933,-0.4601,-0.5481,-0.5665,-0.5515,-0.6005,-0.6277,-0.6389,-0.6275,0.0,0.0,0.0,0.0,-0.6927,-0.6065,-0.7176,-0.8899,0.0,0.0,0.0,0.0,0.0,0.0,0.0,0.0,0.0,0.0,0.0,0.0,0.0,0.0,0.0,0.0,0.0,0.0,0.0,0.0,0.0,0.0,0.0,0.0,0.0,0.0,0.0,0.0,0.0,0.0,-2.234,-2.1872,-2.1765,-2.2237,-2.1708,-2.1369,-2.1252,-2.0405,-2.0136,-2.0334,-1.9431,-1.9171,-1.956,-2.0589,-2.1117,-2.1167,-2.0742,-2.0805,-2.1129,-2.0188,-2.0677,-2.1983,-2.1559,-2.202,-2.2957,-2.2957,-2.3271,-2.3622,0.0,0.0,0.0,0.0,0.0,0.0,0.0,0.0,0.0,0.0,-0.7516,-0.6787,-0.7244,-0.7294,-0.7251,-0.7125,-0.717,-0.709,-0.6807,0.0,0.0,-0.7828,-0.8053,-0.766,-0.6573,-0.6264,-0.5904,-0.5502,-0.5274,-0.6179,-0.8147,-0.7939,-0.7868,-0.7914,-0.8315,-0.7735,-0.6454,-0.6454,-0.6174,-0.5732,-0.5716,-0.5559,-0.5416,-0.6052,-0.6034,-0.5848,-0.7215,-0.7143,-0.6563,-0.7609,-0.7542,0.0,0.0,0.0,-0.7088,-0.7073,-0.7631,-0.8592,0.0,0.0,0.0,0.0,0.0,0.0,0.0,0.0,0.0,0.0,0.0,0.0,0.0,0.0,0.0,0.0,0.0,0.0,0.0,0.0,0.0,0.0,0.0,0.0,0.0,0.0,0.0,0.0,0.0,0.0,-2.1189,-2.1056,-2.0833,-2.0454,-2.0367,-2.0031,-1.9457,-1.9794,-1.9504,-1.8537,-1.8856,-1.8795,-1.8442,-1.9045,-1.9597,-2.0024,-1.9949,-1.9962,-2.0012,-1.9861,-2.0225,-2.0905,-2.083,-2.1443,-2.2422,-2.2422,-2.2472,-2.2468,0.0,0.0,0.0,0.0,0.0,0.0,0.0,0.0,0.0,0.0,0.0,-0.7266,-0.7839,-0.771,-0.7495,-0.7315,-0.713,-0.6919,-0.6681,-0.6827,-0.7138,-0.7577,-0.74,-0.7226,-0.707,-0.6161,-0.5803,-0.6058,-0.5859,-0.6967,-0.9294,-0.9817,-0.9793,-0.9357,-0.9927,-0.9033,-0.7145,-0.7783,-0.7284,-0.6094,-0.6439,-0.6379,-0.6153,-0.6941,-0.6904,-0.6561,-0.7622,-0.7576,0.0,0.0,0.0,-0.732,-0.732,0.0,0.0,0.0,0.0,0.0,-1.0689,0.0,0.0,0.0,0.0,0.0,0.0,0.0,0.0,0.0,0.0,0.0,0.0,0.0,0.0,0.0,0.0,0.0,0.0,0.0,0.0,0.0,0.0,0.0,0.0,0.0,0.0,0.0,0.0,-2.0664,-2.0891,-1.9936,-1.9447,-1.9542,-1.9485,-1.9201,-1.8598,-1.8855,-1.8574,-1.7752,-1.8304,-1.8418,-1.8216,-1.8431,-1.8694,-1.8932,-1.9233,-1.9346,-1.9397,-1.9685,-2.015,-2.0691,-2.0691,-2.1182,-2.1845,-2.1845,-2.1845,-2.1768,0.0,0.0,0.0,0.0,0.0,0.0,0.0,0.0,0.0,0.0,0.0,-0.7678,-0.8424,0.0,0.0,0.0,-0.7175,-0.6625,-0.6094,-0.618,-0.6483,-0.7021,-0.6687,-0.6773,-0.7355,-0.5984,-0.5682,-0.6576,-0.6312,-0.7284,-0.9421,-1.0784,-1.1077,-1.0484,-1.109,-1.0238,-0.8405,-0.9026,-0.8329,-0.6892,-0.7783,-0.7659,-0.704,-0.8026,-0.8019,-0.7578,-0.8262,0.0,0.0,0.0,0.0,0.0,0.0,0.0,0.0,0.0,0.0,0.0,0.0,0.0,0.0,0.0,0.0,0.0,0.0,0.0,0.0,0.0,0.0,0.0,0.0,0.0,0.0,0.0,0.0,0.0,0.0,0.0,0.0,0.0,0.0,0.0,0.0,0.0,0.0,0.0,0.0,-1.9653,-2.035,-1.8982,-1.8321,-1.8623,-1.8469,-1.8168,-1.7777,-1.7777,-1.7639,-1.741,-1.7802,-1.7928,-1.7777,-1.7928,-1.7915,-1.7815,-1.8494,-1.887,-1.9033,-1.9421,-1.9936,-2.0478,-2.0478,-2.0817,-2.1307,-2.1307,-2.1307,-2.1209,0.0,0.0,0.0,0.0,0.0,0.0,0.0,0.0,0.0,0.0,0.0,-0.7826,-0.8938,-0.8706,-0.854,-0.8707,-0.7661,-0.6471,-0.5254,-0.5586,-0.5732,-0.5528,-0.6144,0.0,-0.6742,-0.5857,-0.5846,-0.6781,-0.6322,-0.6764,-0.8048,-1.021,-1.1187,-1.117,-1.1579,-1.1379,-1.0664,-0.984,-0.9097,-0.8603,-1.0103,-0.9673,-0.8242,-0.9369,-0.9378,-0.8894,0.0,0.0,0.0,0.0,0.0,0.0,0.0,0.0,-0.8806,0.0,0.0,0.0,0.0,0.0,0.0,0.0,0.0,0.0,0.0,0.0,0.0,0.0,0.0,0.0,0.0,0.0,0.0,0.0,0.0,0.0,0.0,0.0,0.0,0.0,0.0,0.0,0.0,0.0,0.0,0.0,0.0,-2.0133,-1.906,-1.8417,-1.7882,-1.7404,-1.6889,-1.6613,-1.6588,-1.6588,-1.6873,-1.741,-1.7436,-1.7137,-1.66,-1.7174,-1.7124,-1.6651,-1.7765,-1.8519,-1.9008,-1.9033,-1.9346,-1.9849,-1.9849,-2.02,-2.0729,-2.0729,-2.0729,-2.0696,0.0,0.0,0.0,0.0,0.0,0.0,0.0,0.0,0.0,0.0,0.0,0.0,0.0,-0.9289,-0.9103,-0.9172,-0.797,-0.6724,-0.5628,-0.5875,-0.5933,-0.5672,-0.5908,-0.62,-0.6493,-0.57,-0.5642,-0.6419,-0.6249,-0.6828,-0.8126,-0.9483,-1.051,-1.1272,-1.3098,-1.2567,-1.0355,-1.1678,-1.0921,-0.8987,-1.1225,-1.1156,-0.9907,-1.1435,0.0,0.0,0.0,0.0,0.0,0.0,0.0,0.0,0.0,-0.983,-0.9804,-0.9751,0.0,0.0,0.0,0.0,0.0,0.0,0.0,0.0,0.0,0.0,0.0,0.0,0.0,0.0,0.0,0.0,0.0,0.0,0.0,0.0,0.0,0.0,0.0,0.0,0.0,0.0,0.0,0.0,0.0,0.0,0.0,-1.8631,-1.8878,-1.7733,-1.7136,-1.7299,-1.7483,-1.7423,-1.7074,-1.6688,-1.66,-1.6823,-1.6823,-1.6722,-1.65,-1.6713,-1.6688,-1.6525,-1.6926,-1.7451,-1.8028,-1.8719,-1.9108,-1.9309,-1.9673,-1.9924,-2.0112,-2.0112,-2.0112,-2.0032,0.0,0.0,0.0,-0.9541,0.0,-0.8122,-0.8654,-0.8395,-0.8282,-0.8677,0.0,0.0,0.0,0.0,-0.9297,-0.9027,-0.8149,-0.7178,-0.6169,-0.6181,-0.6034,-0.5588,-0.5593,-0.5754,-0.6062,-0.5545,-0.5525,-0.6062,-0.6124,-0.6521,-0.722,-0.8549,-0.9499,-1.0199,-1.2675,-1.2762,-1.1118,-1.2854,-1.2332,-1.05,0.0,0.0,-1.1794,0.0,0.0,0.0,0.0,0.0,0.0,0.0,0.0,0.0,0.0,-1.0688,-1.0185,-0.997,-0.9654,0.0,-1.0231,0.0,0.0,0.0,0.0,0.0,0.0,0.0,0.0,0.0,0.0,0.0,0.0,0.0,0.0,0.0,0.0,0.0,0.0,0.0,0.0,0.0,0.0,0.0,0.0,0.0,0.0,0.0,0.0,0.0,-1.9122,-1.7969,-1.738,-1.7551,-1.7779,-1.7739,-1.7383,-1.6784,-1.65,-1.65,-1.65,-1.65,-1.65,-1.65,-1.65,-1.65,-1.65,-1.6848,-1.7473,-1.8367,-1.8845,-1.9058,-1.9597,-1.9798,-1.9798,-1.9798,-1.9798,-1.9721,-0.8319,-0.8578,-0.8926,-0.9343,-0.9397,-0.9438,-0.9577,-0.9612,-0.9612,-0.9612,0.0,0.0,0.0,0.0,0.0,-0.8308,-0.8238,-0.7816,-0.6803,-0.6485,-0.5971,-0.5185,-0.52,-0.5296,-0.5419,-0.5415,-0.5532,-0.5803,-0.5992,-0.5791,-0.5275,-0.7443,-0.8244,-0.7977,-1.0157,-1.1862,-1.3094,-1.3179,-1.3164,-1.3126,0.0,-1.3663,-1.3705,0.0,0.0,0.0,-1.54,-1.5133,0.0,0.0,0.0,0.0,0.0,-1.1254,-0.9919,-0.9919,-0.9918,0.0,0.0,0.0,0.0,0.0,0.0,0.0,0.0,0.0,0.0,0.0,0.0,0.0,0.0,0.0,0.0,0.0,0.0,0.0,0.0,0.0,0.0,0.0,0.0,0.0,0.0,0.0,0.0,0.0,-1.9675,-1.9675,-1.9708,-1.9188,-1.865,-1.8145,-1.7605,-1.7333,-1.7312,-1.6774,-1.6522,-1.65,-1.65,-1.65,-1.65,-1.6522,-1.6522,-1.65,-1.6534,-1.6882,-1.7448,-1.7978,-1.8506,-1.9058,-1.9597,-1.9798,-1.9798,-1.9798,-1.9798,-1.9798,-0.862,-0.8734,-0.9008,-0.9646,-0.9392,-0.9226,-0.9557,-0.9765,-0.9895,0.0,0.0,0.0,-1.0617,-1.0533,-1.0062,-0.9018,-0.9111,-0.8763,-0.7716,-0.7154,-0.6694,-0.6277,-0.6044,-0.5933,-0.5987,-0.5788,-0.5721,-0.5803,-0.5895,-0.5943,-0.5936,-0.6905,-0.7357,-0.7461,-0.8896,-0.9909,-1.067,-1.2743,0.0,-1.1078,-1.4969,-1.4655,0.0,0.0,0.0,0.0,0.0,-1.5472,-1.4877,0.0,-1.4763,-1.3426,0.0,0.0,0.0,-1.0335,0.0,0.0,-0.997,0.0,0.0,0.0,0.0,0.0,0.0,-1.1324,0.0,0.0,0.0,0.0,0.0,0.0,0.0,0.0,0.0,0.0,0.0,0.0,0.0,0.0,0.0,0.0,0.0,0.0,0.0,0.0,-1.8977,-1.8868,-1.966,-1.9188,-1.8836,-1.8669,-1.8165,-1.7686,-1.7312,-1.7146,-1.6879,-1.65,-1.65,-1.65,-1.6522,-1.6888,-1.6879,-1.6547,-1.7372,-1.7612,-1.7448,-1.7978,-1.8506,-1.9058,-1.9597,-1.9798,-1.9798,-1.9798,-1.9798,-1.9798,-0.8761,-0.894,-0.9183,-0.962,-0.9516,-0.9548,-1.0048,-1.0364,-1.058,0.0,0.0,0.0,-1.092,-1.065,-1.0328,-0.994,-1.0048,-0.9728,-0.8733,-0.8229,-0.7743,-0.7223,-0.6902,-0.675,-0.675,-0.653,-0.6292,-0.601,-0.61,-0.6119,-0.6088,-0.6561,-0.6881,-0.7107,-0.7983,-0.8674,-0.9363,-1.1714,0.0,0.0,-1.5128,0.0,0.0,-1.679,-1.6523,0.0,0.0,0.0,-1.6404,-1.7165,-1.6085,0.0,0.0,0.0,0.0,0.0,0.0,0.0,0.0,0.0,0.0,0.0,0.0,0.0,-1.013,-1.078,-1.1549,0.0,0.0,0.0,0.0,0.0,0.0,0.0,0.0,0.0,0.0,0.0,0.0,0.0,0.0,0.0,0.0,0.0,0.0,-1.9678,-1.912,-1.9043,-1.9675,-1.9406,-1.9225,-1.9225,-1.8708,-1.8283,-1.7967,-1.7524,-1.7126,-1.6837,-1.6616,-1.65,-1.6522,-1.6816,-1.6795,-1.6547,-1.7465,-1.7805,-1.7765,-1.8317,-1.8719,-1.9058,-1.9597,-1.9798,-1.9798,-1.9798,-1.9798,-1.9798,0.0,-0.9195,-0.9461,-0.9461,-0.9764,-1.0211,-1.0813,-1.1179,-1.1457,0.0,-1.1599,-1.1353,-1.0849,-1.0356,-1.0297,-1.0859,-1.0959,-1.0662,-0.9889,-0.9495,-0.895,-0.8174,-0.7872,-0.7714,-0.7668,-0.7531,-0.7147,-0.6511,-0.6616,-0.6442,-0.6045,-0.6518,-0.6795,-0.6911,-0.7392,-0.8054,-0.892,0.0,0.0,-1.4541,-1.4662,-1.6119,0.0,0.0,-1.7456,0.0,-1.9213,-1.8965,-1.8128,-1.9135,-1.7729,0.0,0.0,0.0,0.0,0.0,-1.1256,0.0,0.0,0.0,0.0,0.0,0.0,0.0,-1.0204,-1.0231,-1.0528,0.0,0.0,0.0,0.0,0.0,0.0,0.0,0.0,0.0,0.0,0.0,0.0,0.0,0.0,0.0,0.0,-1.8777,-1.9061,-1.9663,-1.9708,-1.9708,-1.9708,-1.9708,-1.9708,-1.9708,-1.9244,-1.8968,-1.8893,-1.7947,-1.7442,-1.7394,-1.6909,-1.668,-1.668,-1.6731,-1.6689,-1.6633,-1.7267,-1.7804,-1.8242,-1.877,-1.9045,-1.9133,-1.9623,-1.9798,-1.9798,-1.9798,-1.9798,-1.9798,-0.9276,-0.9568,-0.9802,-0.9802,-1.0298,-1.0753,-1.0873,-1.1546,-1.1831,-1.1281,-1.0893,-1.0519,-1.0135,-1.0746,-1.1133,-1.0982,-1.1332,-1.1472,-1.1296,-1.038,-0.9769,-0.9606,-0.928,-0.8975,-0.8711,-0.8525,-0.8239,-0.7833,-0.7702,-0.7363,-0.6872,-0.7347,-0.7332,-0.6911,-0.7392,-0.8078,-0.8963,0.0,0.0,-1.3166,-1.5582,0.0,-1.5452,-1.8148,-1.744,-1.5454,-1.8584,-1.8644,-1.7304,0.0,-1.7711,-1.6857,0.0,0.0,0.0,0.0,0.0,0.0,0.0,0.0,0.0,0.0,0.0,0.0,-1.0309,-1.0351,-1.0547,0.0,0.0,0.0,0.0,0.0,0.0,0.0,0.0,0.0,0.0,0.0,0.0,0.0,0.0,0.0,0.0,-1.9181,-1.9573,-1.9693,-1.9708,-1.9708,-1.9708,-1.9708,-1.9708,-1.9708,-1.9603,-1.935,-1.8893,-1.8688,-1.838,-1.7947,-1.7847,-1.7787,-1.7807,-1.8243,-1.7967,-1.7206,-1.8173,-1.846,-1.8242,-1.877,-1.9246,-1.966,-1.9761,-1.9798,-1.9798,-1.9798,-1.9798,-1.9798,-0.9646,-0.9578,-0.9503,-0.9503,-0.9916,-1.0219,-1.0118,-1.095,-1.1445,-1.1015,-1.0455,-1.0239,-1.0647,-1.088,-1.1217,-1.1744,-1.1682,-1.1627,-1.1692,-1.0822,-1.0342,-1.0433,-1.0288,-1.0124,-0.9958,-0.955,-0.9212,-0.8944,-0.8682,-0.8352,-0.8,-0.8334,-0.8406,-0.8261,-0.8601,-0.9042,-0.9629,0.0,-1.1712,-1.2659,-1.5617,0.0,-1.5936,-1.8656,-1.8567,-1.7228,-1.9058,-1.9116,-1.8236,-1.7573,-1.7334,0.0,0.0,-1.444,-1.3237,0.0,-1.1751,-1.1262,0.0,0.0,0.0,-1.0398,0.0,0.0,0.0,-1.0173,-1.0351,0.0,0.0,0.0,0.0,0.0,0.0,0.0,0.0,0.0,0.0,0.0,0.0,0.0,0.0,0.0,0.0,-1.8807,-1.9348,-1.9678,-1.9708,-1.9708,-1.9708,-1.9708,-1.9708,-1.9708,-1.9708,-1.9566,-1.9299,-1.9024,-1.8765,-1.8496,-1.8243,-1.8106,-1.8125,-1.838,-1.8066,-1.7338,-1.8187,-1.8271,-1.784,-1.8392,-1.8769,-1.9058,-1.9597,-1.9798,-1.9798,-1.9798,-1.9798,-1.9798,-1.0084,-0.9649,-0.9302,-0.9429,-0.9619,-0.975,-0.9757,-1.0636,-1.1203,-1.0908,-1.0325,-1.0387,-1.1605,-1.1099,-1.1319,-1.2922,-1.2474,-1.1985,-1.1749,-1.1581,-1.1371,-1.1033,-1.1148,-1.1196,-1.1138,-1.0648,-1.0289,-1.0065,-0.9795,-0.9519,-0.9278,-0.9474,-0.9622,-0.9737,-0.9794,-1.0211,0.0,0.0,0.0,-1.313,0.0,-1.6687,-1.6724,-1.888,-1.9486,-1.9236,-1.9558,-1.9708,-1.9411,-1.7574,0.0,-1.6807,-1.6446,-1.4698,0.0,0.0,0.0,0.0,0.0,0.0,0.0,0.0,0.0,-0.9843,0.0,0.0,0.0,0.0,0.0,0.0,0.0,0.0,0.0,0.0,0.0,0.0,0.0,0.0,0.0,0.0,0.0,0.0,0.0,-1.8059,-1.8837,-1.9648,-1.9708,-1.9708,-1.9708,-1.9708,-1.9708,-1.9708,-1.9708,-1.9708,-1.9708,-1.9262,-1.9043,-1.9043,-1.8612,-1.8419,-1.8419,-1.8419,-1.8066,-1.7482,-1.7975,-1.7878,-1.7436,-1.7865,-1.8103,-1.8304,-1.9271,-1.9724,-1.9826,-1.9812,-1.9875,-2.0003,-1.0789,-1.026,-0.999,-1.0584,-1.0479,-1.057,-1.1306,-1.1988,-1.2092,-1.1188,-1.07,-1.0971,-1.2407,-1.1811,0.0,0.0,0.0,0.0,-1.1973,0.0,-1.3769,-1.1524,-1.2065,-1.2275,-1.1974,-1.1908,-1.1697,-1.1382,-1.1355,-1.107,-1.0582,-1.0794,-1.0643,-1.0204,-0.9747,0.0,0.0,0.0,-1.3457,0.0,-1.7127,-1.6587,0.0,-1.8403,-1.8699,-1.7515,-1.9116,-1.9708,-1.9408,0.0,-1.6725,-1.6438,0.0,-1.3226,-1.1951,0.0,0.0,0.0,0.0,0.0,0.0,0.0,-0.9744,0.0,0.0,0.0,0.0,0.0,0.0,0.0,0.0,0.0,0.0,0.0,0.0,0.0,0.0,0.0,0.0,0.0,0.0,0.0,0.0,-1.7116,-1.8326,-1.9603,-1.9708,-1.9708,-1.9708,-1.9708,-1.9708,-1.9708,-1.9708,-1.9708,-1.9708,-1.9639,-1.9603,-1.9603,-1.9548,-1.953,-1.953,-1.953,-1.8968,-1.8007,-1.8075,-1.7847,-1.741,-1.7473,-1.7765,-1.8267,-1.8857,-1.9452,-1.9952,-1.9838,-2.0182,-2.0696,-1.0459,-0.9839,-0.9522,-0.9806,-1.0002,-1.0131,-1.0179,-1.0406,-1.0414,-0.9994,-1.0164,-1.13,0.0,0.0,0.0,0.0,0.0,-1.6614,0.0,0.0,-1.4497,-1.3639,-1.2945,-1.2588,-1.2552,-1.245,-1.2329,-1.2178,-1.2178,-1.2067,-1.186,-1.1927,-1.194,-1.1838,-1.1181,0.0,-1.3698,0.0,-1.3844,0.0,0.0,0.0,0.0,-1.8329,-1.9236,-1.8537,-1.8238,-1.882,-1.9264,0.0,-1.6503,0.0,0.0,0.0,0.0,0.0,0.0,0.0,0.0,0.0,0.0,0.0,0.0,0.0,-1.0589,0.0,-0.9905,0.0,0.0,0.0,0.0,0.0,0.0,0.0,0.0,0.0,0.0,0.0,0.0,0.0,0.0,0.0,0.0,0.0,0.0,0.0,-1.8897,-1.8957,-1.8568,-1.9271,-1.9708,-1.9708,-1.9708,-1.9708,-1.9708,-1.9708,-1.9708,-1.9708,-1.9708,-1.9708,-1.9708,-1.9708,-1.9114,-1.8106,-1.8106,-1.7643,-1.6886,-1.6886,-1.7212,-1.7823,-1.8716,-1.9199,-1.9513,-2.0152,-2.0547,-2.0845,-1.036,-0.9693,-0.9374,-0.9539,-0.9635,-0.9657,-0.9607,-1.0083,-1.0521,-1.0743,0.0,0.0,-1.5875,-1.5605,0.0,0.0,-1.9004,-1.836,0.0,0.0,-1.5791,0.0,0.0,0.0,0.0,-1.303,-1.2758,-1.2523,-1.2727,-1.2808,-1.2808,-1.2808,-1.2917,-1.3079,0.0,-1.2468,-1.3812,0.0,0.0,-1.5129,-1.6155,-1.6251,-1.5998,-1.8149,-1.9264,-1.9531,-1.8223,-1.8581,-1.9204,-1.6036,-1.6458,0.0,-1.5456,0.0,0.0,0.0,0.0,0.0,-1.2009,0.0,0.0,0.0,0.0,0.0,0.0,0.0,0.0,0.0,0.0,0.0,0.0,0.0,0.0,0.0,0.0,0.0,0.0,0.0,0.0,0.0,0.0,0.0,0.0,0.0,0.0,0.0,0.0,-1.8401,-1.7743,-1.8972,-1.9708,-1.9708,-1.9708,-1.9708,-1.9708,-1.9708,-1.9708,-1.9708,-1.9708,-1.9708,-1.9708,-1.9708,-1.9188,-1.8322,-1.8165,-1.7565,-1.671,-1.6552,-1.6861,-1.7506,-1.8458,-1.904,-1.9415,-2.0609,-2.1175,-2.1393,-1.0912,-1.0295,0.0,-1.0643,-0.9849,-0.9514,-1.0667,-1.254,0.0,0.0,0.0,0.0,0.0,0.0,0.0,0.0,0.0,-1.7721,-1.7705,0.0,-1.8412,0.0,0.0,-1.4044,0.0,0.0,-1.314,-1.2307,-1.3016,-1.3371,-1.3371,-1.3371,-1.3379,-1.3312,-1.1799,-1.2124,-1.3824,-1.414,-1.5291,-1.7076,-1.885,-1.9546,-1.9354,0.0,-1.8178,-1.9693,-1.9633,0.0,0.0,-1.731,-1.6681,0.0,0.0,0.0,0.0,0.0,0.0,0.0,0.0,0.0,0.0,-1.1589,0.0,0.0,0.0,0.0,-0.9905,0.0,0.0,0.0,0.0,0.0,0.0,0.0,0.0,0.0,0.0,0.0,0.0,0.0,0.0,0.0,0.0,0.0,0.0,0.0,0.0,0.0,-1.7743,-1.8972,-1.9708,-1.9708,-1.9708,-1.9708,-1.9708,-1.9708,-1.9708,-1.9708,-1.9708,-1.9708,-1.9708,-1.9708,-1.9406,-1.8855,-1.8341,-1.7787,-1.7229,-1.671,-1.6861,-1.7461,-1.8001,-1.8935,-2.0123,-2.1254,-2.2077,-2.2626,-1.1953,-1.1071,0.0,0.0,0.0,0.0,0.0,-1.2768,0.0,0.0,0.0,0.0,0.0,0.0,-2.0408,0.0,0.0,-2.1969,-2.0003,-2.0175,0.0,0.0,0.0,-1.615,0.0,0.0,0.0,0.0,-1.3032,-1.3151,-1.2677,-1.3176,-1.3396,-1.3362,0.0,-1.2598,0.0,0.0,0.0,0.0,0.0,-1.7907,-1.7967,0.0,0.0,-1.9708,-1.9708,-1.9708,0.0,-1.7527,-1.7691,-1.838,-1.6657,-1.5947,-1.586,-1.6637,-1.5021,0.0,0.0,0.0,-1.3604,-1.3347,0.0,0.0,0.0,0.0,0.0,0.0,0.0,0.0,0.0,0.0,0.0,0.0,0.0,0.0,0.0,0.0,0.0,0.0,0.0,0.0,0.0,0.0,0.0,0.0,0.0,0.0,0.0,-1.7672,-1.8926,-1.8649,-1.9343,-1.9708,-1.9708,-1.9708,-1.9708,-1.9708,-1.9708,-1.9708,-1.9708,-1.9708,-1.9406,-1.8874,-1.8341,-1.7807,-1.7289,-1.7151,-1.7426,-1.8025,-1.9006,-2.0096,-2.1175,-2.1557,-2.2123,-2.2892,-1.25,-1.1719,0.0,0.0,0.0,0.0,0.0,0.0,0.0,0.0,-1.861,0.0,-2.2985,0.0,-2.2455,0.0,-2.2754,-2.2788,-2.2175,-2.043,0.0,-2.1587,-1.8868,0.0,0.0,0.0,0.0,0.0,0.0,-1.3354,-1.3257,-1.3362,-1.3396,-1.3362,0.0,-1.2498,-1.2957,0.0,-1.5645,0.0,0.0,-1.7379,0.0,0.0,-1.9146,-1.9708,0.0,-1.9708,-1.9531,-1.8358,-1.8729,-1.9447,-1.7916,-1.7596,-1.7829,-1.8087,-1.6698,-1.5258,-1.6017,-1.584,0.0,-1.4609,-1.4282,0.0,-1.3119,0.0,0.0,0.0,0.0,0.0,0.0,0.0,0.0,0.0,0.0,0.0,0.0,-0.9905,0.0,0.0,0.0,0.0,0.0,0.0,0.0,0.0,0.0,0.0,0.0,0.0,-1.8515,-1.81,-1.9153,-1.9708,-1.9708,-1.9708,-1.9708,-1.9708,-1.9708,-1.9708,-1.9708,-1.9708,-1.9512,-1.9151,-1.8419,-1.7996,-1.7851,-1.7533,-1.7827,-1.8554,-1.9342,-2.0484,-2.172,-2.1969,-2.2603,-2.353,-1.2541,-1.2231,0.0,0.0,-1.1205,0.0,0.0,0.0,-1.8253,0.0,-2.2435,-2.1942,-2.3658,-2.1708,-2.056,-2.1297,-1.9867,0.0,-2.3711,-1.9444,0.0,0.0,-1.9017,-1.7404,-1.8917,0.0,0.0,0.0,0.0,0.0,-1.4924,-1.3877,-1.3396,-1.3379,-1.2677,0.0,-1.1357,-1.4232,-1.5061,-1.4571,-1.6215,-1.7953,-1.9384,-1.7667,-1.8117,-1.9708,-1.9708,-1.9708,-1.9708,-1.9708,-1.9708,-1.9708,-1.9708,-1.9708,-1.969,-1.9672,-1.9299,-1.8779,-1.8263,-1.7706,-1.6926,-1.54,0.0,0.0,0.0,0.0,-1.325,0.0,0.0,0.0,0.0,0.0,0.0,0.0,0.0,0.0,0.0,0.0,0.0,0.0,0.0,0.0,0.0,0.0,0.0,0.0,0.0,0.0,0.0,0.0,-1.8439,-1.81,-1.9043,-1.9597,-1.9708,-1.9645,-1.9645,-1.9708,-1.9708,-1.9708,-1.9708,-1.9672,-1.9657,-1.9603,-1.8544,-1.8384,-1.8788,-1.7871,-1.8078,-1.9008,-1.9082,-2.0186,-2.1828,-2.2498,-2.3509,-2.447,-1.308,-1.2794,-1.2739,0.0,-1.3699,-1.5289,0.0,0.0,0.0,0.0,-2.3154,-2.3746,-2.3077,-2.3603,-2.2781,-1.9758,-2.03,0.0,0.0,0.0,0.0,-2.3082,-2.1645,-2.0445,-1.9727,-1.8914,0.0,-1.6098,0.0,0.0,-1.4096,-1.3617,-1.3396,-1.3396,0.0,0.0,-1.2183,-1.5023,-1.626,-1.6232,-1.534,-1.6076,0.0,0.0,-1.8117,-1.9708,-1.9708,-1.9708,-1.9708,-1.9708,-1.9708,-1.9708,-1.9708,-1.9708,-1.9621,-1.9225,-1.9006,-1.8779,-1.8263,-1.7706,-1.7205,-1.6781,-1.5984,-1.5196,0.0,0.0,0.0,0.0,0.0,0.0,0.0,0.0,0.0,0.0,0.0,0.0,0.0,0.0,0.0,-1.0359,0.0,0.0,0.0,0.0,0.0,0.0,0.0,0.0,0.0,0.0,0.0,-1.8071,-1.7601,-1.81,-1.9675,-1.8915,-1.8915,-1.9708,-1.9708,-1.9708,-1.969,-1.9281,-1.9114,-1.9072,-1.844,-1.8257,-1.8392,-1.8525,-1.8744,-1.9095,-1.9997,-2.1209,-2.2521,-2.3143,-2.3584,-2.3909,-1.3774,0.0,0.0,-1.358,0.0,0.0,-1.8966,0.0,0.0,-2.3928,-2.4624,0.0,-2.4462,-2.5002,-2.426,-2.1415,-2.0644,0.0,-2.1124,0.0,0.0,-2.3053,-2.2073,-2.0968,-2.0018,-1.9779,0.0,-1.7281,0.0,0.0,-1.4959,-1.3911,-1.3396,-1.3396,0.0,-1.2982,0.0,-1.4948,-1.6576,-1.7364,-1.6025,0.0,0.0,-1.7304,-1.8117,-1.9708,-1.9708,-1.9708,-1.9708,-1.9708,-1.9708,-1.9708,-1.9708,-1.9708,-1.9639,-1.935,-1.908,-1.8779,-1.8263,-1.7706,-1.7229,-1.7013,-1.6417,-1.5875,-1.5875,-1.5531,-1.5146,0.0,0.0,0.0,0.0,0.0,0.0,0.0,0.0,0.0,0.0,0.0,0.0,0.0,0.0,0.0,0.0,0.0,0.0,0.0,0.0,0.0,0.0,0.0,0.0,-1.6673,-1.7513,-1.8092,-1.8302,-1.8168,-1.8403,-1.901,-1.9236,-1.946,-1.969,-1.9151,-1.8893,-1.8865,-1.8397,-1.8324,-1.8582,-1.8873,-1.9146,-1.946,-2.0699,-2.1809,-2.2806,-2.3703,-2.4223,-2.4537,-1.4446,0.0,0.0,0.0,0.0,0.0,0.0,-2.1778,0.0,-2.6896,0.0,-2.5274,-2.5863,-2.5519,-2.4869,-2.3932,0.0,-2.048,-2.358,-1.9212,-1.8484,-2.2941,-2.1477,-2.0474,-2.0318,-2.0237,0.0,0.0,0.0,0.0,-1.6752,-1.4529,-1.3616,0.0,0.0,0.0,0.0,-1.4676,-1.6369,-1.7915,-1.7258,-1.7937,-1.9206,-1.7862,-1.8327,-1.9708,-1.9708,-1.9708,-1.9708,-1.9708,-1.9708,-1.9708,-1.9708,-1.9708,-1.9708,-1.9708,-1.9332,-1.8779,-1.8263,-1.7706,-1.7167,-1.6637,-1.65,-1.65,-1.65,-1.65,-1.65,-1.65,-1.65,-1.6304,0.0,0.0,0.0,0.0,0.0,0.0,0.0,0.0,0.0,0.0,0.0,0.0,0.0,0.0,0.0,0.0,0.0,0.0,0.0,0.0,0.0,-1.5086,-1.7847,-1.8551,-1.6863,0.0,-1.8148,-1.8433,-1.8683,-1.9082,-1.9584,-1.9043,-1.8803,-1.8802,-1.8455,-1.8569,-1.9021,-1.9349,-1.9812,-2.0424,-2.1533,-2.2366,-2.3093,-2.4289,-2.5158,-2.5719,0.0,0.0,0.0,0.0,0.0,-1.9483,-2.1873,-2.4285,-2.5534,-2.4686,-2.5024,-2.4588,-2.26,-2.3609,-2.3757,-2.2126,-2.1379,0.0,0.0,0.0,0.0,-2.271,-2.2247,-2.1932,-2.189,-2.153,-2.1084,0.0,0.0,0.0,-1.8335,-1.5309,0.0,0.0,0.0,0.0,-1.6604,-1.5528,0.0,-1.7182,-1.706,-1.7197,-1.7606,-1.8774,-1.9411,-1.9708,-1.9708,-1.9708,-1.9708,-1.9708,-1.9708,-1.9708,-1.9708,-1.9708,-1.9708,-1.9708,-1.9332,-1.8779,-1.8263,-1.7706,-1.7167,-1.6637,-1.65,-1.65,-1.65,-1.65,-1.65,-1.65,-1.65,-1.6459,-1.6334,0.0,0.0,0.0,0.0,0.0,0.0,0.0,0.0,0.0,0.0,0.0,0.0,0.0,0.0,0.0,0.0,0.0,0.0,0.0,0.0,0.0,-1.6414,0.0,0.0,0.0,-1.8488,-2.0236,-1.8885,-1.8517,-1.9024,-1.8477,-1.8261,-1.8347,-1.8755,-1.8962,-1.9165,-2.1211,-2.2436,-2.3055,-2.3269,-2.372,-2.4365,-2.5149,-2.5854,-2.6348,0.0,0.0,0.0,0.0,0.0,0.0,0.0,-2.4111,0.0,-2.4742,-2.5096,-2.4932,-2.3663,-2.3777,-2.3587,-2.2727,-2.1778,-2.1494,-2.2105,-2.1114,-2.116,-2.2638,-2.2436,0.0,-2.1116,-2.1675,-2.1282,-1.9858,0.0,0.0,-1.8118,0.0,0.0,-1.5848,0.0,-1.5767,0.0,0.0,0.0,-1.7624,-1.818,-1.8403,-1.8507,-1.9384,-1.9708,-1.9708,-1.9708,-1.9708,-1.9708,-1.9708,-1.9708,-1.9708,-1.9708,-1.9708,-1.9708,-1.9708,-1.9332,-1.8779,-1.8263,-1.7706,-1.7167,-1.6637,-1.65,-1.65,-1.65,-1.65,-1.65,-1.65,-1.65,-1.6388,-1.6005,-1.5312,0.0,0.0,0.0,0.0,0.0,0.0,0.0,0.0,0.0,0.0,0.0,0.0,0.0,0.0,0.0,0.0,0.0,0.0,0.0,0.0,0.0,0.0,0.0,0.0,0.0,-2.0371,-1.9478,-1.9507,-2.0313,-1.9437,-1.9242,-1.9634,-2.0265,-2.0523,-2.0649,-2.2473,-2.3618,-2.4231,-2.4231,-2.4578,-2.5187,-2.5869,-2.6085,-2.609,0.0,-1.7708,0.0,0.0,-1.9127,0.0,-2.2833,-2.3414,-2.4051,-2.5246,-2.5246,-2.5116,-2.5047,-2.4239,-2.3555,-2.3152,-2.2103,-2.1728,-2.2352,-2.1505,-2.1383,-2.2345,-2.2327,-2.1738,-2.0521,-2.1688,-2.1349,0.0,0.0,0.0,0.0,0.0,0.0,0.0,0.0,0.0,0.0,0.0,-1.8358,-1.8522,-1.9361,-1.9708,-1.9708,-1.9708,-1.9708,-1.9708,-1.9708,-1.9708,-1.9708,-1.9708,-1.9708,-1.9708,-1.9708,-1.9708,-1.9708,-1.9708,-1.9332,-1.8779,-1.8263,-1.7706,-1.7167,-1.6637,-1.65,-1.65,-1.65,-1.65,-1.65,-1.65,-1.65,-1.6309,-1.5749,-1.5402,0.0,0.0,0.0,0.0,0.0,0.0,0.0,0.0,0.0,0.0,0.0,0.0,0.0,0.0,0.0,-1.4757,-1.4529,-1.5839,-1.6521,0.0,0.0,-1.8653,-1.84,0.0,-2.016,-2.0645,-2.0175,-2.0513,-2.1505,-2.054,-2.0471,-2.1141,-2.1821,-2.2423,-2.2956,-2.3758,-2.4494,-2.5092,-2.5092,-2.5398,-2.5884,-2.6393,-2.6228,-2.5922,0.0,0.0,0.0,0.0,0.0,0.0,-2.5654,-2.3659,-2.2628,-2.5089,-2.4768,-2.4194,-2.3893,-2.375,-2.3034,-2.1401,-2.2318,-2.2076,-1.9911,-2.1461,-2.2151,-2.1375,-2.1952,-2.2229,-2.2093,-2.2229,-2.1979,0.0,0.0,0.0,0.0,0.0,0.0,0.0,0.0,0.0,0.0,-1.9039,-1.9269,-1.9564,-1.9666,-1.9708,-1.9708,-1.9708,-1.9708,-1.9708,-1.9708,-1.9708,-1.9708,-1.9708,-1.9708,-1.9708,-1.9708,-1.9708,-1.9708,-1.9708,-1.9332,-1.8779,-1.8263,-1.7706,-1.7167,-1.6637,-1.65,-1.65,-1.65,-1.65,-1.65,-1.65,-1.65,-1.6484,-1.6405,-1.626,-1.5984,0.0,0.0,0.0,0.0,0.0,0.0,0.0,0.0,0.0,0.0,-1.2811,0.0,0.0,-1.5184,-1.5262,-1.5885,-1.5267,-1.5203,-1.5864,0.0,-1.7404,-1.8386,-1.9061,-2.0403,-2.2431,-2.0832,-2.0413,-2.0967,-2.0848,-2.1155,-2.1843,-2.2515,-2.4086,-2.6109,-2.5629,-2.5823,-2.6409,-2.6409,-2.6473,-2.6497,-2.6572,-2.6522,-2.6616,0.0,0.0,0.0,0.0,0.0,0.0,0.0,-2.3898,-2.3499,-2.4538,-2.4227,-2.3837,-2.3714,-2.3346,-2.2811,-2.2089,-2.2573,-2.2407,-2.1208,-2.2125,-2.2452,-2.1884,-2.2127,-2.2296,-2.2296,-2.2296,-2.2077,0.0,0.0,0.0,0.0,0.0,0.0,0.0,0.0,-1.8799,-1.8938,-1.9332,-1.9577,-1.9708,-1.9708,-1.9708,-1.9708,-1.9708,-1.9962,-2.0243,-1.9824,-1.9944,-2.0243,-1.9842,-1.9708,-1.9708,-1.9708,-1.9708,-1.9708,-1.9708,-1.9548,-1.9188,-1.8341,-1.7947,-1.7565,-1.671,-1.65,-1.6588,-1.6961,-1.7036,-1.7124,-1.744,-1.7262,-1.7036,-1.7036,-1.6688,-1.6127,0.0,0.0,0.0,0.0,0.0,0.0,0.0,0.0,0.0,0.0,0.0,0.0,0.0,0.0,-1.5772,-1.6435,-1.6638,-1.7181,-1.8115,0.0,-1.9296,-2.1509,-2.1074,-2.1669,-2.3242,-2.2164,-2.1957,-2.2522,-2.2522,-2.3326,-2.4723,-2.5,-2.5896,-2.7171,-2.6905,-2.6956,-2.721,-2.721,-2.721,-2.721,-2.721,-2.6619,-2.6045,-2.7023,0.0,-2.4461,0.0,-2.4306,-2.4351,-2.3591,-2.388,-2.3968,-2.3348,-2.3425,-2.3555,-2.3555,-2.3045,-2.2496,-2.1945,-2.2315,-2.2209,-2.136,-2.2114,-2.2398,-2.1989,-2.2178,0.0,-2.2296,-2.2296,-2.2135,-2.1809,-2.0777,0.0,0.0,0.0,0.0,0.0,-1.8702,-1.8986,-1.9031,-1.9513,-1.9708,-1.9708,-1.9708,-1.9708,-1.9723,-1.9914,-2.0168,-2.0378,-2.0094,-2.0168,-2.0363,-2.0094,-1.9854,-1.9708,-1.9708,-1.9708,-1.9708,-1.9708,-1.9708,-1.946,-1.84,-1.8106,-1.7847,-1.6774,-1.65,-1.6651,-1.725,-1.741,-1.7561,-1.8091,-1.7765,-1.741,-1.741,-1.6911,-1.6227,-1.5384,0.0,0.0,0.0,0.0,0.0,0.0,-1.4536,-1.4448,-1.4701,0.0,0.0,0.0,0.0,0.0,-1.7264,-1.7617,0.0,0.0,0.0,0.0,0.0,-2.1914,-2.2292,-2.3595,-2.3182,-2.3281,-2.3924,-2.4298,-2.5255,-2.6602,-2.6821,-2.7165,-2.76,-2.76,-2.76,-2.76,-2.76,-2.76,-2.76,-2.76,-2.6811,-2.5922,-2.9133,-2.9574,-2.9592,-2.8007,-2.709,-2.5706,-2.3107,-2.3552,-2.344,-2.1325,-2.2307,-2.32,-2.32,-2.291,-2.1979,-2.0187,-2.1417,-2.1346,-1.908,-2.1059,-2.1972,0.0,0.0,-2.2296,-2.2296,-2.2296,-2.2296,-2.2296,0.0,0.0,-2.0465,0.0,-1.9011,-1.8717,-1.9393,-1.9693,-1.9693,-1.9708,-1.9708,-1.9708,-1.9708,-1.9708,-1.9783,-2.0438,-2.0288,-1.9813,-2.0434,-2.0273,-1.9813,-2.0483,-2.0243,-1.9708,-1.9708,-1.9708,-1.9708,-1.9708,-1.9708,-1.946,-1.84,-1.8106,-1.7847,-1.6774,-1.65,-1.6651,-1.725,-1.741,-1.7561,-1.8091,-1.7765,-1.741,-1.741,-1.6911,-1.6448,-1.6322,0.0,0.0,0.0,0.0,0.0,0.0,-1.3796,-1.367,-1.5333,0.0,0.0,0.0,0.0,0.0,0.0,0.0,0.0,-1.9058,-1.7951,0.0,-2.0113,-2.0657,-2.1831,-2.3595,-2.3595,-2.3954,-2.4634,-2.5959,-2.6572,-2.6632,-2.73,-2.7585,-2.76,-2.76,-2.76,-2.76,-2.76,-2.76,-2.76,-2.76,-2.7111,-2.6777,-2.5484,-2.7455,-2.8629,-2.6308,-2.6267,-2.6133,-2.4754,-2.4344,-2.3863,-2.2965,-2.3037,-2.3117,-2.2868,-2.2603,-2.2197,0.0,-2.1566,-2.1448,0.0,-2.1431,-2.1667,-2.1938,-2.1164,-2.0504,-1.9993,-2.0471,-2.0487,-1.9976,0.0,0.0,0.0,-1.9483,-1.9269,-1.9393,-1.9603,-1.9944,-2.0363,-1.9902,-1.9959,-2.0348,-1.9869,-1.9708,-1.9783,-2.0453,-2.0554,-2.0423,-2.0613,-2.0857,-2.1021,-2.0778,-2.0872,-2.0976,-2.0528,-2.0064,-1.9798,-2.0243,-2.0066,-1.9647,-1.9412,-1.8752,-1.7996,-1.7298,-1.7099,-1.725,-1.7815,-1.8505,-1.9083,-1.9258,-1.8869,-1.8392,-1.8016,-1.7488,-1.6863,-1.6016,-1.5959,0.0,0.0,0.0,0.0,0.0,-1.4765,-1.4649,0.0,-1.5679,0.0,0.0,0.0,0.0,0.0,0.0,0.0,0.0,-2.059,0.0,-2.2464,-2.1885,-2.2256,-2.361,-2.4051,-2.4859,-2.5974,-2.6393,-2.6866,-2.7285,-2.751,-2.76,-2.76,-2.76,-2.76,-2.76,-2.76,-2.76,-2.76,-2.76,-2.7111,-2.671,-2.4892,-2.6483,-2.7475,-2.5499,-2.5704,-2.5648,-2.4158,-2.3981,-2.3648,-2.2629,-2.28,-2.2885,-2.259,-2.2398,0.0,-2.2296,-2.187,-2.1803,-2.2262,-2.187,-2.182,-2.2279,-2.1383,-2.0657,-2.0196,-2.0623,0.0,-2.0179,-2.0958,-2.0895,-2.0051,-1.9744,-1.9638,-1.9708,-1.9708,-2.0064,-2.0673,-2.0258,-2.0318,-2.0658,-2.0243,-2.0079,-2.0124,-2.0539,-2.0853,-2.1081,-2.1081,-2.135,-2.1665,-2.1515,-2.156,-2.1665,-2.15,-2.0976,-2.0468,-2.0643,-2.0401,-2.0057,-1.992,-1.9219,-1.8375,-1.7837,-1.7689,-1.784,-1.8392,-1.9183,-1.9798,-1.9798,-1.9359,-1.8895,-1.8556,-1.8066,-1.7388,-1.6505,-1.6622,-1.6647,-1.6082,0.0,0.0,0.0,0.0,0.0,0.0,-1.7263,-1.7515,0.0,0.0,0.0,0.0,0.0,0.0,-2.168,-2.1783,0.0,-2.3251,-2.2572,-2.2655,-2.361,-2.453,-2.5555,-2.6602,-2.6866,-2.721,-2.76,-2.76,-2.76,-2.76,-2.76,-2.76,-2.76,-2.76,-2.76,-2.76,-2.76,-2.7469,-2.743,-2.6387,-2.6426,0.0,0.0,-2.5309,0.0,-2.2081,-2.2825,-2.298,-2.0958,-2.1853,-2.2599,-2.2321,-2.2296,-2.2296,-2.2296,0.0,0.0,0.0,-2.2245,-2.2245,-2.2296,-2.2195,-2.211,-2.206,-2.211,-2.2195,-2.2296,-2.1794,-2.1149,-2.0348,-2.0297,-2.0054,-1.9708,-1.9753,-2.0139,-2.0763,-2.0718,-2.0718,-2.0763,-2.0658,-2.0628,-2.0643,-2.0733,-2.1141,-2.1635,-2.1739,-2.1769,-2.1859,-2.2493,-2.2313,-2.1919,-2.2523,-2.2298,-2.1695,-2.1017,-2.0817,-2.0648,-2.0164,-1.9535,-1.8888,-1.8383,-1.8267,-1.8405,-1.8933,-1.9434,-1.9798,-1.9798,-1.9384,-1.9045,-1.9008,-1.8581,-1.8078,-1.7549,-1.7461,-1.7237,-1.666,0.0,0.0,0.0,0.0,0.0,0.0,-1.9333,-1.969,0.0,0.0,0.0,0.0,0.0,-2.0456,-2.1784,-2.1829,-2.2113,-2.2763,-2.2763,-2.3092,-2.3744,-2.5061,-2.6019,-2.6701,-2.7315,-2.76,-2.76,-2.76,-2.76,-2.76,-2.76,-2.76,-2.76,-2.7645,-2.766,-2.7675,-2.772,-2.8139,-2.8757,0.0,0.0,-2.59,-2.3644,-2.4458,-2.4979,-2.3738,-2.3632,-2.3429,-2.2658,-2.2646,-2.2599,-2.2321,-2.2296,-2.2296,-2.2296,-2.1786,-2.1701,-2.2262,-2.1769,-2.1701,-2.2279,-2.1181,-2.0285,-1.9722,-2.0251,-2.113,-2.2296,-2.1524,-2.1039,-2.0829,-2.0156,-1.98,-1.9723,-2.0228,-2.0842,-2.1425,-2.0932,-2.1006,-2.1365,-2.0348,-1.9947,-2.0049,-2.1066,-2.1246,-2.1062,-2.2104,-2.2463,-2.2493,-2.2643,-2.2912,-2.3086,-2.2808,-2.2912,-2.3026,-2.2418,-2.1865,-2.1441,-2.1319,-2.021,-1.9022,-1.8864,-1.8807,-1.8945,-1.9497,-1.971,-1.9798,-1.9798,-1.971,-1.9497,-1.907,-1.8895,-1.8632,-1.8103,-1.8003,-1.7815,-1.725,-1.7471,0.0,0.0,-1.8282,-1.8895,-1.9048,-2.0035,-2.0394,0.0,0.0,0.0,0.0,-2.1395,-2.1814,-2.3116,-2.3146,-2.3221,-2.3385,-2.3385,-2.3969,-2.5151,-2.5974,-2.6692,-2.736,-2.7525,-2.76,-2.76,-2.76,-2.76,-2.76,-2.76,-2.76,-2.7645,-2.8143,-2.8353,-2.8427,-2.8948,-2.9232,-2.9445,-2.2735,-2.4087,-2.5031,-2.3595,-2.4177,-2.4695,-2.4263,-2.3785,-2.3403,-2.3224,-2.2807,-2.2463,-2.2324,-2.2296,-2.2296,-2.2296,-2.1938,-2.187,-2.2262,-2.1921,-2.187,-2.2279,-2.1823,-2.138,-2.097,-2.1684,-2.231,-2.2801,-2.1778,-2.1181,-2.0975,-2.0296,-1.9874,-1.9738,-2.0408,-2.1062,-2.1695,-2.1635,-2.1814,-2.2074,-2.1041,-2.0602,-2.0647,-2.1081,-2.1395,-2.171,-2.2448,-2.2882,-2.3122,-2.3122,-2.3325,-2.3535,-2.3206,-2.3325,-2.3535,-2.3212,-2.2665,-2.2092,-2.1778,-2.082,-1.9782,-1.9446,-1.9359,-1.9523,-2.0118,-2.0029,-1.9901,-2.0207,-2.0003,-1.971,-1.9409,-1.9359,-1.9183,-1.8644,-1.8154,-1.7727,-1.7448,-1.7505,0.0,-1.8595,-1.9502,-2.0282,-2.0804,-2.1629,-2.1871,-2.1219,-2.1215,0.0,-2.2512,-2.2073,-2.2348,-2.3565,-2.3595,-2.3595,-2.3595,-2.3909,-2.4747,-2.6063,-2.6422,-2.6956,-2.76,-2.76,-2.76,-2.76,-2.76,-2.76,-2.7615,-2.7944,-2.8064,-2.8113,-2.8786,-2.9056,-2.9086,-2.9472,-2.9759,-3.0058,-2.4318,-2.419,-2.418,-2.4123,-2.4113,-2.4103,-2.4064,-2.3533,-2.3129,-2.3129,-2.2634,-2.2296,-2.2296,-2.2296,-2.233,-2.2448,-2.2364,-2.2296,-2.2296,-2.2398,-2.2429,-2.2296,-2.3004,-2.3393,-2.3393,-2.4118,-2.4105,-2.3287,-2.2312,-2.155,-2.1037,-2.068,-2.0322,-2.0037,-2.0707,-2.1321,-2.1874,-2.2463,-2.2643,-2.2493,-2.1814,-2.1545,-2.15,-2.1036,-2.162,-2.2703,-2.2808,-2.3182,-2.3595,-2.3595,-2.3595,-2.3595,-2.3595,-2.3595,-2.3595,-2.3595,-2.3246,-2.268,-2.2016,-2.139,-2.0769,-2.0029,-1.9953,-2.022,-2.0696,-2.0421,-2.0245,-2.0807,-2.0484,-2.0067,-1.9978,-1.9952,-1.9737,-1.9108,-1.8179,-1.7524,-1.7524,0.0,-1.7855,-1.9974,-2.0819,-2.1656,-2.2736,-2.3385,-2.3535,-2.3032,-2.2554,-2.2775,-2.3842,-2.279,-2.2687,-2.3857,-2.3714,-2.3655,-2.3744,-2.4515,-2.5457,-2.6587,-2.6692,-2.7061,-2.76,-2.76,-2.76,-2.76,-2.76,-2.766,-2.7809,-2.8368,-2.8667,-2.8816,-2.946,-2.9756,-2.9756,-2.9834,-3.0208,-3.0657,-2.4226,-2.419,-2.4103,-2.3827,-2.3785,-2.3682,-2.3403,-2.3033,-2.2784,-2.2784,-2.2504,-2.2296,-2.2296,-2.2296,-2.255,-2.3173,-2.2651,-2.2296,-2.2296,-2.2885,-2.2953,-2.233,-2.3004,-2.3393,-2.3393,-2.4118,-2.3949,-2.2808,-2.2849,-2.2325,-2.1253,-2.1406,-2.1458,-2.141,-2.2104,-2.2448,-2.2553,-2.2658,-2.2373,-2.1799,-2.1141,-2.0872,-2.0917,-2.138,-2.2044,-2.2763,-2.3287,-2.352,-2.3595,-2.3595,-2.3595,-2.3595,-2.3595,-2.3595,-2.3595,-2.3595,-2.353,-2.3334,-2.2703,-2.2053,-2.1302,-2.0223,-2.0689,-2.1304,-2.0881,-2.1099,-2.1435,-2.1544,-2.1472,-2.1256,-2.0746,-2.0646,-2.0278,-1.9182,-1.8469,-1.8078,-1.8078,0.0,-1.9235,-2.0605,-2.1749,-2.2717,-2.3402,-2.4073,-2.441,-2.4306,-2.4224,-2.4522,-2.5255,-2.4052,-2.3948,-2.5255,-2.4193,-2.3879,-2.444,-2.5674,-2.6393,-2.6602,-2.718,-2.7495,-2.76,-2.76,-2.76,-2.76,-2.76,-2.7929,-2.8442,-2.8562,-2.8921,-2.9517,-3.0118,-3.0357,-3.0432,-3.0987,-3.1256,-3.1346,-2.4281,-2.419,-2.4094,-2.3764,-2.3703,-2.3577,-2.3247,-2.3277,-2.334,-2.334,-2.342,-2.3477,-2.3477,-2.3477,-2.3613,-2.3966,-2.3325,-2.2885,-2.2885,-2.3207,-2.3441,-2.3477,-2.4188,-2.4763,-2.5169,-2.4844,-2.4381,-2.3819,-2.3065,-2.2371,-2.1837,-2.173,-2.1515,-2.1216,-2.2239,-2.2508,-2.2224,-2.2877,-2.2823,-2.2179,-2.1515,-2.1246,-2.1276,-2.1575,-2.2119,-2.2778,-2.337,-2.3595,-2.3595,-2.3595,-2.3595,-2.3595,-2.3595,-2.3595,-2.3595,-2.3595,-2.3377,-2.3054,-2.2777,-2.2193,-2.1499,-2.0646,-2.108,-2.1639,-2.1342,-2.1496,-2.1805,-2.217,-2.1946,-2.152,-2.0919,-2.0795,-2.0598,-2.0028,-1.8957,0.0,0.0,-1.938,-1.9951,-2.0794,-2.2563,-2.3821,-2.4104,-2.4739,-2.5128,-2.5128,-2.5128,-2.5262,-2.5576,-2.5016,-2.4971,-2.5585,-2.5001,-2.5001,-2.5674,-2.6288,-2.6767,-2.7151,-2.745,-2.76,-2.76,-2.76,-2.76,-2.7615,-2.7989,-2.8308,-2.8652,-2.934,-2.9804,-3.0148,-3.0806,-3.1032,-3.1077,-3.1391,-3.1511,-3.1511,-2.4355,-2.419,-2.4074,-2.366,-2.3577,-2.3508,-2.3267,-2.3549,-2.3843,-2.4015,-2.4315,-2.4491,-2.4491,-2.4491,-2.4491,-2.4491,-2.3831,-2.3545,-2.3883,-2.3748,-2.3831,-2.422,-2.5118,-2.5862,-2.642,-2.5544,-2.4952,-2.4666,-2.3409,-2.2721,-2.2547,-2.2259,-2.1999,-2.1797,-2.2692,-2.2798,-2.2375,-2.3205,-2.3212,-2.2643,-2.1964,-2.1784,-2.1919,-2.1919,-2.2343,-2.2972,-2.343,-2.3595,-2.3595,-2.3595,-2.3595,-2.3595,-2.3595,-2.3714,-2.3804,-2.3655,-2.3275,-2.2897,-2.2897,-2.2529,-2.1993,-2.1379,-2.17,-2.2109,-2.1969,-2.2039,-2.2285,-2.2793,-2.2482,-2.1931,-2.1327,-2.1174,-2.1055,-2.0735,0.0,0.0,0.0,-2.0181,-2.0602,-2.143,-2.3378,-2.4677,-2.4806,-2.545,-2.5839,-2.5839,-2.5839,-2.5899,-2.6063,-2.5779,-2.5674,-2.5839,-2.5839,-2.6078,-2.6587,-2.6761,-2.7091,-2.76,-2.76,-2.76,-2.76,-2.76,-2.76,-2.763,-2.8308,-2.8682,-2.8921,-3.0043,-3.0597,-3.0763,-3.1301,-3.1511,-3.1511,-3.1511,-3.16,-3.1735,-2.4355,-2.419,-2.3996,-2.3357,-2.3242,-2.3272,-2.336,-2.3401,-2.3674,-2.4367,-2.4472,-2.4491,-2.4491,-2.4491,-2.4491,-2.4491,-2.3831,-2.3985,-2.5355,-2.4812,-2.4135,-2.3511,-2.4847,-2.5642,-2.5693,-2.5828,-2.5353,-2.4237,-2.4237,-2.3945,-2.332,-2.3434,-2.3953,-2.4863,-2.4447,-2.4256,-2.4178,-2.3637,-2.3142,-2.2643,-2.1964,-2.2054,-2.2628,-2.2628,-2.3002,-2.3535,-2.358,-2.3595,-2.3595,-2.3595,-2.3595,-2.3595,-2.3595,-2.4044,-2.4395,-2.3789,-2.3573,-2.353,-2.353,-2.3508,-2.3319,-2.2717,-2.3009,-2.3319,-2.2748,-2.3054,-2.3471,-2.353,-2.3431,-2.3178,-2.258,-2.2361,-2.1927,-2.0862,0.0,0.0,-2.0541,-2.0795,-2.1558,-2.3206,-2.417,-2.4926,-2.5469,-2.6138,-2.6512,-2.6512,-2.6512,-2.6806,-2.742,-2.6273,-2.5884,-2.6497,-2.6512,-2.6542,-2.6587,-2.7225,-2.754,-2.76,-2.76,-2.76,-2.76,-2.76,-2.76,-2.763,-2.8308,-2.8951,-2.9592,-3.0223,-3.0881,-3.1436,-3.1481,-3.1511,-3.1511,-3.1511,-3.1884,-3.2437,-2.4465,-2.419,-2.3996,-2.3323,-2.32,-2.3252,-2.3374,-2.3797,-2.4355,-2.5084,-2.5591,-2.5862,-2.5862,-2.5862,-2.5862,-2.5862,-2.5186,-2.5,-2.5559,-2.5338,-2.5253,-2.5439,-2.5981,-2.6285,-2.6285,-2.576,-2.5282,-2.482,-2.4204,-2.3937,-2.4022,-2.4076,-2.4258,-2.458,-2.4802,-2.4657,-2.4296,-2.4455,-2.3987,-2.3105,-2.286,-2.2738,-2.2703,-2.2703,-2.3271,-2.4095,-2.4095,-2.4307,-2.4552,-2.4204,-2.4365,-2.4667,-2.4334,-2.4395,-2.447,-2.3804,-2.4193,-2.4657,-2.3834,-2.3595,-2.3465,-2.2852,-2.3143,-2.3443,-2.2844,-2.3503,-2.4216,-2.4216,-2.418,-2.3953,-2.3331,-2.2775,-2.2225,-2.1769,0.0,-2.1041,-2.1606,-2.222,-2.285,-2.3521,-2.4941,-2.5981,-2.6189,-2.6836,-2.7225,-2.7225,-2.7225,-2.733,-2.7585,-2.7121,-2.6971,-2.721,-2.7225,-2.7225,-2.7225,-2.7465,-2.76,-2.76,-2.76,-2.7824,-2.8203,-2.8203,-2.8453,-2.8888,-2.9505,-2.9924,-3.0208,-3.0838,-3.1271,-3.1511,-3.1511,-3.175,-3.2108,-3.2108,-3.2527,-3.3125,-2.4465,-2.4132,-2.3858,-2.3311,-2.3117,-2.3196,-2.3665,-2.4169,-2.4846,-2.5828,-2.6387,-2.6691,-2.6691,-2.6691,-2.6607,-2.637,-2.5896,-2.5592,-2.5592,-2.5828,-2.6167,-2.6674,-2.6691,-2.6691,-2.6691,-2.589,-2.5449,-2.5449,-2.4552,-2.4369,-2.4894,-2.4732,-2.4777,-2.5007,-2.5313,-2.5209,-2.479,-2.5031,-2.4589,-2.3696,-2.3479,-2.3238,-2.3008,-2.3181,-2.3713,-2.443,-2.4592,-2.4792,-2.4894,-2.4532,-2.4744,-2.504,-2.4484,-2.4425,-2.4545,-2.4313,-2.4747,-2.5083,-2.4156,-2.3759,-2.3508,-2.3076,-2.3275,-2.3546,-2.3354,-2.3969,-2.4664,-2.4874,-2.467,-2.434,-2.3917,-2.3191,-2.2609,-2.2556,-2.2397,-2.2484,-2.3131,-2.3913,-2.4525,-2.4789,-2.6061,-2.6926,-2.6926,-2.733,-2.76,-2.76,-2.76,-2.76,-2.76,-2.76,-2.7705,-2.7914,-2.7914,-2.8019,-2.8229,-2.7809,-2.7705,-2.7914,-2.7914,-2.8274,-2.8906,-2.8906,-2.9146,-2.9636,-3.0238,-3.0507,-3.0552,-3.1212,-3.1511,-3.1525,-3.1735,-3.2093,-3.2542,-3.2751,-3.3245,-3.3799,-2.4373,-2.3927,-2.3606,-2.3265,-2.294,-2.3129,-2.4314,-2.4508,-2.5032,-2.6505,-2.6691,-2.6691,-2.6691,-2.6691,-2.6404,-2.566,-2.5609,-2.5609,-2.5609,-2.6285,-2.6691,-2.6708,-2.6691,-2.6691,-2.6691,-2.6244,-2.6013,-2.6013,-2.5484,-2.5484,-2.5995,-2.5465,-2.5746,-2.6674,-2.6209,-2.6013,-2.5964,-2.529,-2.4784,-2.4348,-2.3665,-2.3499,-2.3681,-2.4199,-2.441,-2.4491,-2.5028,-2.4871,-2.4446,-2.441,-2.4506,-2.4507,-2.3819,-2.4066,-2.4754,-2.5397,-2.5128,-2.4634,-2.4619,-2.4126,-2.3625,-2.3595,-2.3595,-2.3789,-2.4455,-2.4605,-2.4799,-2.5495,-2.4984,-2.4446,-2.4446,-2.3712,-2.312,-2.312,-2.3627,-2.4307,-2.511,-2.5803,-2.6538,-2.7391,-2.7576,-2.76,-2.7615,-2.76,-2.76,-2.76,-2.7615,-2.76,-2.76,-2.76,-2.7929,-2.8577,-2.8607,-2.8921,-2.9592,-2.8289,-2.7959,-2.8607,-2.8607,-2.8951,-2.9621,-2.9621,-2.9621,-2.9651,-3.0253,-3.0507,-3.0567,-3.1227,-3.1511,-3.157,-3.2228,-3.2497,-3.2617,-3.326,-3.3918,-3.4518,-2.5081,-2.432,-2.3947,-2.4685,-2.4112,-2.3929,-2.5081,-2.527,-2.5625,-2.6573,-2.6691,-2.6691,-2.6691,-2.6691,-2.6607,-2.6387,-2.637,-2.637,-2.637,-2.6573,-2.6928,-2.7452,-2.6979,-2.6691,-2.6691,-2.6244,-2.6261,-2.6772,-2.5726,-2.5726,-2.6753,-2.6079,-2.6104,-2.6691,-2.6539,-2.6487,-2.6487,-2.6286,-2.594,-2.547,-2.4901,-2.4681,-2.4712,-2.4491,-2.4871,-2.554,-2.5689,-2.62,-2.6683,-2.5915,-2.603,-2.6233,-2.4774,-2.542,-2.6452,-2.5247,-2.5764,-2.6497,-2.557,-2.5495,-2.536,-2.3954,-2.3595,-2.3789,-2.4455,-2.4963,-2.563,-2.6776,-2.6779,-2.6687,-2.7128,-2.6575,-2.6069,-2.6069,-2.6188,-2.64,-2.6654,-2.7297,-2.784,-2.8093,-2.8213,-2.8472,-2.8963,-2.8154,-2.7989,-2.8933,-2.9007,-2.8813,-2.8323,-2.8753,-2.8888,-2.8607,-2.9056,-2.9412,-2.9606,-2.9202,-2.9112,-2.928,-2.928,-2.9624,-3.0223,-3.0223,-3.0492,-3.0928,-3.1122,-3.1197,-3.1212,-3.1421,-3.178,-3.2213,-3.2407,-3.308,-3.3918,-3.4144,-3.4622,-3.519,-2.5265,-2.475,-2.4611,-2.5209,-2.4667,-2.4474,-2.5454,-2.5592,-2.5862,-2.659,-2.6691,-2.6691,-2.6691,-2.6691,-2.6691,-2.6691,-2.6691,-2.6691,-2.6691,-2.6962,-2.7317,-2.779,-2.7672,-2.7622,-2.7622,-2.7022,-2.7096,-2.7864,-2.6473,-2.6341,-2.7361,-2.6629,-2.6419,-2.6691,-2.6691,-2.6691,-2.6691,-2.6691,-2.6419,-2.5961,-2.5652,-2.5392,-2.5182,-2.5086,-2.5446,-2.6015,-2.6209,-2.6632,-2.7032,-2.6664,-2.6739,-2.6749,-2.5402,-2.6019,-2.6926,-2.5435,-2.6048,-2.7031,-2.6213,-2.6093,-2.5914,-2.4702,-2.4388,-2.4567,-2.5255,-2.5704,-2.6378,-2.7735,-2.7739,-2.7689,-2.828,-2.7548,-2.6927,-2.724,-2.7209,-2.7374,-2.8046,-2.8483,-2.8871,-2.9183,-2.9097,-2.9146,-2.9577,-2.8873,-2.8738,-2.9547,-2.9606,-2.94,-2.9011,-2.9397,-2.9505,-2.9355,-2.9744,-3.0073,-3.0357,-3.0612,-3.0477,-2.9953,-2.9953,-3.0283,-3.0883,-3.0883,-3.1107,-3.1511,-3.1511,-3.1511,-3.1511,-3.1511,-3.1899,-3.2542,-3.2796,-3.3544,-3.4533,-3.4786,-3.5145,-3.5504,-2.518,-2.5239,-2.5402,-2.5236,-2.4885,-2.4846,-2.5592,-2.571,-2.5947,-2.6607,-2.6691,-2.6691,-2.6691,-2.6759,-2.6793,-2.6793,-2.686,-2.6911,-2.6911,-2.7519,-2.7942,-2.801,-2.8704,-2.9128,-2.9196,-2.8349,-2.8298,-2.9094,-2.7639,-2.7249,-2.7891,-2.7148,-2.6759,-2.6691,-2.6691,-2.6691,-2.6691,-2.6691,-2.6453,-2.6067,-2.6031,-2.5726,-2.5392,-2.5834,-2.6031,-2.612,-2.6556,-2.6469,-2.6264,-2.6897,-2.6887,-2.6471,-2.5816,-2.6093,-2.6557,-2.5899,-2.6153,-2.6701,-2.6701,-2.6288,-2.5854,-2.5794,-2.5824,-2.6004,-2.6482,-2.6632,-2.7051,-2.8412,-2.8204,-2.7945,-2.8566,-2.7523,-2.6816,-2.7555,-2.7465,-2.7834,-2.9361,-2.9551,-2.9769,-3.0498,-3.0043,-2.9711,-2.9744,-2.9786,-2.9774,-2.9834,-2.9789,-2.9786,-2.9786,-2.9846,-3.0043,-3.0492,-3.0672,-3.1046,-3.1585,-3.2243,-3.1958,-3.0687,-3.0687,-3.1046,-3.1675,-3.1555,-3.154,-3.1585,-3.1525,-3.154,-3.1585,-3.1585,-3.2019,-3.2751,-3.335,-3.3978,-3.4668,-3.5265,-3.5504,-3.5504,-2.6281,-2.5647,-2.5469,-2.6593,-2.5997,-2.5609,-2.6353,-2.6454,-2.6522,-2.6674,-2.6691,-2.6691,-2.6691,-2.7232,-2.7553,-2.7553,-2.8129,-2.8502,-2.8502,-2.8654,-2.8991,-2.9565,-2.977,-3.0125,-3.07,-2.9433,-2.911,-2.9871,-2.8959,-2.8587,-2.8722,-2.7943,-2.7249,-2.6691,-2.6691,-2.6691,-2.6691,-2.6691,-2.6641,-2.6521,-2.6156,-2.6139,-2.635,-2.6103,-2.6227,-2.6573,-2.6657,-2.7012,-2.7389,-2.7293,-2.7293,-2.7167,-2.5976,-2.6422,-2.7255,-2.6572,-2.6866,-2.739,-2.739,-2.7649,-2.7814,-2.73,-2.756,-2.7709,-2.6797,-2.7016,-2.7764,-2.9112,-2.9635,-3.006,-3.0699,-3.0543,-3.0397,-3.0572,-3.0529,-3.0631,-3.0997,-3.1041,-3.1099,-3.1258,-3.0688,-3.0507,-3.1032,-3.1077,-3.1301,-3.1839,-3.1376,-3.1077,-3.1077,-3.1599,-3.145,-3.0537,-3.2033,-3.2677,-3.2273,-3.2961,-3.2871,-3.2078,-3.2078,-3.2422,-3.3036,-3.1974,-3.1795,-3.2243,-3.1735,-3.1795,-3.2273,-3.2273,-3.2991,-3.4099,-3.4234,-3.4681,-3.5295,-3.5444,-3.5504,-3.5504,-2.6482,-2.6246,-2.6292,-2.6898,-2.6518,-2.6251,-2.664,-2.6691,-2.6691,-2.6691,-2.6691,-2.6826,-2.7199,-2.757,-2.7959,-2.8349,-2.8773,-2.8993,-2.8993,-2.9331,-2.9702,-3.0072,-3.0446,-3.0801,-3.119,-3.0448,-3.0226,-3.0632,-2.9144,-2.8619,-2.8976,-2.8197,-2.7401,-2.6691,-2.6691,-2.6691,-2.6691,-2.6691,-2.6691,-2.6674,-2.6436,-2.647,-2.6708,-2.6821,-2.6789,-2.6809,-2.7537,-2.8086,-2.8403,-2.7934,-2.7903,-2.7801,-2.6489,-2.6791,-2.7465,-2.6806,-2.7076,-2.76,-2.76,-2.7869,-2.8124,-2.8068,-2.8338,-2.8323,-2.7315,-2.76,-2.8378,-2.9397,-3.0073,-3.0717,-3.1376,-3.119,-3.1058,-3.1438,-3.119,-3.1058,-3.1438,-3.1511,-3.1511,-3.1511,-3.1466,-3.1734,-3.2378,-3.2437,-3.2617,-3.2961,-3.2662,-3.2303,-3.1989,-3.2617,-3.2512,-3.1495,-3.2781,-3.3335,-3.2976,-3.3634,-3.3784,-3.344,-3.3125,-3.3155,-3.3469,-3.2781,-3.2452,-3.2512,-3.2482,-3.2452,-3.2512,-3.2856,-3.3574,-3.4503,-3.4503,-3.4604,-3.4839,-3.5326,-3.5504,-3.5504,-2.6398,-2.6732,-2.7083,-2.6758,-2.6691,-2.6691,-2.6691,-2.681,-2.6894,-2.6894,-2.6996,-2.7334,-2.7942,-2.8111,-2.8518,-2.9314,-2.9382,-2.9382,-2.9382,-2.9956,-3.0294,-3.0294,-3.0869,-3.119,-3.119,-3.1072,-3.1072,-3.119,-2.9176,-2.8467,-2.8976,-2.8197,-2.7401,-2.6691,-2.6691,-2.6691,-2.6691,-2.6691,-2.6691,-2.6691,-2.6691,-2.6691,-2.6759,-2.7367,-2.73,-2.7046,-2.835,-2.8884,-2.8943,-2.8334,-2.8246,-2.8154,-2.7088,-2.7151,-2.748,-2.6941,-2.7165,-2.76,-2.76,-2.769,-2.7899,-2.8457,-2.8682,-2.8622,-2.8064,-2.8442,-2.9086,-2.9624,-3.0238,-3.0896,-3.1555,-3.1131,-3.0938,-3.1722,-3.1293,-3.1069,-3.1752,-3.1839,-3.1839,-3.1839,-3.2318,-3.2946,-3.3604,-3.3559,-3.3589,-3.3814,-3.3619,-3.3305,-3.2871,-3.3365,-3.3365,-3.2706,-3.344,-3.3784,-3.3664,-3.4354,-3.4683,-3.4668,-3.4098,-3.3844,-3.3829,-3.3604,-3.326,-3.2871,-3.3305,-3.3245,-3.2886,-3.344,-3.4053,-3.4683,-3.4683,-3.4419,-3.4095,-3.4953,-3.5246,-3.5279,-2.6721,-2.6707,-2.6758,-2.6708,-2.6691,-2.6691,-2.6691,-2.7249,-2.7655,-2.7655,-2.8264,-2.8739,-2.884,-2.9414,-3.0091,-3.0835,-3.0886,-3.0886,-3.0886,-3.0987,-3.1055,-3.1055,-3.114,-3.119,-3.119,-3.0581,-3.0565,-3.119,-3.026,-2.9516,-2.8976,-2.8197,-2.7401,-2.6691,-2.6691,-2.6691,-2.6691,-2.6691,-2.6691,-2.6691,-2.6691,-2.6691,-2.6708,-2.681,-2.7182,-2.7672,-2.7891,-2.815,-2.8313,-2.7746,-2.7622,-2.7695,-2.752,-2.7525,-2.7585,-2.748,-2.7525,-2.76,-2.76,-2.8034,-2.8487,-2.8577,-2.9026,-2.9457,-2.9352,-2.9789,-3.0268,-3.0357,-3.0883,-3.157,-3.2228,-3.2288,-3.2437,-3.311,-3.3124,-3.3093,-3.32,-3.323,-3.323,-3.323,-3.3305,-3.3619,-3.4309,-3.3829,-3.3978,-3.5145,-3.4158,-3.3709,-3.4219,-3.4324,-3.4038,-3.338,-3.4577,-3.4951,-3.4384,-3.5026,-3.537,-3.537,-3.5265,-3.5235,-3.519,-3.4023,-3.3754,-3.4219,-3.3709,-3.3769,-3.4249,-3.4339,-3.4741,-3.537,-3.537,-3.4798,-3.4027,-3.4143,-3.4211,-3.4312,-2.6791,-2.6691,-2.6691,-2.6691,-2.6691,-2.6691,-2.6691,-2.7317,-2.7807,-2.7807,-2.8501,-2.9162,-2.9567,-3.0277,-3.0852,-3.1157,-3.119,-3.119,-3.119,-3.119,-3.119,-3.119,-3.119,-3.119,-3.119,-3.0886,-3.0869,-3.119,-3.0463,-2.9719,-2.8993,-2.8636,-2.8061,-2.73,-2.6877,-2.6928,-2.73,-2.686,-2.6691,-2.6725,-2.7165,-2.7063,-2.6776,-2.7673,-2.7638,-2.7248,-2.777,-2.8379,-2.8815,-2.821,-2.7847,-2.76,-2.76,-2.76,-2.76,-2.76,-2.76,-2.766,-2.8018,-2.8349,-2.876,-2.9483,-2.989,-3.0193,-3.0582,-3.1165,-3.1405,-3.0657,-3.1316,-3.2138,-3.2437,-3.2811,-3.3155,-3.344,-3.3499,-3.3499,-3.3499,-3.3499,-3.3634,-3.3993,-3.4038,-3.4307,-3.4981,-3.4786,-3.4861,-3.5459,-3.4951,-3.4577,-3.4518,-3.4846,-3.4741,-3.4099,-3.4996,-3.5355,-3.5055,-3.5355,-3.5504,-3.5504,-3.5504,-3.5504,-3.5489,-3.4891,-3.4562,-3.4518,-3.4577,-3.4562,-3.4533,-3.4891,-3.5235,-3.5504,-3.5504,-3.4872,-3.3876,-3.282,-3.3101,-3.4061]},{"header":{"parameterUnit":"m.s-1","parameterCategory":1,"la1":30.6,"la2":28.766,"lo1":-90.7593,"lo2":-88.6598,"dy":0.0162,"dx":0.0183,"nx":116,"ny":114,"refTime":"2024-04-17T12:00:00:Z","depth":0,"parameterNumber":3,"parameterNumberName":"V-component_of_WINDS"},"data":[0.0,0.0,0.0,0.0,0.0,0.0,0.0,0.0,0.0,0.0,0.0,0.0,0.0,0.0,0.0,0.0,0.0,0.0,0.0,0.0,0.0,0.0,0.0,0.0,0.0,0.0,0.0,0.0,0.0,0.0,0.0,0.0,0.0,0.0,0.0,0.0,0.0,0.0,0.0,0.0,0.0,0.0,0.0,0.0,0.0,0.0,0.0,0.0,0.0,0.0,0.0,0.0,0.0,0.0,0.0,0.0,0.0,0.0,0.0,0.0,0.0,0.0,0.0,0.0,0.0,0.0,0.0,0.0,0.0,0.0,0.0,0.0,0.0,0.0,0.0,0.0,0.0,0.0,0.0,0.0,0.0,0.0,0.0,0.0,0.0,0.0,0.0,0.0,0.0,0.0,0.0,0.0,0.0,0.0,0.0,0.0,0.0,0.0,0.0,0.0,0.0,0.0,0.0,0.0,0.0,0.0,0.0,0.0,0.0,0.0,0.0,0.0,0.0,0.0,0.0,0.0,0.0,0.0,0.0,0.0,0.0,0.0,0.0,0.0,0.0,0.0,0.0,0.0,0.0,0.0,0.0,0.0,0.0,0.0,0.0,0.0,0.0,0.0,0.0,0.0,0.0,0.0,0.0,0.0,0.0,0.0,0.0,0.0,0.0,0.0,0.0,0.0,0.0,0.0,0.0,0.0,0.0,0.0,0.0,0.0,0.0,0.0,0.0,0.0,0.0,0.0,0.0,0.0,0.0,0.0,0.0,0.0,0.0,0.0,0.0,0.0,0.0,0.0,0.0,0.0,0.0,0.0,0.0,0.0,0.0,0.0,0.0,0.0,0.0,0.0,0.0,0.0,0.0,0.0,0.0,0.0,0.0,0.0,0.0,0.0,0.0,0.0,0.0,0.0,0.0,0.0,0.0,0.0,0.0,0.0,0.0,0.0,0.0,0.0,0.0,0.0,0.0,0.0,0.0,0.0,0.0,0.0,0.0,0.0,0.0,0.0,0.0,0.0,0.0,0.0,0.0,0.0,0.0,0.0,0.0,0.0,0.0,0.0,0.0,0.0,0.0,0.0,0.0,0.0,0.0,0.0,0.0,0.0,0.0,0.0,0.0,0.0,0.0,0.0,0.0,0.0,0.0,0.0,0.0,0.0,0.0,0.0,0.0,0.0,0.0,0.0,0.0,0.0,0.0,0.0,0.0,0.0,0.0,0.0,0.0,0.0,0.0,0.0,0.0,0.0,0.0,0.0,0.0,0.0,0.0,0.0,0.0,0.0,0.0,0.0,0.0,0.0,0.0,0.0,0.0,0.0,0.0,0.0,0.0,0.0,0.0,0.0,0.0,0.0,0.0,0.0,0.0,0.0,0.0,0.0,0.0,0.0,0.0,0.0,0.0,0.0,0.0,0.0,0.0,0.0,0.0,0.0,0.0,0.0,0.0,0.0,0.0,0.0,0.0,0.0,0.0,0.0,0.0,0.0,0.0,0.0,0.0,0.0,0.0,0.0,0.0,0.0,0.0,0.0,0.0,0.0,0.0,0.0,0.0,0.0,0.0,0.0,0.0,0.0,0.0,0.0,0.0,0.0,0.0,0.0,0.0,0.0,0.0,0.0,0.0,0.0,0.0,0.0,0.0,0.0,0.0,0.0,0.0,0.0,0.0,0.0,0.0,0.0,0.0,0.0,0.0,0.0,0.0,0.0,0.0,0.0,0.0,0.0,0.0,0.0,0.0,0.0,0.0,0.0,0.0,0.0,0.0,0.0,0.0,0.0,0.0,0.0,0.0,0.0,0.0,0.0,0.0,0.0,0.0,0.0,0.0,0.0,0.0,0.0,0.0,0.0,0.0,0.0,0.0,0.0,0.0,0.0,0.0,0.0,0.0,0.0,0.0,0.0,0.0,0.0,0.0,0.0,0.0,0.0,0.0,0.0,0.0,0.0,0.0,0.0,0.0,0.0,0.0,0.0,0.0,0.0,0.0,0.0,0.0,0.0,0.0,0.0,0.0,0.0,0.0,0.0,0.0,0.0,0.0,0.0,0.0,0.0,0.0,0.0,0.0,0.0,0.0,0.0,0.0,0.0,0.0,0.0,0.0,0.0,0.0,0.0,0.0,0.0,0.0,0.0,0.0,0.0,0.0,0.0,0.0,0.0,0.0,0.0,0.0,0.0,0.0,0.0,0.0,0.0,0.0,0.0,0.0,0.0,0.0,0.0,0.0,0.0,0.0,0.0,0.0,0.0,0.0,0.0,0.0,0.0,0.0,0.0,0.0,0.0,0.0,0.0,0.0,0.0,0.0,0.0,0.0,0.0,0.0,0.0,0.0,0.0,0.0,0.0,0.0,0.0,0.0,0.0,0.0,0.0,0.0,0.0,0.0,0.0,0.0,0.0,0.0,0.0,0.0,0.0,0.0,0.0,0.0,0.0,0.0,0.0,0.0,0.0,0.0,0.0,0.0,0.0,0.0,0.0,0.0,0.0,0.0,0.0,0.0,0.0,0.0,0.0,0.0,0.0,0.0,0.0,0.0,0.0,0.0,0.0,0.0,0.0,0.0,0.0,0.0,0.0,0.0,0.0,0.0,0.0,0.0,0.0,0.0,0.0,0.0,0.0,0.0,0.0,0.0,0.0,0.0,0.0,0.0,0.0,0.0,0.0,0.0,0.0,0.0,0.0,0.0,0.0,0.0,0.0,0.0,0.0,0.0,0.0,0.0,0.0,0.0,0.0,0.0,0.0,0.0,0.0,0.0,0.0,0.0,0.0,0.0,0.0,0.0,0.0,0.0,0.0,0.0,0.0,0.0,0.0,0.0,0.0,0.0,0.0,0.0,0.0,0.0,0.0,0.0,0.0,0.0,0.0,0.0,0.0,0.0,0.0,0.0,0.0,0.0,0.0,0.0,0.0,0.0,0.0,0.0,0.0,0.0,0.0,0.0,0.0,0.0,0.0,0.0,0.0,0.0,0.0,0.0,0.0,0.0,0.0,0.0,0.0,0.0,0.0,0.0,0.0,0.0,0.0,0.0,0.0,0.0,0.0,0.0,0.0,0.0,0.0,0.0,0.0,0.0,0.0,0.0,0.0,0.0,0.0,0.0,0.0,0.0,0.0,0.0,0.0,0.0,0.0,0.0,0.0,0.0,0.0,0.0,0.0,0.0,0.0,0.0,0.0,0.0,0.0,0.0,0.0,0.0,0.0,0.0,0.0,0.0,0.0,0.0,0.0,0.0,0.0,0.0,0.0,0.0,0.0,0.0,0.0,0.0,0.0,0.0,0.0,0.0,0.0,0.0,0.0,0.0,0.0,0.0,0.0,0.0,0.0,0.0,0.0,0.0,0.0,0.0,0.0,0.0,0.0,0.0,0.0,0.0,0.0,0.0,0.0,0.0,0.0,0.0,0.0,0.0,0.0,0.0,0.0,0.0,0.0,0.0,0.0,0.0,0.0,0.0,0.0,0.0,0.0,0.0,0.0,0.0,0.0,0.0,0.0,0.0,0.0,0.0,0.0,0.0,0.0,0.0,0.0,0.0,0.0,0.0,0.0,0.0,0.0,0.0,0.0,0.0,0.0,0.0,0.0,0.0,0.0,0.0,0.0,0.0,0.0,0.0,0.0,0.0,0.0,0.0,0.0,0.0,0.0,0.0,0.0,0.0,0.0,0.0,0.0,0.0,0.0,0.0,0.0,0.0,0.0,0.0,0.0,0.0,0.0,0.0,0.0,0.0,0.0,0.0,0.0,0.0,0.0,0.0,0.0,0.0,0.0,0.0,0.0,0.0,0.0,0.0,0.0,0.0,0.0,0.0,0.0,0.0,0.0,0.0,0.0,0.0,0.0,0.0,0.0,0.0,0.0,0.0,0.0,0.0,0.0,0.0,0.0,0.0,0.0,0.0,0.0,0.0,0.0,0.0,0.0,0.0,0.0,0.0,0.0,0.0,0.0,0.0,0.0,0.0,0.0,0.0,0.0,0.0,0.0,0.0,0.0,0.0,0.0,0.0,0.0,0.0,0.0,0.0,0.0,0.0,0.0,0.0,0.0,0.0,0.0,0.0,0.0,0.0,0.0,0.0,0.0,0.0,0.0,0.0,0.0,0.0,0.0,0.0,0.0,0.0,0.0,0.0,0.0,0.0,0.0,0.0,0.0,0.0,0.0,0.0,0.0,0.0,0.0,0.0,0.0,0.0,0.0,0.0,0.0,0.0,0.0,0.0,0.0,0.0,0.0,0.0,0.0,0.0,0.0,0.0,0.0,0.0,0.0,0.0,0.0,0.0,0.0,0.0,0.0,0.0,0.0,0.0,0.0,0.0,0.0,0.0,0.0,0.0,0.0,0.0,0.0,0.0,0.0,0.0,0.0,0.0,0.0,0.0,0.0,0.0,0.0,0.0,0.0,0.0,0.0,0.0,0.0,0.0,0.0,0.0,0.0,0.0,0.0,0.0,0.0,0.0,0.0,0.0,0.0,0.0,0.0,0.0,0.0,0.0,0.0,0.0,0.0,0.0,0.0,0.0,0.0,0.0,0.0,0.0,0.0,0.0,0.0,0.0,0.0,0.0,0.0,0.0,0.0,0.0,0.0,0.0,0.0,0.0,0.0,0.0,0.0,0.0,0.0,0.0,0.0,0.0,0.0,0.0,0.0,0.0,0.0,0.0,0.0,0.0,0.0,0.0,0.0,0.0,0.0,0.0,0.0,0.0,0.0,0.0,0.0,0.0,0.0,0.0,0.0,0.0,0.0,0.0,0.0,0.0,0.0,0.0,0.0,0.0,0.0,0.0,0.0,0.0,0.0,0.0,0.0,0.0,0.0,0.0,0.0,0.0,0.0,0.0,0.0,0.0,0.0,0.0,0.0,0.0,0.0,0.0,0.0,0.0,0.0,0.0,0.0,0.0,0.0,0.0,0.0,0.0,0.0,0.0,0.0,0.0,0.0,0.0,0.0,0.0,0.0,0.0,0.0,0.0,0.0,0.0,0.0,0.0,0.0,0.0,0.0,0.0,0.0,0.0,0.0,0.0,0.0,0.0,0.0,0.0,0.0,0.0,0.0,0.0,0.0,0.0,0.0,0.0,0.0,0.0,0.0,0.0,0.0,0.0,0.0,0.0,0.0,0.0,0.0,0.0,0.0,0.0,0.0,0.0,0.0,0.0,0.0,0.0,0.0,0.0,0.0,0.0,0.0,0.0,0.0,0.0,0.0,0.0,0.0,0.0,0.0,0.0,0.0,0.0,0.0,0.0,0.0,0.0,0.0,0.0,0.0,0.0,0.0,0.0,0.0,0.0,0.0,0.0,0.0,0.0,0.0,0.0,0.0,0.0,0.0,0.0,0.0,0.0,0.0,0.0,0.0,0.0,0.0,0.0,0.0,0.0,0.0,0.0,0.0,0.0,0.0,0.0,0.0,0.0,0.0,0.0,0.0,0.0,0.0,0.0,0.0,0.0,0.0,0.0,0.0,0.0,0.0,0.0,0.0,0.0,0.0,0.0,0.0,0.0,0.0,0.0,0.0,0.0,0.0,0.0,0.0,0.0,0.0,0.0,0.0,0.0,0.0,0.0,0.0,0.0,0.0,0.0,0.0,0.0,0.0,0.0,0.0,0.0,0.0,0.0,0.0,0.0,0.0,0.0,0.0,0.0,0.0,0.0,0.0,0.0,0.0,0.0,0.0,0.0,0.0,0.0,0.0,0.0,0.0,0.0,0.0,0.0,0.0,0.0,0.0,0.0,0.0,0.0,0.0,0.0,0.0,0.0,0.0,0.0,0.0,0.0,0.0,0.0,0.0,0.0,0.0,0.0,0.0,0.0,0.0,0.0,0.0,0.0,0.0,0.0,0.0,0.0,0.0,0.0,0.0,0.0,0.0,0.0,0.0,0.0,0.0,0.0,0.0,0.0,0.0,0.0,0.0,0.0,0.0,0.0,0.0,0.0,0.0,0.0,0.0,0.0,0.0,0.0,0.0,0.0,0.0,0.0,0.0,0.0,0.0,0.0,0.0,0.0,0.0,0.0,0.0,0.0,0.0,0.0,0.0,0.0,0.0,0.0,0.0,0.0,0.0,0.0,0.0,0.0,0.0,0.0,0.0,0.0,0.0,0.0,0.0,0.0,0.0,0.9716,0.0,0.0,0.0,0.0,0.0,0.0,0.0,0.0,0.0,0.0,0.0,0.0,0.0,0.0,0.0,0.0,0.0,0.0,0.0,0.0,0.0,0.0,0.0,0.0,1.1544,1.0792,1.2003,1.0635,1.0543,1.2545,1.2669,0.0,0.0,0.0,0.0,1.4493,1.4301,1.4156,1.4069,1.4726,1.5443,1.6231,1.7553,1.8107,1.7982,0.0,0.0,0.0,0.0,0.0,0.0,0.0,0.0,0.0,0.0,0.0,0.0,0.0,0.0,0.0,0.0,0.0,0.0,0.0,0.0,0.0,0.0,0.0,0.0,0.0,0.0,0.0,0.0,0.0,0.0,0.0,0.0,0.0,0.0,0.0,0.0,0.0,0.0,0.0,0.0,0.0,0.0,0.0,0.0,0.0,0.0,0.0,0.0,0.0,0.0,0.0,0.0,0.0,0.0,0.0,0.0,0.0,0.0,0.0,0.0,0.0,0.0,0.0,0.0,0.0,0.0,0.0,0.0,0.0,0.0,0.0,0.9432,0.0,0.0,0.0,0.0,0.0,0.0,0.0,0.0,0.0,0.0,0.0,0.0,0.0,0.0,0.0,0.0,0.0,0.0,0.0,0.0,0.0,1.1636,1.2058,1.0415,0.9911,1.1503,1.0204,1.0245,1.2484,1.2792,1.3238,1.4053,1.4218,1.4237,1.409,1.3859,1.3756,1.3735,1.4745,1.6065,1.7675,1.9354,1.9398,1.8125,1.8911,0.0,0.0,0.0,0.0,0.0,0.0,0.0,0.0,0.0,0.0,0.0,0.0,0.0,0.0,0.0,0.0,0.0,0.0,0.0,0.0,0.0,0.0,0.0,0.0,0.0,0.0,0.0,0.0,0.0,0.0,0.0,0.0,0.0,0.0,0.0,0.0,0.0,0.0,0.0,0.0,0.0,0.0,0.0,0.0,0.0,0.0,0.0,0.0,0.0,0.0,0.0,0.0,0.0,0.0,0.0,0.0,0.0,0.0,0.0,0.0,0.0,0.0,0.0,0.9682,1.0043,0.9879,0.976,0.9692,0.9604,0.908,0.8498,0.8085,0.0,0.0,0.0,0.0,0.0,0.0,0.0,0.0,0.0,0.0,0.0,0.0,0.0,0.0,0.0,0.0,0.0,0.0,0.0,0.0,0.9782,1.1875,0.9426,0.8221,0.9719,0.8478,0.8291,0.9901,1.0758,1.1576,1.2388,1.3091,1.3128,1.2425,1.2118,1.2329,1.3112,1.5202,1.7042,1.8628,1.9511,1.9825,1.9629,2.0105,2.0575,2.0897,0.0,0.0,0.0,0.0,0.0,0.0,0.0,0.0,0.0,0.0,0.0,0.0,0.0,0.0,0.0,0.0,0.0,0.0,0.0,0.0,0.0,0.0,0.0,0.0,0.0,0.0,0.0,0.0,0.0,0.0,0.0,0.0,0.0,0.0,0.0,0.0,0.0,0.0,0.0,0.0,0.0,0.7506,0.8216,0.0,0.0,0.0,0.0,0.0,0.0,0.0,0.0,0.0,0.0,0.0,0.0,0.0,0.8573,0.9301,0.9732,0.9957,0.9966,1.0172,1.0514,1.0981,1.0449,1.0484,1.09,1.0147,0.0,0.8891,0.9562,0.0,0.0,0.0,0.0,0.0,0.0,0.0,0.0,0.0,0.0,0.0,0.0,0.0,0.0,0.0,0.0,0.0,0.0,0.0,0.0,0.0,1.0018,1.0084,1.1313,1.2269,1.2611,1.2124,1.3274,1.3425,1.2163,1.2448,1.2467,1.2113,1.1855,1.2574,1.4358,1.7199,1.8982,1.9782,2.1052,2.1651,2.1651,2.1835,2.1452,2.0607,1.9489,0.0,0.0,0.0,0.0,0.0,0.0,0.0,0.0,0.0,0.0,0.0,0.0,0.0,0.0,0.0,0.0,0.0,0.0,0.0,0.0,0.0,0.0,0.0,0.0,0.0,0.0,0.0,0.0,0.0,0.0,0.0,0.0,0.0,0.0,0.0,0.0,0.0,0.0,0.0,0.8175,0.8393,0.8654,0.872,0.8467,0.0,0.0,0.0,0.0,0.0,0.0,0.0,0.0,0.0,0.7918,0.8645,0.918,0.9489,1.0217,1.0595,1.0595,1.0893,1.1162,1.1419,1.1501,1.1684,1.1906,1.1555,1.1244,1.0934,1.043,1.0264,1.0336,0.0,0.0,0.0,0.0,1.09,1.166,0.0,0.0,0.0,0.0,0.0,0.0,0.0,0.0,0.0,0.0,0.0,0.0,1.0351,1.1147,1.2211,1.3535,1.5417,1.5714,1.3782,1.4797,1.4244,1.1553,1.1635,1.1663,1.1494,1.2144,1.3865,1.6686,1.958,2.1242,2.1777,2.3033,2.3721,2.3905,2.3483,2.2483,2.1041,2.0183,1.9219,1.8188,0.0,0.0,0.0,0.0,0.0,0.0,0.0,0.0,0.0,0.0,0.0,0.0,0.0,0.0,0.0,0.0,0.0,0.0,0.0,0.0,0.0,0.0,0.0,0.0,0.0,0.0,0.0,0.0,0.0,0.0,0.0,0.0,0.0,0.0,0.0,0.0,0.0,0.8701,0.8837,0.893,0.9077,0.8901,0.0,0.0,0.0,0.0,0.0,0.0,0.7949,0.8818,0.9168,0.8824,0.9542,0.9946,0.9965,1.0814,1.1229,1.1229,1.1712,1.2007,1.2165,1.2476,1.2695,1.2816,1.2673,1.2586,1.2523,1.1379,1.0843,1.0737,1.0915,1.083,1.0647,1.099,1.1508,1.2123,0.0,0.0,0.0,0.0,0.0,0.0,0.0,0.0,0.0,0.0,0.0,1.0269,1.2393,1.2518,1.3309,1.5475,1.5263,1.4289,1.2599,1.2742,1.1919,0.9721,1.0363,1.0463,0.9827,1.28,1.625,2.016,2.198,2.3648,2.5154,2.5246,2.5686,2.6345,2.4814,2.3906,2.3313,2.0134,1.9381,2.005,1.6675,0.0,0.0,0.0,0.0,0.0,0.0,0.0,0.0,0.0,0.0,0.0,0.0,0.0,0.0,0.0,0.0,0.0,0.0,0.0,0.0,0.0,0.0,0.0,0.0,0.0,0.0,0.0,0.0,0.0,0.0,0.0,0.0,0.0,0.0,0.0,0.0,0.0,0.0,0.8958,0.9382,0.0,0.0,0.0,0.0,0.9437,0.9513,0.9708,1.0126,1.0205,1.04,1.0753,1.0811,1.1056,1.149,1.1914,1.2135,1.2145,1.2607,1.313,1.3682,1.313,1.3192,1.3705,1.313,1.2885,1.2816,1.1932,1.1773,1.2067,1.1622,1.1675,1.2027,1.2166,1.2557,1.3111,0.0,0.0,0.0,0.0,0.0,1.2609,1.265,1.211,1.126,1.0153,1.1305,1.2516,1.3306,1.5733,1.7484,1.7894,1.9423,1.8927,1.5525,1.5003,1.3883,1.1786,1.1147,1.1443,1.2756,1.5931,1.8533,2.0453,2.2685,2.4061,2.464,2.464,2.4777,2.5034,2.4465,2.4123,2.3906,2.219,2.0642,1.922,1.7765,1.6377,0.0,0.0,0.0,0.0,0.0,0.0,0.0,0.0,0.0,0.0,0.0,0.0,0.0,0.0,0.0,0.0,0.0,0.0,0.0,0.0,0.0,0.0,0.0,0.0,0.0,0.0,0.0,0.0,0.0,0.0,0.0,0.0,0.0,0.0,0.0,0.0,0.0,1.1085,1.1154,0.0,1.1044,1.0682,1.0322,1.0068,1.0566,1.0841,1.0693,1.0978,1.1193,1.1349,1.1611,1.1814,1.1992,1.2432,1.2646,1.2646,1.2827,1.3017,1.3224,1.3396,1.36,1.3802,1.3576,1.3481,1.3413,1.2718,1.2334,1.2168,1.1737,1.1652,1.1857,1.2562,1.3203,1.3875,0.0,0.0,0.0,0.0,0.0,1.2697,1.2738,1.2407,1.1811,1.0807,1.2711,1.4517,1.5419,1.8438,2.0437,2.0539,2.1379,2.023,1.6338,1.5261,1.3759,1.1414,1.1562,1.3081,1.6059,1.8463,2.0372,2.174,2.3676,2.474,2.5016,2.5016,2.5309,2.5805,2.5254,2.5162,2.5364,2.4557,2.2591,1.9919,1.8768,1.703,1.5001,0.0,0.0,0.0,0.0,0.0,0.0,0.0,0.0,0.0,0.0,0.0,0.0,0.0,0.0,0.0,0.0,0.0,0.0,0.0,0.0,0.0,0.0,0.0,0.0,0.0,0.0,0.0,0.0,0.0,0.0,0.0,0.0,0.0,0.0,0.0,1.122,1.2675,1.2581,1.2379,1.2277,1.1778,1.1294,1.0968,1.1486,1.1751,1.1582,1.1868,1.2034,1.2034,1.2295,1.2451,1.2451,1.2734,1.2905,1.2905,1.2905,1.2905,1.2905,1.331,1.3411,1.3247,1.3418,1.34,1.3211,1.2984,1.2715,1.2422,1.2142,1.2034,1.2145,1.3031,1.3747,1.4449,0.0,0.0,0.0,0.0,0.0,1.3495,1.3495,1.2773,1.2371,1.281,1.4076,1.6,1.8773,2.0382,2.185,2.3323,2.067,1.7693,1.4757,1.3214,1.1204,0.8512,1.1597,1.5264,1.9297,2.0162,2.1777,2.419,2.5007,2.5797,2.6547,2.6583,2.7427,2.8858,2.7299,2.7034,2.7714,2.6924,2.5095,2.2488,1.9625,1.7693,1.6269,0.0,0.0,0.0,0.0,0.0,0.0,0.0,0.0,0.0,0.0,0.0,0.0,0.0,0.0,0.0,0.0,0.0,0.0,0.0,0.0,0.0,0.0,0.0,0.0,0.0,0.0,0.0,0.0,0.0,0.0,0.0,0.0,0.0,1.0247,1.1762,1.3011,1.3512,1.3513,1.341,1.3254,1.2816,1.244,1.224,1.2223,1.2408,1.2886,1.2876,1.2866,1.2866,1.289,1.289,1.289,1.2934,1.2954,1.2954,1.2954,1.2954,1.2954,1.2929,1.2623,1.2186,1.2675,1.2603,1.2173,1.2695,1.2905,1.2905,1.2905,1.2905,1.2968,1.3576,1.419,1.4903,0.0,0.0,0.0,1.1909,1.1471,1.1005,1.1046,1.0784,1.0378,0.9879,1.3288,1.6447,1.8242,2.1046,2.3171,2.4118,2.1481,1.8731,1.6329,1.3883,1.2613,1.2764,1.4185,1.6895,2.1023,2.1896,2.2933,2.419,2.5007,2.5503,2.5742,2.6337,2.684,2.7244,2.6804,2.6722,2.6924,2.6693,2.6167,2.5307,2.3157,2.1409,1.9883,0.0,0.0,0.0,0.0,0.0,0.0,0.0,0.0,0.0,0.0,0.0,0.0,0.0,0.0,0.0,0.0,0.0,0.0,0.0,0.0,0.0,0.0,0.0,0.0,0.0,0.0,0.0,0.0,0.0,0.0,0.0,0.0,1.2734,1.2607,1.3095,1.3873,1.495,1.5052,1.4812,1.4339,1.3778,1.3233,1.2733,1.2705,1.2754,1.2895,1.2299,1.1969,1.1969,1.2384,1.2617,1.2617,1.3683,1.4212,1.4201,1.3755,1.3789,1.4188,1.3296,1.306,1.3319,1.3018,1.2816,1.2705,1.2856,1.2905,1.2905,1.2905,1.2905,1.2968,1.3576,1.4457,1.5407,0.0,0.0,0.0,1.1259,1.0959,1.0598,1.0633,1.0547,1.0363,1.0034,1.3819,1.7068,1.8428,2.1203,2.2987,2.3103,2.067,1.807,1.5537,1.3696,1.367,1.5912,1.7053,1.9112,2.2226,2.3088,2.3731,2.419,2.4677,2.5246,2.5907,2.6374,2.695,2.7611,2.797,2.7923,2.7629,2.7959,2.7904,2.7471,2.6063,2.4103,2.1878,1.9845,1.8189,1.6802,1.5586,1.5231,1.515,1.3884,0.0,0.0,0.0,0.0,0.0,0.0,0.0,0.0,0.0,0.0,0.0,0.0,0.0,0.0,0.0,0.0,0.0,0.0,0.0,0.0,0.0,0.0,0.0,0.0,1.3041,1.4208,1.4688,1.4809,1.5157,1.5936,1.5997,1.5644,1.4766,1.4376,1.3826,1.2968,1.2905,1.2905,1.2905,1.2652,1.2328,1.1868,1.2876,1.3205,1.2774,1.4048,1.4698,1.4698,1.4329,1.4485,1.5012,1.3976,1.3625,0.0,1.3359,1.2929,1.2586,1.2797,1.2905,0.0,0.0,0.0,0.0,0.0,1.4543,1.5601,0.0,0.0,0.0,1.1136,1.1259,1.1254,1.1254,1.1197,1.1301,1.1718,1.4806,1.7408,1.8595,2.0641,2.1698,2.1162,1.8782,1.6194,1.3522,1.2779,1.4204,1.8199,1.9641,2.1236,2.3098,2.3823,2.419,2.419,2.4281,2.5107,2.6602,2.6693,2.7537,2.9023,2.9739,2.9666,2.906,2.9769,2.9702,2.9078,2.8264,2.6102,2.3128,2.0802,1.904,1.7629,1.6276,1.5374,1.4785,1.459,0.0,0.0,0.0,0.0,0.0,0.0,0.0,0.0,0.0,0.0,0.0,0.0,0.0,0.0,0.0,0.0,0.0,0.0,0.0,0.0,0.0,0.0,0.0,0.0,1.387,1.4826,1.6375,1.6538,1.65,1.65,1.65,1.6042,1.4823,1.4766,1.4271,1.3002,1.2968,1.2992,1.2992,0.0,0.0,0.0,0.0,1.4261,1.3258,1.4406,1.4994,1.4994,1.4925,1.5209,1.578,1.4993,1.4491,1.4261,1.3965,1.3347,1.2617,1.3006,1.3145,1.314,1.335,1.3242,1.3037,1.3535,1.4462,1.557,0.0,0.0,0.0,1.0392,1.0396,1.0346,1.0346,1.0338,1.0496,1.095,1.3647,1.5734,1.6369,1.8308,1.9838,2.0501,1.6737,1.3977,1.3129,1.1283,1.3161,1.9751,1.9654,2.0863,2.3896,2.4116,2.419,2.419,2.4842,2.5668,2.6602,2.7255,2.8081,2.9005,2.9152,2.9152,2.9005,2.917,2.9519,2.9898,2.9097,2.7796,2.6223,2.4819,2.317,2.1494,2.0408,1.9917,1.9328,1.6322,1.6038,1.6629,1.4656,1.319,0.0,0.0,0.0,0.0,0.0,0.0,0.0,0.0,0.0,0.0,0.0,0.0,0.0,0.0,0.0,0.0,0.0,0.0,0.0,1.4256,1.4941,1.5757,1.7055,1.681,1.65,1.65,1.65,1.6042,1.4823,1.5141,1.471,1.3017,1.3348,1.3624,1.3624,1.3076,0.0,1.3157,1.4425,1.4773,1.4063,1.5928,1.6885,1.6885,0.0,0.0,1.7638,1.6514,1.6227,1.661,1.6063,1.5748,1.5517,1.4984,1.4617,1.4353,1.3394,1.3164,1.3376,1.3204,1.4145,1.5525,0.0,0.0,0.0,1.0198,1.0179,1.0159,1.0159,1.0156,1.0059,0.9775,1.1913,1.3676,1.4238,1.5114,1.6035,1.6978,1.4574,1.3666,1.5249,1.5832,1.78,2.1593,2.1723,2.2502,2.4153,2.4585,2.4805,2.4805,2.5613,2.641,2.7218,2.7603,2.8227,2.9023,2.9427,2.9592,2.9629,3.0026,3.043,3.0723,2.9922,2.9021,2.8,2.6663,2.5096,2.3482,2.2615,2.1675,2.0522,1.8453,1.7713,1.7408,1.6021,1.476,1.3525,0.0,0.0,0.0,0.0,0.0,0.0,0.0,0.0,0.0,0.0,0.0,0.0,0.0,0.0,1.0751,1.1259,0.0,1.3501,1.4881,1.5425,1.6062,1.724,1.6886,1.65,1.65,1.65,1.6042,1.4823,1.4971,1.4514,1.3017,1.3467,1.3792,1.3792,1.4203,1.4371,1.4166,1.5822,1.6289,1.5468,1.701,1.7674,1.741,1.7327,1.7622,1.8193,1.7479,1.7361,1.7673,1.6993,1.6576,1.635,1.553,1.5257,1.5219,1.3985,1.3769,1.4069,1.3461,1.4514,1.6269,0.0,0.0,0.0,1.0168,1.0061,1.001,1.0176,1.0191,0.9936,0.9224,1.0576,1.1797,1.2275,1.2121,1.2106,1.2362,1.2566,1.3886,1.6782,2.0111,2.2318,2.3106,2.3812,2.419,2.419,2.4842,2.5172,2.5172,2.597,2.6778,2.7567,2.7732,2.8227,2.9023,2.9684,3.0063,3.0228,3.0723,3.1121,3.1323,3.0356,2.9621,2.8929,2.739,2.5854,2.4406,2.3661,2.2109,2.0339,1.9937,1.8816,1.751,1.7045,1.6562,1.5621,1.2888,1.3075,0.0,0.0,0.0,0.0,0.0,0.0,0.0,0.0,0.0,1.1323,1.139,1.128,1.1386,1.2162,1.3059,1.4139,1.5475,1.5979,1.6497,1.7436,1.7049,1.6626,1.6513,1.65,1.6064,1.4971,1.488,1.4422,1.3344,1.3695,1.4069,1.4285,1.5649,1.6137,1.5556,1.7371,1.789,1.6913,1.7877,1.8141,1.7714,1.8154,1.8417,1.8506,1.8348,1.8327,1.839,1.7786,1.7338,1.6948,1.6051,1.5802,1.5892,1.4713,1.4521,1.4805,1.3945,1.5117,1.7168,0.0,0.0,0.0,0.0,0.0,0.9303,1.0078,1.0191,1.0302,1.0614,1.0803,1.0849,1.0688,1.0591,0.9783,0.7918,1.1098,1.3544,1.4359,1.7719,2.0848,2.3521,2.3999,2.419,2.419,2.4281,2.4318,2.4318,2.5136,2.5962,2.6759,2.7475,2.8227,2.9005,2.9097,2.9537,3.0173,2.9537,3.0099,3.1268,2.9739,2.9119,2.8929,2.739,2.5854,2.4406,2.3661,2.1961,1.9948,1.9264,1.8853,1.8507,1.7803,1.7549,1.7054,1.4814,1.3608,1.2545,1.0529,0.8892,0.8324,1.0728,1.0727,1.0612,0.0,0.0,1.3411,1.2892,1.3005,1.3204,1.3318,1.4715,1.6063,1.6723,1.7447,1.7965,1.8091,1.7639,1.7099,1.655,1.65,1.6238,1.5565,1.5499,1.5231,1.4548,1.4571,1.505,1.6068,1.6278,1.6832,1.7803,1.8545,1.862,1.8045,1.8607,1.8882,1.882,1.8882,1.9158,1.9623,1.9608,1.9608,1.9608,1.9518,1.9399,1.9144,1.7875,1.6988,1.6311,1.5181,1.4971,1.5234,1.4348,1.5587,1.7702,0.0,0.0,0.0,0.0,0.0,0.923,1.0065,1.0204,1.0073,0.9726,0.9209,0.8999,0.9316,0.8872,0.7986,0.659,0.8942,1.1777,1.4779,1.727,2.0213,2.3832,2.4132,2.419,2.419,2.4658,2.4897,2.4897,2.5695,2.6502,2.731,2.764,2.8227,2.9005,2.9005,2.9702,3.087,3.054,3.1054,3.2008,3.0852,2.9629,2.8284,2.669,2.4644,2.2448,2.1491,1.9793,0.0,1.7177,1.6637,1.6418,1.7137,1.6278,1.495,1.4596,1.3053,1.1398,1.111,1.1242,0.0,0.0,1.3433,1.3895,1.4885,1.4852,1.4673,1.4936,1.4196,1.383,1.4879,1.466,1.4816,0.0,1.635,1.6436,1.7068,1.6987,1.6785,1.6525,1.5957,1.5443,1.5157,1.509,1.4971,1.4732,1.499,1.5669,1.686,1.7557,1.8153,1.8657,1.9196,1.9371,1.9133,1.9359,1.9309,1.9008,1.9309,1.9409,1.9334,1.966,1.9987,2.0327,2.0327,2.048,2.0594,1.9103,1.8156,1.7553,1.6376,1.5869,1.5743,1.5079,1.6287,1.8239,0.0,0.0,0.0,0.0,0.0,0.9249,1.0071,1.0206,0.9958,0.9249,0.8199,0.7556,0.7593,0.7034,0.6411,0.5818,0.7646,1.045,1.4326,1.679,1.9698,2.3251,2.3693,2.3941,2.4056,2.4711,2.5032,2.4943,2.5829,2.6576,2.7137,2.7365,2.7897,2.8675,2.8675,2.9567,3.1048,3.0834,3.1201,3.1849,3.0815,2.917,2.7143,2.5344,2.2765,1.9991,1.9157,1.7566,1.5707,1.4675,1.4336,1.4468,1.5279,1.4654,1.3681,1.3811,1.2223,1.0629,1.1542,0.0,0.0,1.4536,1.522,1.5832,1.6326,1.5834,1.5411,1.5985,1.4991,1.4392,1.5669,1.4943,1.4571,1.5984,1.5811,1.5695,1.63,1.6449,1.6365,1.6099,1.5374,1.4747,1.4377,1.4281,1.4575,1.5383,1.5472,1.6155,1.769,1.8549,1.907,1.9208,1.961,1.9874,2.0037,2.0037,1.9849,1.9484,2.0012,1.9999,1.9497,2.0024,2.0577,2.1131,2.0981,2.1232,2.1581,1.9819,1.894,1.8543,1.7205,1.6533,1.6251,1.6025,1.7207,1.8931,0.0,0.0,0.0,0.0,0.0,0.919,1.0075,1.0191,1.0175,1.0063,0.8619,0.6956,0.5286,0.5031,0.4967,0.4948,0.784,1.0249,1.1629,1.5732,1.9089,2.1292,2.2455,2.3259,2.3714,2.4062,2.4091,2.375,2.4886,2.5448,2.5485,2.6264,2.7071,2.7842,2.7842,2.8723,3.0191,2.939,2.9537,3.0136,2.8539,2.7012,2.542,2.3163,2.0235,1.7329,1.7284,1.5852,1.3729,1.1996,1.2543,1.3628,1.2076,1.3179,1.4671,1.2741,1.129,1.0517,1.1536,0.0,1.1021,1.3898,1.4376,1.4548,1.599,1.5935,1.5541,1.5373,1.5295,1.5217,1.5142,1.6132,1.6804,1.6277,1.6766,1.7027,1.649,1.6395,1.6035,1.5064,1.4928,1.4463,0.0,1.3124,1.4244,1.709,1.6174,1.6511,1.8809,1.897,1.9233,1.9761,1.9798,2.0075,2.0666,2.0666,2.0654,2.0641,2.1207,2.1182,2.0666,2.1207,2.1744,2.2234,2.1694,2.1782,2.2118,1.997,1.9101,1.891,1.7326,1.6697,1.6736,1.7168,1.8415,1.9868,0.0,0.0,0.0,0.0,0.0,0.0,0.9956,1.0078,0.9943,0.9385,0.7815,0.0,0.0,0.0,0.0,0.0,0.5847,0.7543,1.0105,1.3192,1.5934,1.8201,2.0801,2.2282,2.2438,2.3061,2.361,2.4026,2.4426,2.4879,2.5411,2.5686,2.6531,2.7798,2.7798,2.8686,3.0155,2.9335,2.9028,2.8937,2.7378,2.5536,2.3428,2.0576,1.7999,1.5571,0.0,1.1234,1.0488,0.9413,0.9232,0.9564,1.0203,1.0239,0.9881,0.9043,1.0209,1.1631,0.0,0.0,1.4074,1.492,1.5622,1.6317,1.7156,1.6589,1.5907,1.6127,1.5131,1.4283,1.4404,1.3827,1.3487,1.3994,1.4324,1.4683,1.52,1.5353,1.5538,1.5923,1.4632,0.0,0.0,0.0,0.0,1.5958,1.5994,1.6786,1.8704,1.9168,1.9527,1.9785,2.0526,2.0867,2.0691,2.1056,2.1232,2.1245,2.1393,2.1421,2.1245,2.1405,2.1794,2.2297,2.2121,2.2347,2.2688,2.085,1.9927,1.9474,1.8096,1.7412,1.7217,1.7646,1.8882,2.0364,0.0,0.0,0.0,0.0,0.0,0.0,0.0,0.0,0.0,0.0,0.0,0.0,0.0,0.0,0.0,0.0,0.0,0.5865,0.8534,1.0471,1.2579,1.4958,1.7369,1.8734,1.8903,2.0051,2.0834,2.1242,2.199,2.263,2.3152,2.3425,2.4296,2.5676,2.6038,2.7045,2.8448,2.7803,2.7268,2.6723,2.515,2.3209,2.0918,1.7979,1.5656,0.0,1.0017,0.8377,0.7733,0.7109,0.7196,0.7661,0.8247,0.7931,0.7565,0.8637,1.0321,1.1934,0.0,1.4205,1.6136,1.6265,1.6908,1.7508,1.761,1.6725,1.5858,1.5715,1.4846,1.3988,1.3544,1.2866,1.2586,1.3259,1.3382,1.3848,1.5131,1.5389,1.569,1.6416,1.5118,1.4458,0.0,0.0,0.0,1.5702,1.6034,1.697,1.8704,1.9366,1.9812,2.0112,2.1004,2.1446,2.1282,2.1606,2.1882,2.2071,2.1882,2.1882,2.2071,2.2071,2.2058,2.2046,2.2406,2.2556,2.2455,2.1463,2.0685,2.008,1.9249,1.8392,1.7703,1.8586,1.9628,2.059,0.0,0.0,0.0,0.0,0.0,0.0,0.0,0.0,0.0,0.0,0.0,0.0,0.0,0.0,0.0,0.0,0.0,0.0,0.6858,0.7806,0.9307,1.1543,1.2474,1.3139,1.3574,1.5323,1.6079,1.5801,1.7857,1.8848,1.8866,1.9568,2.0498,2.1631,2.2586,2.384,2.5151,2.4806,2.427,2.3539,2.1868,2.0042,1.8009,1.5488,1.3226,1.1133,0.92,0.7306,0.5667,0.5272,0.6506,0.7943,0.6498,0.6664,0.799,1.1224,1.16,1.168,1.4899,1.633,1.706,1.7717,1.8044,1.7989,1.7195,1.6313,1.5318,1.4146,1.4347,1.4219,0.0,0.0,1.3908,1.3907,1.3935,1.4521,1.6134,1.6418,1.6481,0.0,0.0,0.0,0.0,0.0,0.0,1.6315,0.0,1.7076,1.8921,1.9571,2.0136,2.0717,2.1295,2.1807,2.2309,2.2334,2.2594,2.3095,2.2581,2.2594,2.3108,2.3108,2.2531,2.1631,2.2656,2.2506,2.16,2.1807,2.1396,2.0655,2.0623,1.9595,1.8337,1.9977,2.0623,2.0655,0.0,0.0,0.0,0.0,0.0,0.0,0.0,0.0,0.0,0.0,0.0,0.0,0.0,0.0,0.0,0.0,0.0,0.0,0.5132,0.713,0.8243,0.8102,1.0662,1.2126,1.2138,1.3161,1.3995,1.4556,1.5114,1.5389,1.5449,1.5634,1.6837,1.884,1.9092,2.0344,2.2225,2.153,2.1021,2.0417,1.8155,1.7102,1.6494,1.3411,1.1769,1.0746,0.8079,0.6668,0.603,0.5779,0.6738,0.0,0.9167,1.0151,1.0911,1.0596,1.2477,1.4595,1.4393,1.6343,1.8351,1.7984,1.8044,1.7778,1.6194,1.5475,1.4612,1.2881,1.2638,1.2229,0.0,0.0,0.0,1.2585,1.3101,0.0,1.5582,1.6569,0.0,1.7716,0.0,1.6672,1.681,1.621,0.0,0.0,1.6927,1.777,1.9022,2.0201,2.0994,2.1292,2.2209,2.2556,2.2309,2.2694,2.2957,2.3108,2.2957,2.297,2.3108,2.3108,2.2945,2.2706,2.2982,2.2945,2.2647,2.2109,2.1784,2.1491,2.0846,2.0333,1.9977,2.043,2.1005,2.1553,0.0,0.0,0.0,0.0,0.0,0.0,0.0,0.0,0.0,0.0,0.0,0.0,0.0,0.0,0.0,0.0,0.0,0.0,0.0,0.5747,0.6296,0.5719,0.7817,0.8787,0.8363,1.003,1.0811,1.0598,1.2006,1.2549,1.2285,1.3023,1.4158,1.5604,1.6445,1.7675,1.9076,1.883,1.8448,0.0,0.0,1.4689,1.4116,1.1455,1.0283,0.979,0.7533,0.6441,0.6278,0.0,0.0,0.9525,1.2225,1.338,1.3866,1.4441,0.0,1.7114,1.7173,1.8434,1.957,1.8901,1.8277,1.7385,1.5575,1.4759,1.3854,1.2026,1.195,0.0,1.0173,0.0,0.0,0.0,0.0,0.0,1.6134,1.737,1.8304,0.0,1.8183,0.0,1.8221,1.7296,1.6866,0.0,1.7701,1.8278,1.9189,2.0567,2.1605,2.218,2.302,2.3333,2.305,2.3321,2.3358,2.3108,2.3108,2.3108,2.3108,2.3108,2.2844,2.2406,0.0,2.2832,2.2389,2.2402,2.223,2.1877,2.1741,2.1259,2.0687,2.1416,2.1772,2.1939,0.0,0.0,0.0,0.0,0.0,0.0,0.0,0.0,0.0,0.0,0.5532,0.4529,0.0,0.0,0.0,0.0,0.0,0.0,0.0,0.0,0.4498,0.4567,0.5205,0.5227,0.4501,0.6931,0.7509,0.612,0.8882,0.9918,0.9324,1.0802,1.1741,1.2258,1.4042,1.5228,1.5881,1.6281,1.6131,1.5462,1.3829,1.2626,1.1604,0.0,0.9027,0.8622,0.7263,0.6354,0.6369,0.0,1.091,1.126,1.5151,1.6278,1.6679,1.9405,1.9573,1.9193,2.0592,2.0886,2.0648,1.9889,1.8622,1.7164,1.5478,1.4348,1.3227,1.1654,0.0,1.1938,1.0669,1.0951,1.1761,1.2902,0.0,1.4878,1.6794,1.8254,1.9246,1.9594,1.938,1.9164,1.9121,1.8226,1.7933,1.8636,1.87,1.9004,1.9679,2.1071,2.2297,2.3296,2.3766,2.4004,2.4004,2.4067,2.3778,2.3108,2.3183,2.3183,2.3108,2.3183,2.2694,2.1882,0.0,0.0,2.1995,2.2857,2.2813,2.2234,2.2848,2.2206,2.1101,2.2567,2.2659,2.2168,0.0,0.0,0.0,0.0,0.0,0.0,0.0,0.0,0.0,0.0,0.5169,0.4266,0.0,0.0,0.0,0.0,0.0,0.0,0.0,0.0,0.0,0.5935,0.6239,0.6278,0.6018,0.6401,0.6463,0.6192,0.658,0.6735,0.6661,0.7125,0.8077,0.9439,1.0494,1.1729,1.3022,1.3095,1.3079,1.2807,1.1157,1.059,1.0648,0.9531,0.0,0.0,0.6616,0.5789,0.6098,1.0638,1.1853,1.221,1.6495,1.8405,1.8958,1.8325,1.948,2.0582,1.8759,1.9826,2.1068,1.9517,1.8897,1.8187,1.6435,1.4754,0.0,0.0,1.1759,1.1331,1.0751,1.1546,1.2321,1.2497,0.0,0.0,0.0,0.0,1.9466,0.0,0.0,0.0,0.0,0.0,0.0,0.0,0.0,2.0912,2.1424,2.28,2.3853,2.4474,2.4192,2.4004,2.4004,2.4456,2.4123,2.3108,2.3615,2.3572,2.312,2.3627,2.374,2.3602,2.4211,0.0,2.4217,2.3954,2.3748,2.3605,2.3235,2.2914,2.2689,2.2975,2.3017,2.2976,0.0,0.0,0.0,0.0,0.0,0.0,0.0,0.6522,0.6169,0.5818,0.553,0.5201,0.4807,0.4896,0.4962,0.0,0.0,0.0,0.0,0.0,0.0,0.0,0.6954,0.6998,0.6513,0.7056,0.0,0.0,0.0,0.6742,0.6377,0.0,0.0,0.8581,0.9497,1.0356,1.1123,1.1519,1.1671,1.1562,1.0383,1.0,1.0021,0.0,0.0,0.0,0.0,0.0,0.6152,0.9654,1.0716,1.1548,1.7246,1.9821,2.0416,1.877,2.0015,2.1506,1.9665,2.0318,2.1274,2.0128,1.8923,1.7491,1.542,0.0,0.0,0.0,1.1169,1.1031,1.1021,0.0,0.0,0.0,0.0,0.0,0.0,0.0,0.0,0.0,0.0,0.0,0.0,0.0,0.0,0.0,0.0,2.1789,2.2282,2.3909,2.482,2.4788,2.5121,2.5134,2.4833,2.5096,2.4788,2.3985,2.4261,2.4249,2.3985,2.4261,2.4431,2.4443,2.4675,0.0,2.4393,2.4418,2.4079,2.3547,2.386,2.3622,2.3145,2.3446,2.359,2.3597,0.0,0.0,0.0,0.0,0.0,0.0,0.6403,0.6292,0.6057,0.5368,0.5927,0.6177,0.5594,0.5547,0.5328,0.0,0.0,0.0,0.0,0.0,0.0,0.0,0.0,0.0,0.0,0.0,0.0,0.0,0.0,0.0,0.0,0.0,0.0,0.0,0.0,0.0,0.999,1.0609,1.0859,0.0,0.0,0.0,0.0,0.0,0.0,0.0,0.0,0.0,0.0,0.0,0.9301,1.037,1.6207,1.9059,2.0033,1.8967,2.014,2.1617,2.0828,2.1157,2.147,2.0497,1.8882,1.6953,1.4705,1.333,0.0,0.0,1.1004,1.1108,1.1431,0.0,1.2112,0.0,0.0,0.0,0.0,0.0,0.0,0.0,0.0,0.0,0.0,0.0,0.0,0.0,0.0,0.0,2.3296,2.4649,2.5347,2.5172,2.5921,2.6084,2.5598,2.5724,2.546,2.4788,2.4933,2.4901,2.4788,2.4933,2.4983,2.4996,2.5121,0.0,0.0,2.4872,2.4476,2.3766,2.45,2.4249,2.3521,2.4004,2.4167,2.4167,0.0,0.0,0.0,0.0,0.0,0.0,0.6308,0.6292,0.6038,0.5302,0.5904,0.6366,0.63,0.5778,0.5383,0.0,0.0,0.0,0.0,0.0,0.0,0.0,0.0,0.0,0.0,0.0,0.0,0.0,0.0,0.0,0.0,0.0,0.0,0.0,0.0,0.0,0.0,1.001,0.0,0.0,0.0,0.0,0.0,0.0,0.0,0.0,0.0,0.0,0.0,0.0,0.0,0.9268,1.1616,1.392,1.6074,1.7495,0.0,0.0,2.0578,2.1487,2.1825,1.9675,1.8897,1.8143,1.6227,0.0,0.0,1.2736,1.2119,1.1789,1.2072,1.252,1.3037,0.0,0.0,1.3608,0.0,0.0,0.0,0.0,0.0,0.0,0.0,0.0,0.0,0.0,0.0,0.0,2.5336,2.5031,2.5335,2.6311,2.59,2.5649,2.5598,2.6147,2.585,2.48,2.5297,2.5272,2.4813,2.531,2.5523,2.5548,2.6122,0.0,0.0,2.5782,2.5556,2.5589,2.5014,2.4725,2.4637,2.47,2.4713,2.4713,0.0,0.0,0.0,0.0,0.0,0.0,0.6538,0.6157,0.5938,0.6074,0.6769,0.7235,0.7235,0.6652,0.6234,0.619,0.6631,0.0,0.0,0.0,0.0,0.0,0.0,0.0,0.0,0.0,0.0,0.0,0.0,0.0,0.0,0.0,0.0,0.0,0.0,0.0,0.0,0.0,0.0,0.0,0.0,0.0,0.0,0.0,0.0,0.0,0.0,0.0,0.0,0.0,0.0,0.0,0.7188,0.8712,0.0,0.0,1.5862,1.8406,1.7954,1.9567,2.1067,1.9802,1.8838,1.7706,1.5833,0.0,1.3014,1.234,1.167,1.1349,1.1873,1.2127,1.244,1.29,0.0,0.0,0.0,0.0,0.0,0.0,0.0,0.0,0.0,0.0,0.0,0.0,0.0,0.0,2.6122,2.5946,2.585,2.5971,2.6084,2.6147,2.6147,2.6386,2.6273,2.5812,2.6047,2.6047,2.5812,2.6047,2.6147,2.6172,2.6399,0.0,0.0,2.5971,2.5582,2.4822,2.5529,2.541,2.4825,2.5172,2.5285,2.53,0.0,0.0,0.0,0.0,0.0,0.7286,0.7061,0.6394,0.6025,0.6339,0.6833,0.7241,0.7503,0.6695,0.6459,0.7337,0.7671,0.0,0.0,0.0,0.0,0.0,0.0,0.0,0.0,0.0,0.8675,0.8612,0.8463,0.0,0.0,0.0,0.0,0.0,0.0,0.0,0.0,0.0,0.0,0.0,0.0,0.0,0.0,0.0,0.0,0.0,0.0,0.0,0.0,0.0,0.0,0.0,0.0,0.0,0.0,0.0,1.312,1.6379,1.5855,1.7922,2.0066,1.9467,1.8211,1.6748,0.0,0.0,1.249,1.1929,1.142,1.1241,1.1715,1.1714,1.1902,1.2619,0.0,1.2461,0.0,0.0,0.0,0.0,0.0,0.0,0.0,0.0,0.0,0.0,0.0,0.0,0.0,2.6499,2.6311,2.5862,2.6285,2.6499,2.6499,2.6499,2.6499,2.6499,2.6499,2.6323,2.6021,2.6348,2.6311,2.6034,0.0,0.0,0.0,2.5975,2.5676,2.4874,2.587,2.5992,2.5683,2.6085,2.6242,2.6304,0.0,0.0,0.0,0.0,0.0,0.8637,0.7904,0.7163,0.6436,0.5711,0.5613,0.5948,0.6814,0.5475,0.5756,0.8811,0.8359,0.0,0.0,0.0,0.0,0.0,0.0,0.0,0.0,0.0,0.8824,0.9088,0.9088,0.9361,0.9884,1.0081,0.0,0.0,0.0,0.0,0.0,0.0,0.0,0.0,0.0,0.0,0.0,0.0,0.0,0.0,0.0,0.0,0.0,0.0,0.0,0.0,0.0,0.5533,0.6815,0.8363,1.1199,1.4055,1.5032,1.7122,1.8891,1.8349,1.6856,1.542,0.0,0.0,1.2216,1.187,1.179,1.179,1.1805,1.1523,1.1736,1.3081,1.2567,0.0,0.0,0.0,0.0,0.0,0.0,0.0,0.0,0.0,0.0,0.0,0.0,0.0,0.0,2.6499,2.6499,2.6487,2.6499,2.6499,2.6499,2.6499,2.6499,2.6499,2.6499,2.5921,2.4838,2.5996,2.5862,0.0,0.0,0.0,0.0,2.5904,2.6023,2.6601,2.5871,2.6447,2.769,2.769,2.7793,2.7899,0.0,0.0,0.0,0.0,0.0,0.0,0.7879,0.718,0.6791,0.7075,0.6664,0.6664,0.7488,0.6757,0.702,0.9052,0.8417,0.0,0.0,0.0,0.0,0.0,0.0,0.0,0.0,1.0048,0.9779,0.8621,0.9267,0.9598,0.9624,0.9684,0.9684,0.9624,0.0,0.0,0.0,0.0,0.0,0.0,0.0,0.0,0.0,0.0,0.0,0.0,0.0,0.0,0.0,0.0,0.0,0.0,0.0,0.0,0.0,0.6457,0.8684,1.1168,1.1612,1.3531,1.5228,1.46,1.4413,1.405,1.2709,0.0,1.213,1.1576,1.1648,1.1805,1.1805,1.1523,1.163,1.2592,1.2329,0.0,0.0,0.0,0.0,0.0,0.0,0.0,0.0,0.0,0.0,0.0,0.0,0.0,0.0,2.6499,2.6499,2.6499,2.6499,2.6499,2.6499,2.6499,2.6499,2.6499,2.6499,2.5921,2.4825,2.5996,0.0,0.0,0.0,0.0,0.0,2.5686,2.5752,2.5975,2.616,2.6806,2.7703,2.7703,2.8126,2.8598,0.0,0.0,0.0,0.0,0.0,0.0,0.8403,0.7628,0.731,0.7881,0.6991,0.6664,0.7532,0.7006,0.7215,0.8788,0.892,0.0,0.0,0.0,0.0,0.0,0.0,0.0,0.9399,0.9918,0.9726,0.8772,0.908,0.9435,0.9847,0.9936,1.0082,1.0263,1.0302,0.9824,0.0,0.0,0.0,0.0,0.0,0.0,0.8273,0.0,0.0,0.0,0.0,0.0,0.0,0.0,0.0,0.0,0.0,0.0,0.0,0.0,0.7304,0.8918,0.9577,1.1299,1.2948,1.314,1.2935,1.2548,0.0,0.0,1.1507,1.1211,1.1789,1.2213,1.1689,1.1742,1.1867,1.1894,1.2207,0.0,0.0,0.0,0.0,0.0,0.0,0.0,0.0,0.0,0.0,0.0,0.0,0.0,0.0,2.6373,2.6499,2.6499,2.6782,2.7095,2.7451,2.7129,2.7129,2.7451,2.6816,2.6076,2.5301,2.5891,0.0,0.0,0.0,0.0,0.0,2.5385,2.5548,2.6005,2.6467,2.7288,2.8247,2.8556,2.907,2.9492,0.0,0.0,0.0,0.0,0.0,0.0,0.0,0.8418,0.7964,0.8169,0.6797,0.6122,0.7017,0.6383,0.6523,0.8095,0.9596,0.0,0.0,0.0,0.0,0.0,0.0,0.0,0.8854,0.8928,0.9068,0.9269,0.8686,0.9044,1.0296,1.0596,1.0994,1.1479,1.1786,1.1367,1.0335,0.8864,0.8188,0.8111,0.8183,0.8185,0.0,0.0,0.0,0.0,0.0,0.0,0.0,0.0,0.0,0.0,0.0,0.0,0.0,0.0,0.0,0.0,0.0,1.0201,1.1693,1.3174,1.206,1.0929,1.2265,0.0,0.0,1.095,1.2283,1.2983,1.1676,1.2304,1.259,1.1282,0.0,0.0,0.0,0.0,0.0,0.0,0.0,0.0,0.0,0.0,0.0,0.0,0.0,0.0,0.0,2.6135,2.642,2.6526,2.7319,2.8096,2.8907,2.8182,2.816,2.8833,2.7311,2.6365,2.5933,2.5722,0.0,0.0,0.0,0.0,0.0,2.5021,2.5423,2.6425,2.6752,2.7727,2.9028,2.9966,3.0412,3.0567,0.0,0.0,0.0,0.0,0.0,0.0,0.0,0.0,0.0,0.0,0.7292,0.6566,0.6245,0.6024,0.6337,0.0,0.0,0.0,0.0,0.0,0.0,0.0,0.0,0.0,1.0392,1.1195,1.0405,0.7952,0.8954,0.9376,0.9259,0.9785,1.0444,1.1189,1.1161,1.062,0.974,0.9718,0.9079,0.8175,0.9107,0.9023,0.0,0.0,0.0,0.0,0.7935,0.7637,0.0,0.0,0.0,0.0,0.0,0.0,0.0,0.0,0.7097,0.7129,0.7969,0.0,0.8839,0.9108,0.933,0.9626,0.0,1.0583,0.0,0.0,0.0,1.3879,1.2987,1.4111,1.464,0.0,0.0,0.0,0.0,0.0,0.0,0.0,0.0,0.0,0.0,0.0,0.0,0.0,0.0,0.0,0.0,2.5586,2.5668,2.6785,2.7638,2.8062,2.8019,2.846,2.8283,2.7473,2.7417,2.6412,2.4596,2.5301,0.0,0.0,0.0,0.0,2.4996,2.4838,2.4938,2.53,2.6453,2.7503,2.8552,2.984,3.0705,3.117,0.0,0.0,0.0,0.0,0.0,0.0,0.0,0.0,0.0,0.0,0.7526,0.6774,0.602,0.594,0.6304,0.0,0.0,0.0,0.0,0.0,0.0,0.0,0.0,1.1411,1.1138,1.1375,1.0569,0.8654,0.8799,0.8885,0.8914,0.9243,0.9813,1.0599,1.0518,1.017,0.9651,0.9771,0.9351,0.8634,0.9533,0.0,0.0,0.0,0.0,0.0,0.8339,0.8023,0.0,0.8427,0.8182,0.7704,0.0,0.0,0.0,0.0,0.7776,0.7397,0.7756,0.7756,0.7919,0.8998,0.9187,0.9416,1.0613,0.0,0.0,0.0,0.0,1.3469,1.3609,1.4212,0.0,0.0,0.0,0.0,0.0,0.0,0.0,0.0,0.0,0.0,0.0,0.0,0.0,0.0,0.0,0.0,0.0,2.6104,2.6069,2.6912,2.7464,2.7967,2.8467,2.9226,2.9256,2.8598,2.7741,2.6693,2.5515,2.5082,2.4544,0.0,0.0,0.0,2.4475,2.4797,2.5082,2.5452,2.6958,2.8008,2.8843,2.9973,3.0851,3.1438,0.0,0.0,0.0,0.0,0.0,0.0,0.0,0.0,0.0,0.0,0.0,0.0,0.0,0.0,0.0,0.0,0.0,0.0,0.0,0.0,0.0,0.0,1.1375,1.1635,1.1436,1.0825,1.0245,0.9699,0.8514,0.8205,0.8739,0.8824,0.9268,1.0001,1.0125,1.0098,0.9981,0.9803,0.9561,0.9359,0.9905,0.0,0.0,0.0,0.0,0.0,0.0,0.0,0.0,0.8309,0.8071,0.7728,0.8536,0.0,0.0,0.0,0.0,0.0,0.7941,0.7833,0.8247,1.0356,0.9985,0.9676,1.1878,0.0,0.0,0.0,0.0,0.0,0.0,0.0,0.0,0.0,0.0,0.0,0.0,0.0,0.0,0.0,0.0,0.0,0.0,0.0,0.0,0.0,0.0,0.0,0.0,2.6459,2.6307,2.6715,2.6834,2.7556,2.8929,2.9736,3.0221,3.0345,2.8263,2.7298,2.7298,2.5245,2.4292,2.4298,0.0,0.0,2.3928,2.4883,2.5435,2.5809,2.751,2.857,2.9262,3.0063,3.0866,3.1511,0.0,0.0,0.0,0.0,0.0,0.0,0.0,0.0,0.0,0.0,0.0,0.0,0.0,0.0,0.0,0.0,0.0,0.0,0.0,0.0,0.0,1.1827,1.1869,1.1777,1.1571,1.1517,1.044,0.8301,0.8488,0.836,0.7984,0.8488,0.9184,1.0035,1.0656,1.0913,1.0915,1.1091,1.0821,1.0335,1.0866,0.0,0.0,0.0,0.0,0.0,0.0,0.0,0.0,0.9782,0.9331,0.8618,0.9751,0.0,0.0,0.0,0.0,0.0,0.8551,0.8904,0.9364,0.9817,0.95,0.9664,1.1822,0.0,0.0,0.0,0.0,0.0,0.0,0.0,0.0,0.0,0.0,0.0,0.0,0.0,0.0,0.0,0.0,0.0,0.0,0.0,0.0,0.0,0.0,0.0,0.0,2.4545,2.4184,2.5345,2.5452,2.5937,2.686,2.864,2.9607,2.9729,2.9189,2.8666,2.8054,2.6364,2.5677,2.5752,0.0,2.4622,2.3392,2.525,2.5457,2.4742,2.6806,2.7993,2.8639,2.9438,3.0492,3.1511,0.0,0.0,0.0,0.0,0.0,0.0,0.0,0.0,0.0,0.0,0.0,0.0,0.0,0.0,0.0,0.0,0.0,0.0,0.0,0.0,1.1077,1.1448,1.1326,1.1555,1.2232,1.1463,1.0207,0.8481,0.8296,0.8074,0.7815,0.8499,0.9031,0.9427,0.9766,0.9881,0.9828,1.0212,1.0326,1.0327,0.0,0.0,0.0,0.0,0.0,0.0,0.0,0.0,0.0,0.0,0.9299,0.8729,0.947,0.0,0.0,0.0,0.0,0.0,0.8456,0.8739,0.93,1.0269,1.0012,1.0263,1.3078,1.1827,0.0,0.0,0.0,0.0,0.0,0.0,0.0,0.0,0.0,0.0,0.0,0.0,0.0,0.0,0.0,0.0,0.0,0.0,0.0,0.0,0.0,0.0,0.0,0.0,2.4521,2.5256,2.4896,2.5449,2.6989,2.7853,2.8525,2.9056,2.8559,2.8166,2.7808,2.59,2.5468,2.6196,0.0,2.4381,2.4436,2.5378,2.5646,2.5591,2.657,2.7603,2.8641,2.9694,3.0702,3.1511,0.0,0.0,0.0,0.0,0.0,0.0,0.0,0.0,0.0,0.0,0.0,0.0,0.0,0.0,0.0,0.0,0.0,0.0,0.0,1.0594,1.0976,1.0817,1.0863,1.1417,1.2542,1.1186,0.9951,0.8925,0.8153,0.7773,0.779,0.8547,0.888,0.8863,0.8863,0.886,0.8911,0.921,0.9726,1.0373,0.0,0.0,0.0,0.0,0.0,0.0,0.0,0.0,0.0,0.0,0.0,0.0,0.0,0.0,0.0,0.9465,0.9392,0.8977,0.878,0.8939,0.9441,1.0708,1.0459,1.082,1.4312,1.2359,0.0,0.0,0.0,0.0,0.0,0.0,0.0,0.0,0.0,0.0,0.0,0.0,0.0,0.0,0.0,0.0,0.0,0.0,0.0,0.0,0.0,0.0,0.0,0.0,2.48,2.5133,2.4423,2.4882,2.6735,2.6804,2.7527,2.8831,2.8253,2.7994,2.791,2.5909,2.5598,2.6553,2.4824,2.4574,2.5425,2.5783,2.6149,2.651,2.6695,2.7512,2.8757,3.0028,3.0808,3.1286,0.0,0.0,0.0,0.0,0.0,0.0,0.0,0.0,0.0,0.0,0.0,0.0,0.0,0.0,0.0,0.0,0.0,0.0,0.0,1.1035,1.1188,1.0555,1.1111,1.1588,1.1873,1.0858,0.988,0.9001,0.8122,0.7709,0.7731,0.852,0.884,0.8717,0.8717,0.8976,0.943,0.921,0.9893,1.1085,1.0622,0.0,0.0,0.0,0.0,0.0,0.0,0.0,0.0,0.0,0.0,0.0,0.0,0.0,0.8192,0.9915,1.0351,1.0286,1.0328,1.0533,1.0692,1.0505,1.0186,1.0926,1.4832,1.3318,0.0,1.7349,0.0,0.0,0.0,0.0,0.0,0.0,0.0,0.0,0.0,0.0,0.0,0.0,0.0,0.0,0.0,0.0,0.0,0.0,0.0,0.0,0.0,0.0,0.0,2.435,2.359,2.3616,2.4518,2.52,2.6873,2.9532,2.9478,2.9451,2.9394,2.7813,2.7209,2.7419,2.7112,2.6398,2.5508,2.6864,2.706,2.6563,2.7255,2.7968,2.8757,3.0028,3.0537,3.0672,0.0,0.0,0.0,0.0,0.0,0.0,0.0,0.0,0.0,0.0,0.0,0.0,0.0,0.0,0.0,0.0,0.0,0.0,0.0,1.1815,1.1841,1.0914,1.0681,1.0745,1.1114,1.0083,0.8645,0.6757,0.6803,0.6829,0.6862,0.8042,0.8557,0.8511,0.8511,0.8557,0.8616,0.852,0.9226,1.0367,1.0173,1.0787,0.0,0.0,0.0,0.0,0.0,0.0,0.0,0.0,0.947,0.8685,0.95,0.8883,0.8159,0.9682,0.9987,0.9754,0.9368,0.9753,1.0354,1.0644,1.0298,0.0,0.0,1.3526,1.315,1.7409,1.6522,0.0,0.0,0.0,0.0,0.0,0.0,0.0,0.0,0.0,0.0,0.0,0.0,0.0,0.0,0.0,0.0,0.0,0.0,0.0,0.0,0.0,0.0,2.3036,2.2757,2.3156,2.4292,2.5431,2.6567,2.7676,2.814,2.8573,2.8925,2.7482,2.7329,2.811,2.6715,2.6375,2.6785,2.6878,2.6747,2.6537,2.68,2.706,2.7437,2.9279,3.0178,3.0612,0.0,0.0,0.0,0.0,0.0,0.0,0.0,0.0,0.0,0.0,0.0,0.0,0.0,0.0,0.0,0.0,0.0,0.0,1.1655,1.2282,1.2128,1.0927,1.0834,1.0548,0.9955,0.9449,0.8243,0.632,0.6491,0.6588,0.6604,0.7831,0.8361,0.8299,0.8299,0.8234,0.8095,0.8095,0.8872,1.009,1.009,1.0887,0.0,0.0,0.0,0.0,0.0,0.0,0.0,0.0,1.0064,0.9299,0.9597,0.9177,0.8676,0.9203,0.9636,0.9797,0.9152,0.9501,1.0243,0.0,0.0,0.0,1.4607,1.4124,1.3986,1.7654,1.7153,0.0,0.0,0.0,0.0,0.0,0.0,0.0,0.0,0.0,0.0,0.0,0.0,0.0,0.0,0.0,0.0,0.0,0.0,0.0,0.0,0.0,0.0,0.0,2.2309,2.2836,2.3914,2.5358,2.6008,2.5836,2.7034,2.7839,2.8263,2.728,2.7376,2.8196,2.6736,2.668,2.756,2.706,2.6852,2.6826,2.659,2.6879,2.7597,2.906,3.0118,3.0896,0.0,0.0,0.0,0.0,0.0,0.0,0.0,0.0,1.3134,1.2381,1.1586,0.0,0.0,0.0,0.0,0.0,0.0,0.0,1.1852,1.232,1.1949,1.0469,1.1803,1.1252,0.8388,0.9028,0.9035,0.8278,0.7549,0.7187,0.7224,0.8017,0.8286,0.8095,0.8111,0.8111,0.8095,0.8111,0.9041,1.0487,1.0487,1.1329,1.2585,0.0,0.0,0.0,0.0,0.0,0.0,0.0,1.0404,1.015,0.8701,0.9035,0.9748,0.8577,0.9491,1.0756,1.0153,1.0191,0.0,0.0,0.0,0.0,1.5572,1.5241,1.5024,1.8221,0.0,0.0,0.0,0.0,0.0,0.0,0.0,0.0,0.0,0.0,0.0,0.0,0.0,0.0,0.0,0.0,0.0,0.0,0.0,0.0,0.0,0.0,0.0,0.0,2.2297,2.2531,2.3083,2.4612,2.5039,2.4418,2.6553,2.7585,2.7585,2.76,2.76,2.76,2.76,2.76,2.76,2.76,2.76,2.7509,2.6774,2.7761,2.9564,2.9592,3.0387,3.1481,0.0,0.0,0.0,0.0,0.0,0.0,0.0,0.0,1.2931,1.1628,1.1255,0.0,0.0,0.0,0.0,0.0,0.0,0.0,1.097,1.1567,1.1619,1.0986,1.138,1.1132,1.0082,0.9398,0.8275,0.6681,0.6418,0.6605,0.7218,0.7887,0.824,0.834,0.915,0.9056,0.8372,0.9157,0.9648,0.9859,0.9758,1.0624,1.1956,0.0,0.0,0.0,0.0,0.0,0.0,0.0,0.0,0.0,1.0797,0.9941,0.9205,1.0166,0.9761,0.9184,1.0048,1.0054,0.0,0.0,0.0,0.0,0.0,1.3891,0.0,0.0,0.0,0.0,0.0,0.0,0.0,0.0,0.0,0.0,0.0,0.0,0.0,0.0,0.0,0.0,0.0,0.0,0.0,0.0,0.0,0.0,0.0,0.0,0.0,0.0,2.1182,2.1418,2.197,2.3406,2.4031,2.3851,2.5457,2.6437,2.6926,2.739,2.76,2.76,2.76,2.76,2.756,2.7034,2.6549,2.6145,2.6402,2.6874,2.7547,2.8512,2.943,3.0163,0.0,0.0,0.0,0.0,0.0,0.0,0.0,0.0,1.2512,1.1573,1.0877,1.0111,0.0,0.0,0.0,0.0,0.0,0.0,1.0567,1.1355,1.1609,1.1065,1.13,1.1144,1.0533,0.8696,0.7485,0.6957,0.6835,0.7034,0.7568,0.8003,0.828,0.8435,0.9122,0.9086,0.8559,0.9287,0.9686,0.9825,0.9815,1.0536,1.1643,0.0,0.0,0.0,0.0,0.0,0.0,0.0,0.0,0.0,1.1434,1.098,1.0541,1.01,0.9928,0.9983,1.0502,0.0,0.0,0.0,0.0,0.0,0.0,0.0,0.0,0.0,0.0,0.0,0.0,0.0,0.0,0.0,0.0,0.0,0.0,0.0,0.0,0.0,0.0,0.0,0.0,0.0,0.0,0.0,0.0,0.0,0.0,0.0,0.0,0.0,2.0691,2.0955,2.1481,2.2884,2.3478,2.323,2.4834,2.5674,2.5839,2.6791,2.7345,2.7585,2.7315,2.7345,2.7504,2.6232,2.5959,2.6305,2.6168,2.6596,2.7436,2.8286,2.9175,2.9909,0.0,0.0,0.9584,0.9584,0.0,0.0,0.0,0.0,1.1876,1.1851,1.0486,0.9472,0.0,0.0,0.0,0.9563,1.0105,1.0383,1.0375,1.1455,1.1728,1.0862,1.1477,1.1268,1.0052,0.7571,0.6944,0.8291,0.8048,0.802,0.8165,0.8348,0.8435,0.8435,0.8537,0.8618,0.8705,0.8872,0.9395,1.0112,1.0236,1.0737,1.1468,1.2065,0.0,0.0,0.0,0.0,0.0,0.0,0.0,0.0,1.1075,1.1888,1.2735,0.9103,1.0002,1.201,1.1308,0.0,0.0,0.0,0.0,0.0,0.0,0.0,0.0,0.0,0.0,0.0,0.0,0.0,0.0,0.0,0.0,0.0,0.0,0.0,0.0,0.0,0.0,0.0,0.0,0.0,0.0,0.0,0.0,0.0,0.0,0.0,0.0,2.0591,2.0616,2.0882,2.1441,2.2749,2.3158,2.263,2.4507,2.5128,2.4649,2.5929,2.6851,2.739,2.6752,2.6811,2.7176,2.534,2.5697,2.731,2.6079,2.6788,2.8502,2.8502,2.928,3.0238,0.0,0.0,1.0271,1.0271,0.0,0.0,0.0,0.0,0.0,1.0825,0.0,0.0,0.0,0.0,0.0,0.8442,0.9127,0.9522,0.9414,1.0665,1.1321,1.1125,1.1759,1.1317,0.9592,0.8765,0.8087,0.7533,0.6964,0.7334,0.8579,0.861,0.8645,0.8682,0.9575,0.949,0.8753,0.9661,0.9785,0.9343,0.9375,0.9881,1.0696,1.1313,1.1896,0.0,0.0,0.0,0.0,0.0,0.0,0.0,1.1466,1.122,1.1278,1.0176,1.0088,1.0609,0.0,1.1073,0.0,0.0,0.0,0.0,0.0,0.0,0.0,0.0,0.0,0.0,0.0,0.0,0.0,0.0,0.0,0.0,0.0,0.0,0.0,0.0,0.0,0.0,0.0,0.0,0.0,0.0,0.0,0.0,0.0,0.0,0.0,1.9987,1.9987,2.0296,2.095,2.1711,2.2295,0.0,2.3599,2.4238,2.4634,2.545,2.5899,2.6019,2.5884,2.5615,2.5247,2.5331,2.5622,2.604,2.6292,2.6942,2.7824,2.7824,2.8308,2.8906,0.0,0.0,0.0,0.0,0.0,0.0,0.0,0.0,0.0,0.0,0.0,0.0,0.0,0.7996,0.0,0.0,0.8949,0.9254,0.8927,1.0559,1.1571,1.1672,1.1487,1.0908,0.9907,0.8836,0.8179,0.7968,0.7243,0.7443,0.8554,0.8663,0.8657,0.8581,0.9167,0.9172,0.8743,0.9308,0.9371,0.9088,0.8993,0.9324,0.9937,1.0474,1.0951,1.1325,1.1223,0.0,0.0,0.0,0.0,0.0,0.0,0.0,1.1306,0.9977,0.9905,1.0537,0.0,0.0,0.0,0.0,0.0,0.0,0.0,0.0,0.0,0.0,0.0,0.0,0.0,0.0,0.0,0.0,0.0,0.0,0.0,0.0,0.0,0.0,0.0,0.0,0.0,0.0,0.0,0.0,0.0,0.0,0.0,1.9735,2.0025,2.027,2.0546,2.0879,2.1221,2.1527,2.2039,2.2694,2.3016,2.3505,2.4141,2.5151,2.5615,2.5576,2.5247,2.5098,2.5053,2.4754,2.5211,2.6078,2.6108,2.6746,2.76,2.76,2.8034,2.8502,0.0,0.0,0.0,0.0,0.0,0.0,0.0,0.0,0.0,0.0,0.0,0.0,0.0,0.8064,0.8262,0.0,0.0,0.0,0.9086,1.0831,1.1959,1.2138,1.1364,1.0801,1.0527,0.8773,0.8136,0.8699,0.7868,0.7837,0.8595,0.8785,0.8785,0.8629,0.8567,0.8544,0.8532,0.8481,0.8658,0.8967,0.8785,0.89,0.9229,0.9712,1.0012,1.0184,1.0245,1.0629,1.1038,1.0653,0.0,0.0,0.0,0.0,1.1878,0.966,0.9923,1.1014,0.0,0.0,0.0,0.0,0.0,0.0,0.0,0.0,0.0,0.0,0.0,0.0,0.0,0.0,0.0,0.0,0.0,0.0,0.0,0.0,0.0,0.0,0.0,0.0,0.0,0.0,0.0,0.0,0.0,0.0,1.8954,1.9521,2.0075,2.06,2.1101,2.1416,2.1532,2.1644,2.1974,2.2533,2.2651,2.2897,2.331,2.4537,2.5166,2.5226,2.4664,2.4739,2.5181,2.4059,2.4642,2.6198,2.5636,2.6243,2.742,2.742,2.7794,2.8214,0.0,0.0,0.0,0.0,0.0,0.0,0.0,0.0,0.0,0.0,0.9017,0.8124,0.871,0.877,0.9156,1.0128,1.0311,1.0413,1.0507,0.0,0.0,1.194,1.24,1.2141,1.1021,0.9904,0.9114,0.8699,0.7727,0.7962,0.9351,0.9503,0.9587,0.96,0.9255,0.8647,0.7917,0.7917,0.8138,0.8478,0.8395,0.85,0.8753,0.9274,0.9703,1.0155,1.1057,1.1266,1.1253,1.2265,1.2398,0.0,0.0,0.0,1.2032,1.066,1.0798,1.1402,0.0,0.0,0.0,0.0,0.0,0.0,0.0,0.0,0.0,0.0,0.0,0.0,0.0,0.0,0.0,0.0,0.0,0.0,0.0,0.0,0.0,0.0,0.0,0.0,0.0,0.0,0.0,0.0,0.0,0.0,1.8995,1.9084,1.9385,1.9925,2.0014,2.0295,2.0819,2.1413,2.1756,2.1848,2.2422,2.2448,2.1979,2.2748,2.3355,2.3864,2.3774,2.3789,2.3849,2.367,2.4103,2.4859,2.4769,2.5555,2.6722,2.6722,2.6782,2.7015,0.0,0.0,0.0,0.0,0.0,0.0,0.0,0.0,0.0,0.0,0.0,0.8717,0.9383,0.9564,0.9857,1.0447,1.0645,1.0783,1.0956,1.1278,1.1592,1.1893,1.2438,1.2359,1.1565,1.0538,0.9706,0.9153,0.8176,0.8758,1.0786,1.0232,0.9901,0.9753,0.9905,0.9333,0.8255,0.8365,0.8342,0.8198,0.7829,0.7878,0.8203,0.8629,0.9079,0.9592,1.0371,1.067,0.0,0.0,0.0,1.1245,1.1245,0.0,0.0,0.0,0.0,0.0,1.2162,0.0,0.0,0.0,0.0,0.0,0.0,0.0,0.0,0.0,0.0,0.0,0.0,0.0,0.0,0.0,0.0,0.0,0.0,0.0,0.0,0.0,0.0,0.0,0.0,0.0,0.0,0.0,0.0,1.8322,1.8976,1.9337,1.9746,2.0281,2.1033,2.1372,2.1254,2.1548,2.1508,2.1156,2.1814,2.1999,2.171,2.2014,2.2278,2.2562,2.2921,2.3107,2.3116,2.346,2.4014,2.4605,2.4605,2.5187,2.6033,2.6033,2.6033,2.6174,0.0,0.0,0.0,0.0,0.0,0.0,0.0,0.0,0.0,0.0,0.0,0.9212,1.0039,0.0,0.0,0.0,1.0944,1.0784,1.0555,1.0731,1.1006,1.1457,1.2126,1.2346,1.2032,1.1108,1.0383,0.9865,0.8668,0.9055,1.0909,1.0482,1.0172,0.9949,1.0274,0.9951,0.9173,0.8928,0.8682,0.8417,0.7851,0.7726,0.7905,0.8132,0.8599,0.9193,0.9716,0.0,0.0,0.0,0.0,0.0,0.0,0.0,0.0,0.0,0.0,0.0,0.0,0.0,0.0,0.0,0.0,0.0,0.0,0.0,0.0,0.0,0.0,0.0,0.0,0.0,0.0,0.0,0.0,0.0,0.0,0.0,0.0,0.0,0.0,0.0,0.0,0.0,0.0,0.0,0.0,1.7695,1.8525,1.9107,1.9689,2.0234,2.134,2.1699,2.1186,2.1186,2.1021,2.0703,2.1216,2.1365,2.1186,2.1365,2.135,2.1231,2.2089,2.2538,2.2733,2.3197,2.3759,2.435,2.435,2.4754,2.5337,2.5337,2.5337,2.5445,0.0,0.0,0.0,0.0,0.0,0.0,0.0,0.0,0.0,0.0,0.0,0.9368,1.0628,1.0994,1.1515,1.2406,1.1465,1.0305,0.91,0.9675,1.0131,1.0289,1.1709,0.0,1.2385,1.1811,1.1291,1.0825,0.8925,0.8169,0.8518,0.9924,1.057,1.0531,1.011,1.0246,1.0687,0.9237,0.8939,0.9389,0.8978,0.852,0.8082,0.8037,0.8499,0.925,0.0,0.0,0.0,0.0,0.0,0.0,0.0,0.0,1.2431,0.0,0.0,0.0,0.0,0.0,0.0,0.0,0.0,0.0,0.0,0.0,0.0,0.0,0.0,0.0,0.0,0.0,0.0,0.0,0.0,0.0,0.0,0.0,0.0,0.0,0.0,0.0,0.0,0.0,0.0,0.0,0.0,1.7386,1.7389,1.7902,1.8436,1.8993,1.9557,1.9842,1.9813,1.9813,2.0109,2.0703,2.0733,2.0423,1.9828,2.0468,2.0408,1.9887,2.1171,2.2119,2.2703,2.2733,2.3107,2.3655,2.3655,2.4073,2.4649,2.4649,2.4649,2.483,0.0,0.0,0.0,0.0,0.0,0.0,0.0,0.0,0.0,0.0,0.0,0.0,0.0,1.1678,1.1971,1.231,1.1277,1.0329,0.9651,0.9777,0.9924,1.0076,1.117,1.1723,1.1564,1.1037,1.0582,1.0199,0.8761,0.8469,0.9266,0.9299,0.9779,1.065,1.1898,1.1668,1.0333,1.0469,0.9556,0.8145,0.9503,0.9034,0.7654,0.8934,0.0,0.0,0.0,0.0,0.0,0.0,0.0,0.0,0.0,1.1766,1.1788,1.1908,0.0,0.0,0.0,0.0,0.0,0.0,0.0,0.0,0.0,0.0,0.0,0.0,0.0,0.0,0.0,0.0,0.0,0.0,0.0,0.0,0.0,0.0,0.0,0.0,0.0,0.0,0.0,0.0,0.0,0.0,0.0,1.7222,1.7299,1.7733,1.8256,1.8878,1.9502,1.9998,2.0348,1.9932,1.9828,2.0049,2.0049,1.9929,1.9708,1.9962,1.9932,1.9738,2.0217,2.0797,2.1485,2.2358,2.2823,2.3062,2.3445,2.3744,2.3969,2.3969,2.3969,2.4086,0.0,0.0,0.0,1.2076,0.0,1.0901,1.0177,0.9679,0.957,1.0003,0.0,0.0,0.0,0.0,1.2143,1.198,1.1268,1.0542,0.9849,0.9749,0.9703,0.9606,1.0519,1.0965,1.0797,1.0765,1.0445,0.9869,0.9015,0.8732,0.8956,0.8931,0.9254,0.9935,1.1924,1.2031,1.0783,1.1498,1.0672,0.8968,0.0,0.0,0.8787,0.0,0.0,0.0,0.0,0.0,0.0,0.0,0.0,0.0,0.0,1.169,1.1512,1.1725,1.148,0.0,1.222,0.0,0.0,0.0,0.0,0.0,0.0,0.0,0.0,0.0,0.0,0.0,0.0,0.0,0.0,0.0,0.0,0.0,0.0,0.0,0.0,0.0,0.0,0.0,0.0,0.0,0.0,0.0,0.0,0.0,1.7029,1.7466,1.7998,1.8617,1.9233,1.9745,2.0085,1.9826,1.9708,1.9708,1.9708,1.9708,1.9708,1.9708,1.9708,1.9708,1.9708,2.0079,2.0778,2.1889,2.2508,2.2763,2.3355,2.3595,2.3595,2.3595,2.3595,2.3659,1.2995,1.2778,1.2514,1.2231,1.2164,1.1759,1.0589,1.0398,1.0398,1.0398,0.0,0.0,0.0,0.0,0.0,1.1515,1.1469,1.0882,0.9494,0.9525,0.935,0.8846,0.9755,1.0256,1.0192,1.1071,1.1035,1.0001,0.9706,0.8791,0.7345,0.8772,0.9056,0.8424,0.9894,1.1135,1.2104,1.2156,1.2115,1.1897,0.0,1.0555,1.1348,0.0,0.0,0.0,1.2638,1.2255,0.0,0.0,0.0,0.0,0.0,1.239,1.1768,1.1768,1.1794,0.0,0.0,0.0,0.0,0.0,0.0,0.0,0.0,0.0,0.0,0.0,0.0,0.0,0.0,0.0,0.0,0.0,0.0,0.0,0.0,0.0,0.0,0.0,0.0,0.0,0.0,0.0,0.0,0.0,1.6509,1.6509,1.65,1.7013,1.7544,1.8066,1.8593,1.8874,1.8893,1.9424,1.969,1.9708,1.9708,1.9708,1.9708,1.969,1.969,1.9708,1.9705,2.0075,2.0748,2.1425,2.2104,2.2763,2.3355,2.3595,2.3595,2.3595,2.3595,2.3595,1.275,1.2649,1.2455,1.1992,1.147,1.0947,1.0475,1.0201,1.0047,0.0,0.0,0.0,1.1115,1.1222,1.1151,1.0867,1.0763,1.0443,0.981,0.9429,0.9235,0.9241,0.9696,0.9924,0.9915,1.0257,1.0294,1.0001,0.9143,0.8428,0.7877,0.8049,0.7907,0.7592,0.8974,0.9589,0.9692,1.1151,0.0,0.8178,1.196,1.122,0.0,0.0,0.0,0.0,0.0,1.2362,1.1887,0.0,1.2608,1.1646,0.0,0.0,0.0,1.1378,0.0,0.0,1.1725,0.0,0.0,0.0,0.0,0.0,0.0,1.0935,0.0,0.0,0.0,0.0,0.0,0.0,0.0,0.0,0.0,0.0,0.0,0.0,0.0,0.0,0.0,0.0,0.0,0.0,0.0,0.0,1.6424,1.6401,1.6497,1.7013,1.7374,1.7524,1.8046,1.8516,1.8893,1.9043,1.9332,1.9708,1.9708,1.9708,1.969,1.9299,1.9332,1.972,1.9809,2.0171,2.0748,2.1425,2.2104,2.2763,2.3355,2.3595,2.3595,2.3595,2.3595,2.3595,1.263,1.2504,1.2326,1.2013,1.1519,1.1032,1.0659,1.0297,1.0018,0.0,0.0,0.0,1.0873,1.0673,1.0579,1.0706,1.0659,1.0477,1.0135,0.9872,0.9713,0.9695,0.9926,1.0054,1.0054,1.0152,1.0094,0.9832,0.9172,0.8638,0.8227,0.7854,0.7576,0.7392,0.7983,0.8196,0.8193,0.9678,0.0,0.0,1.198,0.0,0.0,1.3089,1.2764,0.0,0.0,0.0,1.3136,1.4213,1.3647,0.0,0.0,0.0,0.0,0.0,0.0,0.0,0.0,0.0,0.0,0.0,0.0,0.0,1.0581,1.131,1.2304,0.0,0.0,0.0,0.0,0.0,0.0,0.0,0.0,0.0,0.0,0.0,0.0,0.0,0.0,0.0,0.0,0.0,0.0,1.6475,1.6438,1.6408,1.6509,1.6795,1.6972,1.6972,1.7483,1.7927,1.8243,1.8669,1.9062,1.9369,1.9584,1.9708,1.969,1.9387,1.9406,1.972,2.0091,2.0572,2.1171,2.1829,2.2358,2.2763,2.3355,2.3595,2.3595,2.3595,2.3595,2.3595,0.0,1.2342,1.2164,1.2164,1.1897,1.1516,1.0979,1.0493,1.007,0.0,0.9604,0.9804,1.05,1.011,1.0031,1.0601,1.0722,1.0662,1.0352,1.0453,1.0387,1.0094,1.0282,1.0401,1.0434,1.051,1.0303,0.9814,0.9649,0.9199,0.8475,0.8067,0.7783,0.7575,0.7107,0.7079,0.7418,0.0,0.0,1.196,1.1276,1.2679,0.0,0.0,1.3979,0.0,1.5873,1.5529,1.4452,1.5844,1.5209,0.0,0.0,0.0,0.0,0.0,1.2123,0.0,0.0,0.0,0.0,0.0,0.0,0.0,1.1233,1.222,1.3536,0.0,0.0,0.0,0.0,0.0,0.0,0.0,0.0,0.0,0.0,0.0,0.0,0.0,0.0,0.0,0.0,1.5756,1.5994,1.6463,1.65,1.65,1.65,1.65,1.65,1.65,1.6951,1.7229,1.7312,1.8263,1.8746,1.8817,1.9281,1.953,1.953,1.946,1.9497,1.9647,2.0262,2.0984,2.1739,2.2418,2.2748,2.2853,2.3385,2.3595,2.3595,2.3595,2.3595,2.3595,1.2281,1.2055,1.1891,1.1891,1.1437,1.1038,1.092,1.0147,0.9411,0.8973,0.8359,0.8108,0.8523,0.8547,0.8718,0.9093,0.9678,0.9994,0.9928,1.0002,1.0006,0.9947,1.0172,1.0416,1.0638,1.0813,1.0984,1.1134,1.0361,0.9639,0.8956,0.8545,0.809,0.7575,0.7107,0.7022,0.7242,0.0,0.0,0.9854,1.2065,0.0,1.2073,1.4893,1.4091,1.1912,1.5285,1.5335,1.395,0.0,1.496,1.4366,0.0,0.0,0.0,0.0,0.0,0.0,0.0,0.0,0.0,0.0,0.0,0.0,1.1349,1.1495,1.1948,0.0,0.0,0.0,0.0,0.0,0.0,0.0,0.0,0.0,0.0,0.0,0.0,0.0,0.0,0.0,0.0,1.6095,1.6387,1.6488,1.65,1.65,1.65,1.65,1.65,1.65,1.6595,1.6858,1.7312,1.7504,1.7827,1.8263,1.8361,1.8419,1.84,1.7967,1.8243,1.9068,1.9319,2.0278,2.1739,2.2418,2.2987,2.343,2.355,2.3595,2.3595,2.3595,2.3595,2.3595,1.1992,1.162,1.1301,1.1301,1.0941,1.0468,0.9878,0.9373,0.8762,0.7966,0.727,0.717,0.8005,0.7886,0.802,0.869,0.8903,0.9228,0.9767,0.9638,0.9814,1.0365,1.0537,1.0668,1.0796,1.056,1.0574,1.0801,0.9921,0.9379,0.9142,0.8839,0.8443,0.7978,0.761,0.7454,0.7439,0.0,0.7993,0.9325,1.1795,0.0,1.2563,1.5413,1.5306,1.3889,1.5815,1.5899,1.5032,1.4486,1.474,0.0,0.0,1.2888,1.1919,0.0,1.091,1.0433,0.0,0.0,0.0,1.1347,0.0,0.0,0.0,1.1937,1.2501,0.0,0.0,0.0,0.0,0.0,0.0,0.0,0.0,0.0,0.0,0.0,0.0,0.0,0.0,0.0,0.0,1.5781,1.6199,1.6475,1.65,1.65,1.65,1.65,1.65,1.65,1.65,1.6637,1.6888,1.7167,1.7422,1.7706,1.7967,1.8106,1.8086,1.7827,1.8145,1.8921,1.9333,2.0159,2.1261,2.1919,2.2368,2.2712,2.3355,2.3595,2.3595,2.3595,2.3595,2.3595,1.1626,1.11,1.0677,1.0799,1.0498,0.9943,0.9039,0.8807,0.8271,0.705,0.6327,0.6412,0.7663,0.7329,0.7421,0.8432,0.8295,0.849,0.9325,0.9254,0.9541,1.0334,1.0441,1.0532,1.0593,1.006,0.9871,1.0043,0.9397,0.9093,0.9117,0.8913,0.8607,0.8207,0.7861,0.7835,0.0,0.0,0.0,0.9805,0.0,1.2775,1.3393,1.5633,1.6278,1.5998,1.6375,1.65,1.6216,1.4391,0.0,1.5367,1.5269,1.3707,0.0,0.0,0.0,0.0,0.0,0.0,0.0,0.0,0.0,1.1576,0.0,0.0,0.0,0.0,0.0,0.0,0.0,0.0,0.0,0.0,0.0,0.0,0.0,0.0,0.0,0.0,0.0,0.0,0.0,1.5153,1.5806,1.645,1.65,1.65,1.65,1.65,1.65,1.65,1.65,1.65,1.65,1.693,1.7146,1.7146,1.7585,1.7787,1.7787,1.7787,1.8145,1.8789,1.9318,1.9987,2.0733,2.1291,2.1575,2.1814,2.2966,2.3351,2.3264,2.3507,2.353,2.3421,1.1003,1.0509,1.0255,1.0794,1.0208,0.9685,0.9678,0.9178,0.8233,0.6673,0.5585,0.5307,0.6237,0.6116,0.0,0.0,0.0,0.0,0.785,0.0,0.892,0.8527,0.8847,0.9187,0.9482,0.9408,0.9514,0.9829,0.9741,0.9413,0.884,0.8644,0.8203,0.7585,0.6953,0.0,0.0,0.0,0.9755,0.0,1.3291,1.2872,0.0,1.5136,1.5483,1.4247,1.5899,1.65,1.6249,0.0,1.4159,1.4195,0.0,1.1961,1.0366,0.0,0.0,0.0,0.0,0.0,0.0,0.0,1.0381,0.0,0.0,0.0,0.0,0.0,0.0,0.0,0.0,0.0,0.0,0.0,0.0,0.0,0.0,0.0,0.0,0.0,0.0,0.0,0.0,1.4362,1.5412,1.6412,1.65,1.65,1.65,1.65,1.65,1.65,1.65,1.65,1.65,1.6552,1.6595,1.6595,1.6659,1.668,1.668,1.668,1.7229,1.8204,1.8274,1.9223,2.0703,2.0778,2.1171,2.1769,2.2523,2.2427,2.2062,2.3177,2.3268,2.2785,1.0368,0.9882,0.9564,0.9806,0.9206,0.8558,0.8224,0.7169,0.618,0.5497,0.5263,0.5481,0.0,0.0,0.0,0.0,0.0,0.8261,0.0,0.0,0.8561,0.8942,0.8855,0.8753,0.8667,0.8881,0.9081,0.9218,0.9218,0.9073,0.8796,0.8705,0.8419,0.7947,0.7383,0.0,0.9414,0.0,0.992,0.0,0.0,0.0,0.0,1.5042,1.5998,1.5281,1.4968,1.5583,1.6057,0.0,1.3878,0.0,0.0,0.0,0.0,0.0,0.0,0.0,0.0,0.0,0.0,0.0,0.0,0.0,1.2989,0.0,1.1805,0.0,0.0,0.0,0.0,0.0,0.0,0.0,0.0,0.0,0.0,0.0,0.0,0.0,0.0,0.0,0.0,0.0,0.0,0.0,1.5856,1.5906,1.558,1.617,1.65,1.65,1.65,1.65,1.65,1.65,1.65,1.65,1.65,1.65,1.65,1.65,1.7097,1.8106,1.8106,1.8879,2.0124,2.0124,2.0513,2.1147,2.1436,2.1844,2.2348,2.2878,2.292,2.2649,0.9767,0.9279,0.8934,0.9072,0.8357,0.7562,0.698,0.5895,0.516,0.524,0.0,0.0,0.6985,0.7297,0.0,0.0,0.8214,0.8319,0.0,0.0,0.8242,0.0,0.0,0.0,0.0,0.8301,0.8325,0.8328,0.8444,0.8498,0.8498,0.8498,0.8368,0.8113,0.0,0.802,0.9316,0.0,0.0,1.1661,1.2537,1.2668,1.2612,1.4861,1.6057,1.6316,1.4955,1.5351,1.6007,1.2784,1.381,0.0,1.4008,0.0,0.0,0.0,0.0,0.0,1.1321,0.0,0.0,0.0,0.0,0.0,0.0,0.0,0.0,0.0,0.0,0.0,0.0,0.0,0.0,0.0,0.0,0.0,0.0,0.0,0.0,0.0,0.0,0.0,0.0,0.0,0.0,0.0,0.0,1.5475,1.4921,1.5919,1.65,1.65,1.65,1.65,1.65,1.65,1.65,1.65,1.65,1.65,1.65,1.65,1.7013,1.7887,1.8046,1.8631,1.9479,1.9639,2.0094,2.0725,2.0909,2.1568,2.2433,2.2441,2.2314,2.2105,0.9238,0.8696,0.0,0.901,0.8011,0.7008,0.6665,0.6407,0.0,0.0,0.0,0.0,0.0,0.0,0.0,0.0,0.0,0.7637,0.7675,0.0,0.791,0.0,0.0,0.7156,0.0,0.0,0.7153,0.7159,0.7534,0.7739,0.7739,0.7739,0.7725,0.7686,0.6829,0.7503,0.9368,1.0344,1.1866,1.3766,1.5608,1.6328,1.6132,0.0,1.4918,1.6488,1.6437,0.0,0.0,1.4557,1.4091,0.0,0.0,0.0,0.0,0.0,0.0,0.0,0.0,0.0,0.0,1.2212,0.0,0.0,0.0,0.0,1.1805,0.0,0.0,0.0,0.0,0.0,0.0,0.0,0.0,0.0,0.0,0.0,0.0,0.0,0.0,0.0,0.0,0.0,0.0,0.0,0.0,0.0,1.4921,1.5919,1.65,1.65,1.65,1.65,1.65,1.65,1.65,1.65,1.65,1.65,1.65,1.65,1.6795,1.7353,1.7867,1.8419,1.8968,1.9479,2.0094,2.0763,2.1406,2.1686,2.1721,2.1722,2.1366,2.087,0.9445,0.9046,0.0,0.0,0.0,0.0,0.0,0.6897,0.0,0.0,0.0,0.0,0.0,0.0,0.8505,0.0,0.0,0.8709,0.8854,0.8851,0.0,0.0,0.0,0.8814,0.0,0.0,0.0,0.0,0.7505,0.7574,0.7301,0.7569,0.7695,0.7676,0.0,0.7777,0.0,0.0,0.0,0.0,0.0,1.4663,1.4713,0.0,0.0,1.65,1.65,1.65,0.0,1.4448,1.4649,1.556,1.4834,1.3985,1.3818,1.6674,1.5086,0.0,0.0,0.0,1.5242,1.4921,0.0,0.0,0.0,0.0,0.0,0.0,0.0,0.0,0.0,0.0,0.0,0.0,0.0,0.0,0.0,0.0,0.0,0.0,0.0,0.0,0.0,0.0,0.0,0.0,0.0,0.0,0.0,1.5127,1.6093,1.6355,1.6448,1.65,1.65,1.65,1.65,1.65,1.65,1.65,1.65,1.65,1.6795,1.7333,1.7867,1.84,1.8993,1.9949,2.0767,2.1386,2.1624,2.1692,2.169,2.1698,2.1318,2.0839,0.957,0.9301,0.0,0.0,0.0,0.0,0.0,0.0,0.0,0.0,0.8043,0.0,0.8737,0.0,0.9072,0.0,0.8849,0.8976,0.9242,0.8804,0.0,1.0181,0.9562,0.0,0.0,0.0,0.0,0.0,0.0,0.7846,0.8084,0.7832,0.7695,0.7676,0.0,0.7528,0.8414,0.0,1.1951,0.0,0.0,1.4105,0.0,0.0,1.5923,1.65,0.0,1.65,1.6316,1.5099,1.5508,1.6355,1.5472,1.5095,1.5363,1.7428,1.6195,1.448,1.6052,1.6875,0.0,1.688,1.6466,0.0,1.5915,0.0,0.0,0.0,0.0,0.0,0.0,0.0,0.0,0.0,0.0,0.0,0.0,1.1805,0.0,0.0,0.0,0.0,0.0,0.0,0.0,0.0,0.0,0.0,0.0,0.0,1.5883,1.6297,1.643,1.65,1.65,1.65,1.65,1.65,1.65,1.65,1.65,1.65,1.6701,1.7055,1.7787,1.8434,1.9059,2.0213,2.1246,2.2063,2.2056,2.1918,2.1673,2.1448,2.1124,2.0772,0.9515,0.9343,0.0,0.0,0.7593,0.0,0.0,0.0,0.827,0.0,0.9121,0.9342,0.9379,0.8992,0.8648,0.8497,0.8382,0.0,0.8748,0.7659,0.0,0.0,0.8666,0.8559,1.0867,0.0,0.0,0.0,0.0,0.0,0.9831,0.838,0.7695,0.7686,0.7301,0.0,0.6656,1.0082,1.1298,1.1105,1.284,1.4668,1.6157,1.437,1.4869,1.65,1.65,1.65,1.65,1.65,1.65,1.65,1.65,1.65,1.6522,1.6543,1.6888,1.7435,1.7947,1.8496,1.8716,1.7952,0.0,0.0,0.0,0.0,1.5755,0.0,0.0,0.0,0.0,0.0,0.0,0.0,0.0,0.0,0.0,0.0,0.0,0.0,0.0,0.0,0.0,0.0,0.0,0.0,0.0,0.0,0.0,0.0,1.5853,1.6297,1.6408,1.648,1.65,1.6484,1.6484,1.65,1.65,1.65,1.65,1.6543,1.6531,1.6595,1.7713,1.8545,1.9244,2.0333,2.1545,2.2703,2.2691,2.2272,2.1592,2.0979,2.0707,2.0578,0.876,0.8589,0.8532,0.0,0.8069,0.798,0.0,0.0,0.0,0.0,0.9532,0.9684,0.9148,0.909,0.8888,0.8387,0.8409,0.0,0.0,0.0,0.0,1.0764,1.1208,1.142,1.1418,1.1449,0.0,1.0605,0.0,0.0,0.9419,0.8243,0.7695,0.7695,0.0,0.0,0.714,1.0519,1.2336,1.2882,1.1931,1.2702,0.0,0.0,1.4869,1.65,1.65,1.65,1.65,1.65,1.65,1.65,1.65,1.65,1.6573,1.6972,1.7188,1.7435,1.7947,1.8496,1.8858,1.8637,1.7987,1.7328,0.0,0.0,0.0,0.0,0.0,0.0,0.0,0.0,0.0,0.0,0.0,0.0,0.0,0.0,0.0,1.133,0.0,0.0,0.0,0.0,0.0,0.0,0.0,0.0,0.0,0.0,0.0,1.6271,1.6235,1.6297,1.6509,1.6406,1.6406,1.65,1.65,1.65,1.6522,1.6909,1.7097,1.7173,1.8765,1.9535,1.981,2.1499,2.2388,2.2706,2.2702,2.2011,2.0955,2.0295,2.0054,2.0062,0.8733,0.0,0.0,0.8342,0.0,0.0,0.8869,0.0,0.0,0.9546,0.9855,0.0,0.9359,0.9255,0.901,0.8571,0.8446,0.0,0.8508,0.0,0.0,1.078,1.1613,1.1924,1.1616,1.1943,0.0,1.1821,0.0,0.0,1.0474,0.8587,0.7695,0.7695,0.0,0.7476,0.0,1.0491,1.2662,1.3843,1.2577,0.0,0.0,1.4012,1.4869,1.65,1.65,1.65,1.65,1.65,1.65,1.65,1.65,1.65,1.6552,1.6858,1.7105,1.7435,1.7947,1.8496,1.8968,1.9188,1.8802,1.8342,1.8342,1.7631,1.7007,0.0,0.0,0.0,0.0,0.0,0.0,0.0,0.0,0.0,0.0,0.0,0.0,0.0,0.0,0.0,0.0,0.0,0.0,0.0,0.0,0.0,0.0,0.0,0.0,1.6136,1.6728,1.6797,1.6335,1.6831,1.6863,1.6416,1.6722,1.6731,1.6522,1.7055,1.7312,1.74,1.9134,2.0085,2.0457,2.2049,2.2868,2.3037,2.2491,2.1667,2.0761,2.0334,2.0326,2.0589,0.8983,0.0,0.0,0.0,0.0,0.0,0.0,0.9328,0.0,0.9989,0.0,0.986,0.9573,0.932,0.9051,0.877,0.0,0.8483,0.8875,0.8756,0.9368,1.0881,1.1151,1.1407,1.176,1.1861,0.0,0.0,0.0,0.0,1.2199,0.9256,0.7901,0.0,0.0,0.0,0.0,1.03,1.2419,1.4186,1.3851,1.4688,1.5973,1.4594,1.5074,1.65,1.65,1.65,1.65,1.65,1.65,1.65,1.65,1.65,1.65,1.65,1.6879,1.7435,1.7947,1.8496,1.9024,1.9566,1.9708,1.9708,1.9708,1.9708,1.9708,1.9708,1.9708,1.926,0.0,0.0,0.0,0.0,0.0,0.0,0.0,0.0,0.0,0.0,0.0,0.0,0.0,0.0,0.0,0.0,0.0,0.0,0.0,0.0,0.0,1.6002,1.731,1.7451,1.6249,0.0,1.7449,1.6452,1.6933,1.6957,1.6616,1.7146,1.7496,1.7726,1.9321,2.0443,2.1218,2.2258,2.2942,2.3238,2.2105,2.1318,2.0793,2.0791,2.1157,2.1581,0.0,0.0,0.0,0.0,0.0,0.9008,0.8949,0.9383,0.9674,0.9538,0.9419,0.9193,0.876,0.8798,0.8794,0.8577,0.8502,0.0,0.0,0.0,0.0,1.1571,1.2237,1.2599,1.267,1.3161,1.3758,0.0,0.0,0.0,1.3108,1.0205,0.0,0.0,0.0,0.0,1.1735,1.0647,0.0,1.379,1.3723,1.3895,1.4321,1.5545,1.6216,1.65,1.65,1.65,1.65,1.65,1.65,1.65,1.65,1.65,1.65,1.65,1.6879,1.7435,1.7947,1.8496,1.9024,1.9566,1.9708,1.9708,1.9708,1.9708,1.9708,1.9708,1.9708,1.9615,1.9337,0.0,0.0,0.0,0.0,0.0,0.0,0.0,0.0,0.0,0.0,0.0,0.0,0.0,0.0,0.0,0.0,0.0,0.0,0.0,0.0,0.0,1.6703,0.0,0.0,0.0,1.7203,1.7207,1.6708,1.6709,1.7167,1.7727,1.8502,1.9504,2.0245,2.1245,2.239,2.2548,2.2338,2.1926,2.1699,2.1264,2.0763,2.1197,2.1694,2.2108,0.0,0.0,0.0,0.0,0.0,0.0,0.0,0.9346,0.0,0.9281,0.9227,0.9105,0.8877,0.9127,0.9291,0.9182,0.9076,0.9346,1.0132,1.0441,1.0956,1.1753,1.2501,0.0,1.2253,1.2959,1.3558,1.4034,0.0,0.0,1.3043,0.0,0.0,0.9688,0.0,1.1091,0.0,0.0,0.0,1.4082,1.4854,1.5136,1.5256,1.6157,1.65,1.65,1.65,1.65,1.65,1.65,1.65,1.65,1.65,1.65,1.65,1.65,1.6879,1.7435,1.7947,1.8496,1.9024,1.9566,1.9708,1.9708,1.9708,1.9708,1.9708,1.9708,1.9708,1.9445,1.8616,1.7615,0.0,0.0,0.0,0.0,0.0,0.0,0.0,0.0,0.0,0.0,0.0,0.0,0.0,0.0,0.0,0.0,0.0,0.0,0.0,0.0,0.0,0.0,0.0,0.0,0.0,1.7708,1.7423,1.7449,1.7775,1.8047,1.8622,1.9506,2.0667,2.1532,2.2192,2.2769,2.2609,2.2009,2.2009,2.165,2.1182,2.1707,2.2328,2.283,0.0,0.8998,0.0,0.0,0.9123,0.0,0.984,0.9252,0.8843,0.9158,0.9158,0.9172,0.9302,0.9609,0.9787,0.9738,0.9755,1.0017,1.0572,1.0751,1.1161,1.185,1.2536,1.2582,1.1878,1.2553,1.3083,0.0,0.0,0.0,0.0,0.0,0.0,0.0,0.0,0.0,0.0,0.0,1.457,1.4866,1.6031,1.65,1.65,1.65,1.65,1.65,1.65,1.65,1.65,1.65,1.65,1.65,1.65,1.65,1.65,1.65,1.6879,1.7435,1.7947,1.8496,1.9024,1.9566,1.9708,1.9708,1.9708,1.9708,1.9708,1.9708,1.9708,1.9307,1.8037,1.7796,0.0,0.0,0.0,0.0,0.0,0.0,0.0,0.0,0.0,0.0,0.0,0.0,0.0,0.0,0.0,1.2913,1.3343,1.4803,1.5816,0.0,0.0,1.833,1.7807,0.0,1.9131,1.8225,1.8166,1.8228,1.8367,1.8373,1.8799,1.9628,2.0843,2.1513,2.1832,2.2943,2.2991,2.2395,2.2395,2.2078,2.1719,2.2146,2.285,2.3546,0.0,0.0,0.0,0.0,0.0,0.0,0.9687,0.9052,0.8686,0.9132,0.8984,0.9076,0.9684,0.9777,0.9718,0.9556,1.023,1.0471,1.0009,1.1053,1.184,1.2155,1.2642,1.2866,1.2788,1.2866,1.3174,0.0,0.0,0.0,0.0,0.0,0.0,0.0,0.0,0.0,0.0,1.4842,1.5465,1.6307,1.6429,1.65,1.65,1.65,1.65,1.65,1.65,1.65,1.65,1.65,1.65,1.65,1.65,1.65,1.65,1.65,1.6879,1.7435,1.7947,1.8496,1.9024,1.9566,1.9708,1.9708,1.9708,1.9708,1.9708,1.9708,1.9708,1.9645,1.9507,1.8706,1.783,0.0,0.0,0.0,0.0,0.0,0.0,0.0,0.0,0.0,0.0,1.2291,0.0,0.0,1.3522,1.4047,1.4524,1.5502,1.6267,1.6718,0.0,1.7866,1.7794,1.8528,1.8901,1.8906,1.8309,1.834,1.8921,1.8937,1.9813,2.1325,2.0904,2.1263,2.2299,2.3026,2.2896,2.2308,2.2308,2.2263,2.2234,2.2297,2.3106,2.4176,0.0,0.0,0.0,0.0,0.0,0.0,0.0,0.9084,0.8757,0.8931,0.9209,0.951,0.9762,1.0517,1.0972,1.0893,1.1193,1.1478,1.1695,1.1764,1.2064,1.2603,1.2807,1.2905,1.2905,1.2905,1.32,0.0,0.0,0.0,0.0,0.0,0.0,0.0,0.0,1.502,1.5439,1.5759,1.6138,1.65,1.65,1.65,1.65,1.65,1.6713,1.6986,1.6635,1.6735,1.6986,1.6613,1.65,1.65,1.65,1.65,1.65,1.65,1.6659,1.7013,1.7867,1.8263,1.8631,1.9479,1.9708,1.9813,2.0213,2.0303,2.0408,2.0831,2.0572,2.0303,2.0303,1.9626,1.8924,0.0,0.0,0.0,0.0,0.0,0.0,0.0,0.0,0.0,0.0,0.0,0.0,0.0,0.0,1.3771,1.4318,1.555,1.634,1.6599,0.0,1.8594,1.8988,1.9268,1.9425,1.9459,1.8888,1.892,1.9492,1.9492,2.0412,2.2017,2.1732,2.2068,2.2799,2.3081,2.3022,2.2782,2.2782,2.2782,2.2782,2.2782,2.3706,2.4932,1.0373,0.0,1.0101,0.0,0.9758,0.9592,0.9442,0.9077,0.8842,0.8992,0.9643,1.009,1.009,1.1116,1.1773,1.173,1.199,1.2184,1.2301,1.2195,1.2288,1.2695,1.2837,0.0,1.2905,1.2905,1.3104,1.3529,1.2857,0.0,0.0,0.0,0.0,0.0,1.5693,1.5932,1.5969,1.6337,1.65,1.65,1.65,1.65,1.6513,1.671,1.6923,1.7099,1.6861,1.6923,1.7087,1.6861,1.666,1.65,1.65,1.65,1.65,1.65,1.65,1.6731,1.7807,1.8106,1.8361,1.9424,1.9708,1.9887,2.0557,2.0703,2.0882,2.156,2.1171,2.0703,2.0703,2.0154,1.9554,1.9083,0.0,0.0,0.0,0.0,0.0,0.0,1.7556,1.6916,1.7597,0.0,0.0,0.0,0.0,0.0,1.4551,1.5518,0.0,0.0,0.0,0.0,0.0,1.9473,1.9636,1.9798,1.9409,1.9535,2.0075,2.0388,2.1192,2.2322,2.2456,2.2744,2.3108,2.3108,2.3108,2.3108,2.3108,2.3108,2.3108,2.3108,2.393,2.5087,1.064,1.0801,1.0807,1.0194,0.986,0.9547,0.9073,0.8894,0.8969,0.9439,1.0254,1.0788,1.0788,1.1391,1.1748,1.1597,1.2396,1.2324,1.1016,1.2158,1.2686,0.0,0.0,1.2905,1.2905,1.2905,1.2905,1.2905,0.0,0.0,1.3132,0.0,1.5224,1.5706,1.6237,1.6488,1.6488,1.65,1.65,1.65,1.65,1.65,1.6563,1.7149,1.7024,1.6588,1.7184,1.7011,1.6588,1.7187,1.6986,1.65,1.65,1.65,1.65,1.65,1.65,1.6731,1.7807,1.8106,1.8361,1.9424,1.9708,1.9887,2.0557,2.0703,2.0882,2.156,2.1171,2.0703,2.0703,2.0154,1.9343,1.8287,0.0,0.0,0.0,0.0,0.0,0.0,1.5593,1.4918,1.6917,0.0,0.0,0.0,0.0,0.0,0.0,0.0,0.0,1.716,1.7147,0.0,1.803,1.8681,1.9272,1.9798,1.9798,2.01,2.0717,2.1782,2.2297,2.2347,2.2857,2.3095,2.3108,2.3108,2.3108,2.3108,2.3108,2.3108,2.3108,2.3108,2.3619,2.4376,1.0491,1.0608,1.0597,1.0164,0.9886,0.9576,0.9194,0.8951,0.9011,0.963,1.0347,1.0965,1.1433,1.2113,1.2527,0.0,1.2451,1.2383,0.0,1.2373,1.251,1.2666,1.225,1.1868,1.1543,1.1848,1.1858,1.1533,0.0,0.0,0.0,1.4615,1.5465,1.6237,1.6412,1.6735,1.7087,1.6663,1.6748,1.7074,1.6672,1.65,1.6563,1.7162,1.7285,1.7137,1.7335,1.7501,1.7639,1.7473,1.7513,1.7601,1.7225,1.6835,1.6575,1.6986,1.7405,1.7963,1.9035,1.9333,1.9511,2.0209,2.0378,2.0557,2.1231,2.2054,2.2742,2.2951,2.2488,2.1919,2.147,2.0842,1.9964,1.871,1.881,0.0,0.0,0.0,0.0,0.0,1.7287,1.7001,0.0,1.6704,0.0,0.0,0.0,0.0,0.0,0.0,0.0,0.0,1.858,0.0,1.9229,1.9448,1.9647,1.9811,2.0226,2.0905,2.1794,2.2146,2.2493,2.2844,2.3032,2.3108,2.3108,2.3108,2.3108,2.3108,2.3108,2.3108,2.3108,2.3108,2.3619,2.4421,1.0184,1.0199,1.017,0.982,0.961,0.9367,0.9002,0.9086,0.9405,1.0016,1.0723,1.1441,1.2138,1.2608,0.0,1.2905,1.2627,1.2588,1.2886,1.2627,1.2598,1.2895,1.2377,1.1956,1.166,1.1937,0.0,1.165,1.2407,1.344,1.4668,1.5047,1.5691,1.65,1.65,1.6835,1.7385,1.6999,1.7049,1.7373,1.6986,1.6848,1.6886,1.7272,1.7536,1.7689,1.7689,1.7915,1.8179,1.8053,1.8091,1.8179,1.8041,1.7601,1.7174,1.736,1.797,1.8785,1.9661,2.0077,2.0407,2.0931,2.1081,2.1261,2.1919,2.2862,2.3595,2.3595,2.3122,2.2568,2.2164,2.153,2.0722,1.9627,1.9809,1.9839,1.9166,0.0,0.0,0.0,0.0,0.0,0.0,1.7567,1.6951,0.0,0.0,0.0,0.0,0.0,0.0,1.8191,1.8853,0.0,1.951,1.9493,1.9607,1.9811,2.0629,2.1443,2.2322,2.2493,2.2782,2.3108,2.3108,2.3108,2.3108,2.3108,2.3108,2.3108,2.3108,2.3108,2.3108,2.3108,2.3564,2.4322,0.9735,0.9684,0.0,0.0,0.9212,0.0,0.8587,0.9251,0.9992,1.0535,1.1316,1.208,1.2822,1.2905,1.2905,1.2905,0.0,0.0,0.0,1.2876,1.2876,1.2905,1.2846,1.2798,1.2768,1.2798,1.2846,1.2905,1.3552,1.4434,1.5543,1.561,1.5952,1.65,1.6538,1.6898,1.7461,1.7423,1.7423,1.7461,1.7373,1.7348,1.736,1.7436,1.7739,1.8154,1.8242,1.8267,1.8342,1.8832,1.8682,1.8392,1.8857,1.8669,1.8204,1.7674,1.8296,1.9297,1.9858,2.0451,2.1023,2.162,2.1769,2.1934,2.2613,2.3212,2.3595,2.3595,2.3152,2.2748,2.2703,2.2194,2.1545,2.0868,2.0763,2.0543,1.9854,0.0,0.0,0.0,0.0,0.0,0.0,1.8187,1.8003,0.0,0.0,0.0,0.0,0.0,1.7127,1.8279,1.8317,1.8555,1.9058,1.9058,1.9334,1.9924,2.1029,2.1832,2.2355,2.2869,2.3108,2.3108,2.3108,2.3108,2.3108,2.3108,2.3108,2.3108,2.3145,2.3158,2.317,2.3208,2.3559,2.413,0.0,0.0,0.9587,0.9254,0.9205,0.9092,0.8787,0.9339,1.0036,1.0656,1.1353,1.208,1.2822,1.2905,1.2905,1.2905,1.2578,1.2529,1.2886,1.2568,1.2529,1.2895,1.2259,1.1741,1.1387,1.1721,1.223,1.2905,1.3978,1.4629,1.4926,1.5854,1.6358,1.6513,1.6974,1.7488,1.7978,1.7564,1.7626,1.7928,1.7074,1.6701,1.6823,1.7677,1.7827,1.7712,1.8506,1.8807,1.8832,1.8958,1.9183,1.9371,1.9096,1.9183,1.9321,1.877,1.9175,1.9994,2.0996,2.102,2.1034,2.2185,2.2463,2.2628,2.3236,2.349,2.3595,2.3595,2.349,2.3236,2.2778,2.2568,2.2254,2.1575,2.1455,2.1231,2.0557,1.9878,0.0,0.0,1.8564,1.8447,1.8597,1.8723,1.8565,0.0,0.0,0.0,0.0,1.7953,1.8304,1.9397,1.9422,1.9484,1.9623,1.9623,2.0112,2.1104,2.1794,2.2397,2.2907,2.3045,2.3108,2.3108,2.3108,2.3108,2.3108,2.3108,2.3108,2.3145,2.3615,2.3791,2.3853,2.4236,2.4474,2.4707,0.9214,0.9246,0.9234,0.9057,0.9009,0.8958,0.8831,0.964,1.0389,1.0737,1.1683,1.2452,1.2856,1.2905,1.2905,1.2905,1.2666,1.2627,1.2886,1.2656,1.2627,1.2895,1.2631,1.2344,1.2077,1.252,1.2881,1.3164,1.3907,1.4422,1.4721,1.5644,1.6238,1.6525,1.7124,1.7712,1.8204,1.8154,1.8304,1.8481,1.7616,1.7287,1.7325,1.7689,1.7953,1.8216,1.8795,1.9158,1.9359,1.9359,1.9572,1.9748,1.9472,1.9572,1.9748,1.9434,1.9833,2.0556,2.1448,2.1654,2.1874,2.2869,2.3122,2.3112,2.3194,2.3399,2.3508,2.3246,2.3421,2.349,2.3182,2.3122,2.2912,2.2269,2.1635,2.1126,2.0748,1.9613,0.0,1.9214,1.8998,1.8831,1.8897,1.9177,1.9138,1.8608,1.8524,0.0,1.8932,1.8935,1.9214,1.9773,1.9798,1.9798,1.9798,2.0062,2.0765,2.187,2.2171,2.2569,2.3108,2.3108,2.3108,2.3108,2.3108,2.3108,2.312,2.3396,2.3496,2.359,2.4155,2.4381,2.4406,2.4675,2.4971,2.5222,0.8851,0.8804,0.8831,0.8929,0.8956,0.8982,0.9087,1.0141,1.0939,1.0939,1.2098,1.2905,1.2905,1.2905,1.2925,1.2993,1.2944,1.2905,1.2905,1.2964,1.2949,1.2905,1.3281,1.3506,1.3506,1.389,1.3952,1.3649,1.3976,1.4434,1.4971,1.5655,1.6274,1.6776,1.7375,1.789,1.8355,1.8807,1.8958,1.8832,1.8304,1.8078,1.8041,1.7652,1.8141,1.9008,1.9096,1.9409,1.9798,1.9798,1.9798,1.9798,1.9798,1.9798,1.9798,1.9798,2.0207,2.0782,2.14,2.2053,2.2665,2.3193,2.331,2.3209,2.2785,2.3031,2.3187,2.2657,2.295,2.3341,2.3443,2.3465,2.3314,2.2772,2.1665,2.0838,2.0838,0.0,1.8652,1.98,1.9457,1.9117,1.912,1.9623,1.9748,1.9284,1.9693,1.9973,2.005,1.9898,1.9896,2.0063,1.9899,1.9849,1.9924,2.0616,2.1408,2.2309,2.2397,2.2656,2.3108,2.3108,2.3108,2.3108,2.3108,2.3158,2.3283,2.3803,2.4054,2.418,2.472,2.4913,2.4913,2.5034,2.5347,2.5724,0.8818,0.8804,0.8982,0.9536,0.964,0.984,1.0389,1.1141,1.1641,1.1641,1.2378,1.2905,1.2905,1.2905,1.3052,1.3379,1.3111,1.2905,1.2905,1.3213,1.3252,1.2925,1.3281,1.3506,1.3506,1.389,1.4142,1.4252,1.5303,1.5924,1.6161,1.7295,1.7847,1.7965,1.8506,1.8795,1.8882,1.897,1.8732,1.8292,1.7739,1.7513,1.7551,1.794,1.8456,1.9058,1.9497,1.9736,1.9798,1.9798,1.9798,1.9798,1.9798,1.9798,1.9798,1.9798,1.9875,2.0105,2.0758,2.139,2.1867,2.1973,2.1993,2.2109,2.2589,2.2331,2.1955,2.1875,2.1946,2.2156,2.274,2.283,2.2819,2.2709,2.2059,2.1545,2.1545,0.0,2.0358,2.0605,2.0549,2.0276,1.9724,2.02,2.0528,2.044,2.0507,2.0759,2.1192,2.0317,2.0228,2.1192,2.03,2.0037,2.0553,2.1543,2.2146,2.2322,2.2757,2.302,2.3108,2.3108,2.3108,2.3108,2.3108,2.3384,2.3866,2.3966,2.4268,2.4713,2.5272,2.5473,2.5536,2.6059,2.6285,2.6361,0.8838,0.8804,0.9008,0.9692,0.9788,1.0038,1.0686,1.1574,1.2182,1.2182,1.2982,1.3555,1.3555,1.3555,1.3633,1.3802,1.3467,1.3213,1.3213,1.3398,1.35,1.3555,1.3965,1.4297,1.4531,1.4891,1.5124,1.5211,1.6263,1.6819,1.6908,1.7794,1.8053,1.7802,1.8619,1.8845,1.8607,1.9196,1.9108,1.8569,1.8053,1.7827,1.7852,1.8103,1.8519,1.907,1.961,1.9798,1.9798,1.9798,1.9798,1.9798,1.9798,1.9798,1.9798,1.9798,2.0055,2.0396,2.0734,2.1245,2.1782,2.2141,2.1972,2.1781,2.21,2.1922,2.1615,2.1269,2.1472,2.1899,2.2581,2.2694,2.2926,2.3606,2.2592,0.0,0.0,2.1289,2.0347,2.0749,2.0766,2.0616,2.0315,2.0805,2.1131,2.1131,2.1131,2.1245,2.1509,2.0991,2.0953,2.1468,2.0978,2.0978,2.1543,2.2058,2.246,2.2732,2.2982,2.3108,2.3108,2.3108,2.3108,2.312,2.3434,2.3753,2.4042,2.4619,2.5008,2.5297,2.585,2.6097,2.6135,2.6399,2.6499,2.6499,0.8864,0.8804,0.9061,0.9891,1.0038,1.0344,1.1285,1.2161,1.2778,1.287,1.3582,1.4104,1.4104,1.4104,1.4104,1.4104,1.3724,1.3594,1.3789,1.3711,1.3724,1.3948,1.4502,1.4932,1.5254,1.5769,1.605,1.6095,1.7125,1.7553,1.7458,1.8227,1.8175,1.7494,1.8499,1.871,1.8363,1.9044,1.922,1.8958,1.843,1.8279,1.8392,1.8392,1.8707,1.9233,1.966,1.9798,1.9798,1.9798,1.9798,1.9798,1.9798,1.9899,1.9974,1.9849,2.0144,2.0572,2.0572,2.0917,2.1424,2.2091,2.1748,2.1304,2.1448,2.1376,2.1148,2.0658,2.1196,2.1931,2.2573,2.2956,2.3487,2.444,0.0,0.0,0.0,2.188,2.0692,2.1383,2.1235,2.1029,2.0907,2.1355,2.1681,2.1681,2.1681,2.1732,2.187,2.1631,2.1543,2.1681,2.1681,2.1882,2.2309,2.2406,2.2681,2.3108,2.3108,2.3108,2.3108,2.3108,2.3108,2.3133,2.3753,2.4067,2.4268,2.5209,2.5674,2.5871,2.6323,2.6499,2.6499,2.6499,2.6575,2.6688,0.8864,0.8804,0.9211,1.0491,1.0745,1.1319,1.3049,1.3375,1.3565,1.3927,1.4058,1.4104,1.4104,1.4104,1.4104,1.4104,1.3724,1.3848,1.4639,1.4289,1.3899,1.3574,1.4346,1.4805,1.4834,1.5905,1.6543,1.6735,1.7976,1.8332,1.7894,1.9104,1.8925,1.7612,1.838,1.8696,1.8637,1.8219,1.8408,1.8958,1.843,1.8505,1.8945,1.8945,1.9259,1.9748,1.9786,1.9798,1.9798,1.9798,1.9798,1.9798,1.9798,2.0175,2.0515,1.9962,1.9824,1.9875,1.9875,1.9901,2.0093,2.0771,2.0446,2.0093,2.0708,2.0396,1.9914,1.9875,2.0913,2.1995,2.258,2.3719,2.4567,2.4588,0.0,0.0,2.4425,2.3248,2.2569,2.3308,2.2737,2.2053,2.1514,2.1933,2.2246,2.2246,2.2246,2.2443,2.2957,2.2046,2.1719,2.2234,2.2246,2.2272,2.2309,2.2794,2.3058,2.3108,2.3108,2.3108,2.3108,2.3108,2.3108,2.3133,2.3753,2.4293,2.4775,2.536,2.5912,2.6436,2.6474,2.6499,2.6499,2.6499,2.6813,2.7218,0.8905,0.8804,0.9211,1.0568,1.0788,1.1404,1.3224,1.3704,1.4026,1.4482,1.4738,1.4894,1.4894,1.4894,1.4894,1.4894,1.4541,1.4434,1.4793,1.4629,1.458,1.4687,1.5,1.5176,1.5176,1.649,1.7214,1.7299,1.8699,1.904,1.8391,1.8895,1.8404,1.7131,1.7732,1.7832,1.7531,1.7645,1.7953,1.8297,1.8103,1.8412,1.9008,1.9008,1.9056,1.9123,1.9123,1.8821,1.8501,1.8953,1.9381,1.9753,2.0193,2.0515,2.0578,1.9974,2.03,2.069,1.9999,1.9798,1.9952,2.0622,2.0295,1.9978,2.066,2.0566,2.0365,2.0365,2.1393,2.2483,2.3128,2.4053,2.4956,2.5714,0.0,2.5076,2.5749,2.4303,2.3303,2.3573,2.2854,2.2239,2.2024,2.2468,2.2794,2.2794,2.2794,2.2882,2.3095,2.2706,2.2581,2.2782,2.2794,2.2794,2.2794,2.2995,2.3108,2.3108,2.3108,2.3296,2.3665,2.3665,2.3822,2.4186,2.4757,2.5109,2.5347,2.5933,2.6298,2.6499,2.6499,2.67,2.7002,2.7002,2.7354,2.7795,0.8905,0.8962,0.9458,1.0593,1.0965,1.1692,1.3423,1.3919,1.4309,1.4912,1.5234,1.541,1.541,1.541,1.5361,1.5225,1.4951,1.4813,1.4813,1.4912,1.5107,1.54,1.541,1.541,1.541,1.6613,1.7246,1.7246,1.8501,1.8741,1.8004,1.8259,1.7632,1.6395,1.6994,1.7044,1.6721,1.6923,1.7458,1.8142,1.7976,1.8443,1.9221,1.8982,1.882,1.8661,1.8447,1.8178,1.8004,1.8528,1.9246,2.0007,2.0318,2.0541,2.0641,2.0401,2.0765,2.1094,2.0314,1.9936,1.9901,2.0371,2.0144,1.9977,2.0617,2.0744,2.0742,2.0918,2.2164,2.3352,2.3813,2.4815,2.5894,2.6762,2.6692,2.6618,2.6785,2.5476,2.4365,2.4096,2.3158,2.2543,2.2543,2.2882,2.3108,2.3108,2.3108,2.3108,2.3108,2.3108,2.3195,2.3371,2.3371,2.3459,2.3634,2.3283,2.3195,2.3371,2.3371,2.3672,2.4255,2.4255,2.4456,2.4813,2.5372,2.5598,2.5636,2.6248,2.6499,2.6512,2.6688,2.6989,2.7306,2.7482,2.7896,2.836,0.8871,0.9335,1.002,1.0695,1.1375,1.233,1.3862,1.4114,1.4416,1.5303,1.541,1.541,1.541,1.541,1.5244,1.4852,1.4785,1.4785,1.4785,1.5176,1.541,1.542,1.541,1.541,1.541,1.6122,1.6492,1.6492,1.723,1.723,1.6521,1.7257,1.68,1.5439,1.6179,1.6492,1.6461,1.5918,1.6835,1.8641,1.8118,1.865,1.9695,1.8992,1.8688,1.8581,1.7852,1.807,1.8673,1.8688,1.958,2.0564,1.9987,2.0239,2.0817,2.1358,2.1131,2.0717,2.0704,2.0289,1.9823,1.9798,1.9798,1.9962,2.0566,2.0691,2.0855,2.1393,2.3095,2.4499,2.4499,2.622,2.7615,2.7615,2.8158,2.8272,2.7403,2.6779,2.6079,2.521,2.3919,2.3108,2.312,2.3108,2.3108,2.3108,2.312,2.3108,2.3108,2.3108,2.3384,2.3979,2.4004,2.4268,2.4775,2.3684,2.3409,2.4004,2.4004,2.4293,2.48,2.48,2.48,2.4825,2.5385,2.5598,2.5649,2.626,2.6499,2.6549,2.7102,2.7329,2.7369,2.7908,2.8461,2.89,0.9098,0.9457,1.0165,1.1347,1.1956,1.2824,1.4371,1.459,1.4795,1.5342,1.541,1.541,1.541,1.541,1.5361,1.5234,1.5225,1.5225,1.5225,1.5342,1.5547,1.5889,1.5576,1.541,1.541,1.6122,1.6649,1.6974,1.7394,1.7394,1.7003,1.6896,1.6312,1.541,1.5633,1.5719,1.5719,1.5561,1.6131,1.718,1.7558,1.7932,1.8286,1.8581,1.807,1.7146,1.6922,1.6853,1.704,1.8188,1.8999,1.9678,2.0242,2.133,2.2196,2.1232,2.1619,2.2234,2.1455,2.1393,2.128,2.01,1.9798,1.9962,2.0566,2.0993,2.1506,2.2418,2.3849,2.505,2.5408,2.6402,2.7173,2.7173,2.7357,2.7397,2.7123,2.6476,2.5961,2.5687,2.4525,2.3891,2.4249,2.3572,2.3434,2.4224,2.4286,2.4123,2.3766,2.4073,2.4186,2.4004,2.4381,2.4625,2.4788,2.4449,2.4374,2.4569,2.4569,2.4858,2.536,2.536,2.5586,2.6009,2.6172,2.6235,2.6248,2.6424,2.6725,2.709,2.7253,2.7758,2.8461,2.8587,2.9051,2.9528,0.9667,1.022,1.099,1.2159,1.2806,1.3497,1.4622,1.4813,1.4932,1.5352,1.541,1.541,1.541,1.541,1.541,1.541,1.541,1.541,1.541,1.5566,1.5811,1.6085,1.5977,1.5907,1.5907,1.6196,1.6564,1.6992,1.6825,1.6741,1.6767,1.6279,1.5835,1.541,1.541,1.541,1.541,1.541,1.5835,1.6539,1.6978,1.733,1.7633,1.777,1.7285,1.6454,1.6179,1.6161,1.6444,1.7607,1.8679,1.9703,2.0708,2.1832,2.2543,2.1343,2.1857,2.2631,2.1995,2.1895,2.1744,2.0727,2.0464,2.0614,2.1192,2.1568,2.2133,2.3221,2.4326,2.5261,2.5801,2.6778,2.7402,2.7063,2.7508,2.7674,2.6965,2.6561,2.6167,2.5819,2.4906,2.4456,2.4763,2.4173,2.4061,2.4738,2.4788,2.4669,2.4343,2.4612,2.4757,2.4632,2.4958,2.5234,2.5473,2.5686,2.5573,2.5134,2.5134,2.541,2.5971,2.5971,2.616,2.6499,2.6499,2.6499,2.6499,2.6499,2.6826,2.7306,2.7519,2.8147,2.8913,2.9189,2.949,2.9792,1.0559,1.1402,1.2253,1.3067,1.3723,1.4309,1.4775,1.4844,1.498,1.5361,1.541,1.541,1.541,1.5449,1.5469,1.5469,1.5508,1.5537,1.5537,1.5928,1.6173,1.6212,1.6572,1.6775,1.6814,1.6367,1.6338,1.6755,1.5917,1.5732,1.6144,1.5674,1.5449,1.541,1.541,1.541,1.541,1.541,1.5777,1.6407,1.6464,1.6866,1.733,1.6736,1.6464,1.6322,1.5642,1.5865,1.6571,1.7177,1.8739,2.0589,2.1281,2.1895,2.2284,2.1732,2.1945,2.2355,2.2355,2.2058,2.1694,2.1644,2.1669,2.182,2.2221,2.2347,2.2698,2.3841,2.4625,2.5328,2.5834,2.7166,2.7891,2.7078,2.8132,2.851,2.6905,2.6784,2.657,2.5761,2.5209,2.4876,2.4958,2.4938,2.4983,2.5034,2.4996,2.4938,2.4938,2.4988,2.5209,2.5586,2.5737,2.605,2.6562,2.7115,2.6816,2.5749,2.5749,2.605,2.6637,2.6537,2.6524,2.6562,2.6512,2.6524,2.6562,2.6562,2.6927,2.7482,2.7984,2.8511,2.9026,2.9591,2.9792,2.9792,1.1942,1.2509,1.3082,1.3843,1.4336,1.4785,1.5215,1.5273,1.5312,1.54,1.541,1.541,1.541,1.5723,1.5948,1.5948,1.624,1.6414,1.6414,1.6502,1.6738,1.7112,1.7187,1.7393,1.7725,1.695,1.6807,1.7246,1.6677,1.6463,1.6541,1.6133,1.5732,1.541,1.541,1.541,1.541,1.541,1.5497,1.57,1.6265,1.6255,1.5911,1.635,1.6151,1.5613,1.5468,1.5753,1.6457,1.8108,2.038,2.2345,2.17,2.2171,2.2819,2.2297,2.2493,2.2932,2.2932,2.3201,2.3339,2.2857,2.3125,2.3251,2.2485,2.2619,2.3246,2.4374,2.5088,2.5673,2.6278,2.6668,2.6834,2.6634,2.6891,2.6982,2.6591,2.657,2.6502,2.6345,2.5808,2.5598,2.6097,2.6135,2.6323,2.6716,2.6386,2.6135,2.6135,2.6515,2.6389,2.5624,2.6879,2.7419,2.714,2.7657,2.7582,2.6917,2.6917,2.7205,2.772,2.6889,2.6738,2.7115,2.6688,2.6738,2.714,2.714,2.7682,2.8549,2.8662,2.9101,2.9616,2.9741,2.9792,2.9792,1.3024,1.3409,1.387,1.4642,1.4965,1.5156,1.5381,1.541,1.541,1.541,1.541,1.5488,1.5703,1.5958,1.6183,1.6367,1.657,1.6697,1.6697,1.6892,1.7148,1.7406,1.7578,1.7783,1.8008,1.7535,1.7451,1.7686,1.6826,1.6523,1.6687,1.6279,1.586,1.541,1.541,1.541,1.541,1.541,1.541,1.5439,1.5806,1.5748,1.5459,1.6076,1.5938,1.5439,1.5859,1.6585,1.7533,1.8975,2.0836,2.2463,2.2031,2.2431,2.2995,2.2443,2.2669,2.3108,2.3108,2.3333,2.3547,2.3552,2.3778,2.3766,2.2869,2.3108,2.376,2.4612,2.5234,2.5774,2.6386,2.6816,2.6939,2.6555,2.6816,2.6939,2.6555,2.6499,2.6499,2.6499,2.6461,2.6628,2.7228,2.7278,2.7369,2.7657,2.7406,2.7165,2.6901,2.7369,2.7281,2.6427,2.7507,2.7971,2.767,2.8222,2.8348,2.8059,2.7795,2.7821,2.8084,2.7507,2.7291,2.7281,2.7256,2.7291,2.7341,2.757,2.8172,2.8888,2.8888,2.9555,3.0419,2.9972,2.9792,2.9792,1.3962,1.4251,1.4628,1.5294,1.541,1.541,1.541,1.5478,1.5527,1.5527,1.5586,1.5781,1.6173,1.6271,1.6465,1.6882,1.6921,1.6921,1.6921,1.7295,1.749,1.749,1.7822,1.8008,1.8008,1.7939,1.7939,1.8008,1.6887,1.6436,1.6687,1.6279,1.586,1.541,1.541,1.541,1.541,1.541,1.541,1.541,1.541,1.541,1.5449,1.584,1.5801,1.5615,1.6326,1.757,1.8976,1.984,2.0997,2.2145,2.2379,2.2732,2.3007,2.2556,2.2744,2.3108,2.3108,2.3183,2.3358,2.3879,2.4067,2.4017,2.3496,2.3866,2.4406,2.4858,2.5372,2.5925,2.6537,2.7182,2.7431,2.6854,2.7323,2.7548,2.688,2.6776,2.6776,2.6776,2.7178,2.7645,2.8197,2.816,2.8185,2.8373,2.821,2.7946,2.7582,2.7996,2.7996,2.7444,2.8059,2.8348,2.8247,2.8762,2.9038,2.9026,2.8612,2.8398,2.8386,2.8197,2.7908,2.7582,2.7946,2.7896,2.7595,2.8059,2.8574,2.9038,2.9038,2.992,3.1106,3.0317,3.0037,2.9998,1.5041,1.5226,1.5255,1.5381,1.541,1.541,1.541,1.5732,1.6007,1.6007,1.6318,1.6551,1.6609,1.6982,1.7373,1.7803,1.7832,1.7832,1.7832,1.7891,1.793,1.793,1.7978,1.8008,1.8008,1.7656,1.7646,1.8008,1.7471,1.7041,1.6687,1.6279,1.586,1.541,1.541,1.541,1.541,1.541,1.541,1.541,1.541,1.541,1.542,1.5478,1.5693,1.6016,1.6144,1.7718,1.9871,2.0719,2.1874,2.2932,2.299,2.3045,2.3095,2.3007,2.3045,2.3108,2.3108,2.3471,2.3904,2.3979,2.4356,2.4662,2.4575,2.4996,2.5398,2.5473,2.5971,2.6549,2.7102,2.7274,2.746,2.7844,2.7979,2.8015,2.792,2.7883,2.7883,2.7883,2.7946,2.821,2.8725,2.8386,2.8511,2.949,2.8662,2.8285,2.865,2.8737,2.8561,2.8009,2.9013,2.9327,2.8787,2.939,2.9679,2.9679,2.9591,2.9566,2.9528,2.8549,2.8323,2.865,2.8285,2.8335,2.8675,2.875,2.9151,2.9679,2.9679,3.0317,3.118,3.1082,3.1007,3.0895,1.5235,1.541,1.541,1.541,1.541,1.541,1.541,1.5811,1.6095,1.6095,1.6455,1.6794,1.707,1.748,1.7812,1.7988,1.8008,1.8008,1.8008,1.8008,1.8008,1.8008,1.8008,1.8008,1.8008,1.7832,1.7822,1.8008,1.7588,1.7158,1.6697,1.6533,1.6201,1.5762,1.5518,1.5547,1.5762,1.5508,1.541,1.543,1.5684,1.5625,1.5459,1.5937,1.5957,1.5851,1.681,1.8518,2.0412,2.1306,2.225,2.3108,2.3108,2.3108,2.3108,2.3108,2.3108,2.3005,2.2537,2.3214,2.3973,2.3769,2.4476,2.5335,2.5661,2.6151,2.6352,2.5724,2.6336,2.7027,2.7278,2.7532,2.7821,2.8059,2.8109,2.8109,2.8109,2.8109,2.8222,2.8524,2.8561,2.8787,2.9352,2.9189,2.9252,2.9754,2.9327,2.9013,2.89,2.9239,2.9151,2.8549,2.9365,2.9666,2.9415,2.9666,2.9792,2.9792,2.9792,2.9792,2.9779,2.9277,2.9001,2.89,2.9013,2.9001,2.8913,2.9277,2.9566,2.9792,2.9792,3.0381,3.1315,3.2393,3.2105,3.1143]}]]